     2              OBSERVATION DATA    GPS                 RINEX VERSION / TYPE
ASRINEXO V2.2.0 UX USGS 24-MAR-94 10:18                     PGM / RUN BY / DATE
                                                            COMMENT
Original Marker Name: pk59 Park_1959_DWR                    COMMENT
Campaign Name: USGS Parkfield                               COMMENT
4-Character Station Name: PARK                              COMMENT
6-Character Antenna Code: ASHL12                            COMMENT
Vertical Measurement Point: BBE                             COMMENT
Vertical Offset to Rinex Ref. Point: 0.0595                 COMMENT
Radial Measurement Point: EGP                               COMMENT
Radial Offset to Rinex Ref. Point: 0.1424                   COMMENT
Antenna Height from Field Measurement: 1.2100 m             COMMENT
Additional Antenna Identification Info.:                    COMMENT
Original Ashtech L1/L2 (700228ABC)                          COMMENT
Original XYZ: -2610634.6000 -4466519.8900 3719323.3700      COMMENT
New XYZ position is based on association with SCEC monument COMMENT
E1F1N3K5+0011. Position of that monument is believed to be  COMMENT
valid to within 1 m horizontally; vertical accuracy         COMMENT
should be no worse than 3-times this value.                 COMMENT
                                                            COMMENT
Revised Rinex header created by UCSD GPS archive for        COMMENT
GSAC on 11-Jul-2000 (2000:193) 00:55:54 GMT                 COMMENT
For assistance contact dagnew@ucsd.edu                      COMMENT
or anderson@python.ucsd.edu                                 COMMENT
                                                            COMMENT
PARK 1959                                                   MARKER NAME
                                                            MARKER NUMBER
JMS US GEOLOGICAL SURVEY                                    OBSERVER / AGENCY
762 ASHTECH L-XII 6A                                        REC # / TYPE / VERS
745 ASHTECH GEODETIC L                                      ANT # / TYPE
 -2610615.7544 -4466448.1790  3719270.3964                  APPROX POSITION XYZ
        1.1421        0.0000        0.0000                  ANTENNA: DELTA H/E/N
     1     2     0                                          WAVELENGTH FACT L1/2
     3    C1    L1    L2                                    # / TYPES OF OBSERV
    30                                                      INTERVAL
  1992     4    11     4     5    0.000000                  TIME OF FIRST OBS
  1992     4    11    14    48    0.000000                  TIME OF LAST OBS
                                                            END OF HEADER
 92  4 11  4  5  0.0000000  0  4 12 13 16 20
  31587564.585       84095.301 6     65528.884 5
  33255043.804       67038.631 5     52237.664 3
  32108230.920      -81305.376 6    -63354.840 4
  30962267.653      -76262.603 7    -59424.848 7
 92  4 11  4  5 30.0000000  0  5 12 13 16 20 24
  22310490.566       85236.635 6     66417.829 6
  23974583.046       67705.071 5     52756.892 2
  22798985.888      -81065.519 6    -63167.676 4
  21654000.845      -75952.238 7    -59182.888 7
  20787666.288       38687.097 8     30146.133 9
 92  4 11  4  6  0.0000000  0  5 12 13 16 20 24
  22327116.470      172603.354 6    134495.781 5
  23987742.116      136871.338 5    106652.608 1
  22783440.746     -162732.214 6   -126803.994 5
  21639459.404     -152381.564 7   -118738.136 8
  20795301.107       78811.609 8     61411.990 9
 92  4 11  4  6 30.0000000  0  5 12 13 16 20 24
  22343913.840      260887.757 6    203288.796 6
  24001008.853      206563.694 5    160958.287 1
  22768057.786     -243567.843 6   -189792.709 6
  21625084.054     -227933.509 7   -177609.711 7
  20803121.806      119896.832 8     93426.469 9
 92  4 11  4  7  0.0000000  0  5 12 13 16 20 24
  22360914.470      350214.488 6    272894.008 5
  24014387.691      276909.289 5    215773.086 2
  22752855.330     -323448.529 6   -252037.324 6
  21610900.273     -302478.079 7   -235696.312 7
  20811147.231      162071.471 8    126289.825 9
 92  4 11  4  7 30.0000000  0  5 12 13 16 20 24
  22378063.183      440349.398 6    343128.985 5
  24027854.059      347677.320 5    270917.012 2
  22737792.547     -402594.036 6   -313709.056 6
  21596858.606     -376244.182 7   -293176.324 7
  20819335.781      205096.343 8    159815.712 9
 92  4 11  4  8  0.0000000  0  5 12 13 16 20 24
  22395362.108      531257.559 6    413966.502 6
  24041401.675      418835.403 4    326364.849 2
  22722868.283     -481041.998 6   -374837.262 6
  21582965.022     -449261.009 7   -350072.486 7
  20827679.288      248936.724 8    193977.051 9
 92  4 11  4  8 30.0000000  0  5 12 13 16 20 24
  22412805.834      622902.388 6    485378.028 6
  24054995.185      490350.273 4    382090.665 2
  22708069.626     -558829.137 6   -435450.547 5
  21569205.142     -521559.400 7   -406408.824 8
  20836165.539      293551.916 8    228742.142 9
 92  4 11  4  9  0.0000000  0  5 12 13 16 20 24
  22430379.076      715248.361 6    557335.905 6
  24068667.500      562189.060 4    438068.916 2
  22693391.794     -635970.505 6   -495560.627 5
  21555581.093     -593169.505 7   -462208.832 7
  20844798.336      338902.785 8    264080.491 9
 92  4 11  4  9 30.0000000  0  5 12 13 16 20 24
  22448075.516      808264.068 6    629815.655 5
  24082401.310      634323.518 5    494277.649 2
  22678825.783     -712484.690 6   -555181.994 4
  21542079.336     -664116.987 7   -517492.527 7
  20853560.998      384953.866 8    299964.449 9
 92  4 11  4 10  0.0000000  0  5 12 13 16 20 24
  22465899.099      901905.502 6    702783.003 5
  24096181.573      706713.045 5    550685.007 2
  22664376.375     -788430.248 6   -614360.275 5
  21528694.810     -734440.451 7   -572289.955 8
  20862449.824      431673.500 8    336369.366 9
 92  4 11  4 10 30.0000000  0  5 12 13 16 20 24
  22483831.780      996151.893 6    776221.719 6
  24110001.377      779339.697 5    607277.208 2
  22650027.095     -863816.963 6   -673103.094 6
  21515429.887     -804155.053 7   -626612.958 8
  20871465.794      479045.567 8    373282.653 9
 92  4 11  4 11  0.0000000  0  5 12 13 16 20 24
  22501878.062     1090976.963 6    850111.381 4
  24123854.512      852180.675 5    664036.458 2
  22635784.263     -938659.778 6   -731422.098 5
  21502274.692     -873281.123 7   -680477.356 8
  20880602.553      527051.638 8    410690.002 9
 92  4 11  4 11 30.0000000  0  5 12 13 16 20 24
  22520026.324     1186358.715 6    924434.805 5
  24137757.694      925216.305 4    720947.347 2
  22621649.656    -1012983.490 6   -789336.597 6
  21489230.131     -941835.098 7   -733895.977 7
  20889856.543      575685.740 8    448586.706 9
 92  4 11  4 12  0.0000000  0  5 12 13 16 20 24
  22538280.682     1282278.052 6    999177.132 5
  24151694.136      998430.840 5    777997.666 2
  22607602.580    -1086802.974 6   -846858.195 5
  21476289.258    -1009830.817 7   -786879.583 8
  20899229.264      624937.382 8    486964.619 9
 92  4 11  4 12 30.0000000  0  5 12 13 16 20 24
  22556630.982     1378716.930 6   1074324.284 5
  24165650.959     1071809.641 5    835175.982 2
  22593646.943    -1160108.652 6   -903979.419 6
  21463457.241    -1077280.396 7   -839437.634 8
  20908710.212      674768.622 8    525794.168 9
 92  4 11  4 13  0.0000000  0  5 12 13 16 20 24
  22575079.911     1475663.512 6   1149867.058 5
  24179644.080     1145344.206 4    892475.638 2
  22579793.529    -1232908.989 6   -960706.881 5
  21450725.981    -1144190.059 7   -891574.965 8
  20918303.260      725166.618 8    565065.342 9
 92  4 11  4 13 30.0000000  0  5 12 13 16 20 24
  22593628.061     1573118.215 6   1225805.789 5
  24193678.871     1219037.766 5    949899.139 2
  22566032.462    -1305205.307 6  -1017041.600 6
  21438094.815    -1210554.006 7   -943287.063 8
  20927999.438      776127.519 8    604775.150 9
 92  4 11  4 14  0.0000000  0  5 12 13 16 20 24
  22612258.368     1671053.403 6   1302118.885 5
  24207718.129     1292865.495 4   1007427.426 2
  22552371.803    -1377026.976 6  -1073006.457 5
  21425565.000    -1276394.167 7   -994591.014 8
  20937794.281      827594.740 8    644879.482 9
 92  4 11  4 14 30.0000000  0  5 12 13 16 20 24
  22630984.894     1769449.405 6   1378791.079 5
  24221798.187     1366811.590 4   1065047.585 2
  22538787.611    -1448392.063 6  -1128615.546 6
  21413130.499    -1341724.320 7  -1045497.566 8
  20947676.932      879536.665 8    685353.721 9
 92  4 11  4 15  0.0000000  0  5 12 13 16 20 24
  22649793.891     1868301.820 6   1455818.916 5
  24235871.368     1440874.656 4   1122759.077 2
  22525295.173    -1519304.109 6  -1183871.609 6
  21400797.627    -1406543.413 7  -1096005.880 9
  20957658.212      931968.729 8    726209.895 9
 92  4 11  4 15 30.0000000  0  5 12 13 16 20 24
  22668690.382     1967589.879 6   1533186.226 4
  24250005.068     1515037.387 5   1180548.396 1
  22511880.353    -1589772.862 6  -1238782.256 6
  21388561.290    -1470866.322 7  -1146127.566 9
  20967721.648      984872.238 8    767433.416 9
 92  4 11  4 16  0.0000000  0  5 12 13 16 20 24
  22687668.437     2067310.679 6   1610890.717 4
  24264124.702     1589299.090 5   1238414.593 1
  22498567.477    -1659780.921 6  -1293333.912 5
  21376414.333    -1534690.812 7  -1195860.874 9
  20977880.432     1038257.567 8    809032.387 9
 92  4 11  4 16 30.0000000  0  5 12 13 16 20 24
  22706724.179     2167456.380 6   1688926.303 4
  24278278.783     1663656.036 5   1296354.974 3
  22485328.031    -1729315.512 6  -1347516.623 5
  21364362.654    -1598018.580 8  -1245207.120 8
  20988132.435     1092146.412 8    851023.702 9
 92  4 11  4 17  0.0000000  0  5 12 13 16 20 24
  22725862.321     2268005.732 6   1767276.438 4
  24292438.588     1738089.964 5   1354355.382
  22472189.030    -1798377.606 6  -1401331.180 5
  21352404.544    -1660865.435 8  -1294178.638 9
  20998482.159     1146524.984 8    893396.625 9
 92  4 11  4 17 30.0000000  0  5 12 13 16 20 24
  22745068.520     2368954.521 6   1845937.826 4
  24306623.590     1812599.909 5   1412415.148 2
  22459133.649    -1866974.352 6  -1454783.118 5
  21340537.244    -1723229.790 7  -1342774.170 8
  21008924.509     1201381.751 8    936142.165 9
 92  4 11  4 18  0.0000000  0  5 12 13 16 20 24
  22764352.651     2470292.140 6   1924902.167 4
  24320813.654     1887179.104 5   1470528.792 1
  22446165.555    -1935122.872 6  -1507885.783 6
  21328759.603    -1785116.483 8  -1390997.509 9
  21019446.641     1256699.343 8    979246.794 9
 92  4 11  4 18 30.0000000  0  5 12 13 16 20 24
  22783710.875     2572008.036 6   2004161.292 2
  24335013.629     1961819.531 5   1528690.250 1
  22433281.361    -2002839.184 6  -1560651.660 6
  21317072.495    -1846530.956 8  -1438852.889 9
  21030061.679     1312453.831 8   1022691.859 9
 92  4 11  4 19  0.0000000  0  5 12 13 16 20 24
  22803135.306     2674096.685 6   2083710.856 5
  24349233.078     2036519.015 5   1586897.662 3
  22420470.947    -2070135.719 6  -1613090.436 6
  21305478.919    -1907472.938 8  -1486340.084 8
  21040750.775     1368645.233 8   1066477.366 9
 92  4 11  4 19 30.0000000  0  5 12 13 16 20 24
  22822629.921     2776565.311 6   2163556.532 4
  24363460.031     2111288.192 5   1645159.294 2
  22407748.028    -2137014.692 6  -1665203.864 5
  21293973.781    -1967929.419 8  -1533448.972 8
  21051531.031     1425292.363 8   1110617.993 9
 92  4 11  4 20  0.0000000  0  5 12 13 16 20 24
  22842205.785     2879406.236 6   2243692.298 4
  24377702.271     2186122.860 5   1703472.112 2
  22395108.800    -2203453.229 6  -1716974.074 6
  21282557.709    -2027902.277 8  -1580181.012 9
  21062395.815     1482387.764 8   1155107.923 9
 92  4 11  4 20 30.0000000  0  5 12 13 16 20 24
  22861840.386     2982601.589 6   2324104.223 4
  24391953.201     2261008.834 5   1761824.792 2
  22382548.378    -2269444.755 6  -1768395.968 5
  21271236.915    -2087404.042 8  -1626545.970 8
  21073341.220     1539923.880 8   1199941.264 9
 92  4 11  4 21  0.0000000  0  5 12 13 16 20 24
  22881541.542     3086144.507 6   2404787.014 5
  24406213.135     2335942.669 5   1820214.835 3
  22370074.334    -2334984.238 6  -1819465.632 5
  21260001.592    -2146435.488 8  -1672544.432 9
  21084376.005     1597888.791 8   1245108.730 9
 92  4 11  4 21 30.0000000  0  5 12 13 16 20 24
  22901315.256     3190017.764 6   2485727.185 4
  24420474.849     2410909.702 5   1878630.619 2
  22357688.693    -2400074.365 6  -1870185.134 5
  21248857.709    -2205008.540 8  -1718185.725 9
  21095479.718     1656243.357 8   1290579.826 9
 92  4 11  4 22  0.0000000  0  5 12 13 16 20 24
  22921140.239     3294225.510 6   2566928.004 4
  24434753.385     2485917.608 5   1937078.450 3
  22345393.619    -2464704.613 6  -1920546.295 6
  21237799.262    -2263112.867 8  -1763461.770 9
  21106660.177     1714984.257 8   1336351.964 9
 92  4 11  4 22 30.0000000  0  5 12 13 16 20 24
  22941033.837     3398767.687 6   2648389.439 5
  24449028.884     2560969.489 4   1995560.419 2
  22333175.255    -2528898.275 6  -1970567.249 4
  21226831.974    -2320743.114 8  -1808368.410 9
  21117906.877     1774108.055 8   1382422.456 9
 92  4 11  4 23  0.0000000  0  5 12 13 16 20 24
  22960989.243     3503628.182 6   2730098.877 4
  24463322.393     2636053.018 4   2054067.105 1
  22321039.362    -2592676.984 6  -2020264.882 6
  21215953.718    -2377910.150 8  -1852914.097 9
  21129228.823     1833600.761 8   1428780.421 9
 92  4 11  4 23 30.0000000  0  5 12 13 16 20 24
  22981002.478     3608801.557 6   2812052.127 4
  24477611.992     2711166.352 4   2112596.741 1
  22308979.900    -2656044.706 6  -2069642.263 6
  21205164.178    -2434613.321 8  -1897098.343 9
  21140619.139     1893472.785 8   1475433.956 9
 92  4 11  4 24  0.0000000  0  6  3 12 13 16 20 24
  23941406.797     -153140.898 5   -119330.755 3
  23001071.485     3714275.266 6   2894239.400 4
  24491910.596     2786300.605 4   2171143.122 2
  22296994.497    -2719011.538 6  -2118707.253 6
  21194460.669    -2490859.404 8  -1940926.410 9
  21152085.921     1953723.613 8   1522382.655 9
 92  4 11  4 24 30.0000000  0  6  3 12 13 16 20 24
  23930096.229     -212564.600 4   -165634.766 2
  23021199.544     3820048.535 6   2976660.106 4
  24506217.890     2861457.987 4   2229707.288 2
  22285089.749    -2781563.365 6  -2167448.874 6
  21183842.944    -2546643.998 8  -1984394.881 9
  21163627.041     2014353.633 8   1569626.836 9
 92  4 11  4 25  0.0000000  0  6  3 12 13 16 20 24
  23918820.142     -271849.069 4   -211830.292 1
  23041386.968     3926122.285 6   3059314.941 4
  24520507.803     2936642.997 4   2288292.945 2
  22273270.124    -2843676.428 6  -2215848.605 6
  21173316.624    -2601960.452 8  -2027498.572 9
  21175242.499     2075379.252 8   1617179.273 9
 92  4 11  4 25 30.0000000  0  6  3 12 13 16 20 24
  23907558.749     -330998.020 5   -257920.246 2
  23061627.475     4032490.056 6   3142198.892 4
  24534832.198     3011852.079 4   2346897.532 2
  22261536.248    -2905356.764 6  -2263911.139 5
  21162879.648    -2656809.462 8  -2070238.019 9
  21186922.384     2136793.327 8   1665034.409 9
 92  4 11  4 26  0.0000000  0  6  3 12 13 16 20 24
  23896335.711     -390013.123 5   -303905.867 3
  23081923.125     4139147.182 6   3225308.324 4
  24549150.590     3087084.447 4   2405520.112 2
  22249880.340    -2966601.461 6  -2311634.226 6
  21152533.798    -2711189.889 8  -2112612.340 9
  21198685.052     2198593.206 8   1713190.160 9
 92  4 11  4 26 30.0000000  0  6  3 12 13 16 20 24
  23885134.556     -448898.141 5   -349790.159 2
  23102280.235     4246087.238 6   3308638.193 3
  24563467.482     3162337.199 4   2464158.593 1
  22238311.928    -3027402.119 6  -2359011.305 6
  21142274.292    -2765102.751 7  -2154622.321 9
  21210521.151     2260776.767 8   1761644.896 9
 92  4 11  4 27  0.0000000  0  6  3 12 13 16 20 24
  23873937.903     -507661.350 5   -395579.525 2
  23122678.109     4353299.069 6   3392179.877 3
  24577791.842     3237602.145 4   2522806.537 1
  22226824.205    -3087768.604 6  -2406050.074 6
  21132102.350    -2818553.424 8  -2196272.158 8
  21222421.711     2323343.911 8   1810398.525 9
 92  4 11  4 27 30.0000000  0  5  3 12 16 20 24
  23862789.831     -566305.070 5   -441275.797 3
  23143129.939     4460777.296 6   3475929.108 2
  22215420.069    -3147701.951 6  -2452751.333 6
  21122018.219    -2871541.533 8  -2237561.552 9
  21234401.146     2386287.845 8   1859445.750 9
 92  4 11  4 28  0.0000000  0  5  3 12 16 20 24
  23851650.136     -624830.446 5   -486879.836 4
  23163630.664     4568518.133 6   3559882.986 3
  22204102.626    -3207185.504 6  -2499102.098 6
  21112022.839    -2924065.579 8  -2278489.348 9
  21246448.287     2449597.428 8   1908777.903 9
 92  4 11  4 28 30.0000000  0  5  3 12 16 20 24
  23840541.048     -683233.160 5   -532388.300 2
  23184185.310     4676522.945 5   3644042.573 3
  22192870.584    -3266216.630 6  -2545100.323 5
  21102119.212    -2976118.567 8  -2319050.080 9
  21258562.892     2513263.974 8   1958388.206 9
 92  4 11  4 29  0.0000000  0  5  3 12 16 20 24
  23829444.524     -741515.248 5   -577802.839 3
  23204784.664     4784787.094 5   3728404.194 3
  22181715.916    -3324807.019 6  -2590755.113 6
  21092303.394    -3027699.578 8  -2359243.033 8
  21270743.179     2577271.131 8   2008263.925 9
 92  4 11  4 29 30.0000000  0  5  3 12 16 20 24
  23818369.569     -799689.173 4   -623133.004 3
  23225430.785     4893294.789 5   3812955.651 4
  22170649.093    -3382973.982 6  -2636079.976 6
  21082575.422    -3078818.588 8  -2399075.993 9
  21282981.889     2641584.809 8   2058378.484 9
 92  4 11  4 30  0.0000000  0  5  3 12 16 20 24
  23807326.129     -857748.136 5   -668373.651 3
  23246130.233     5002050.292 5   3897700.158 4
  22159659.294    -3440715.913 6  -2681073.632 6
  21072938.015    -3129465.420 8  -2438541.022 9
  21295279.371     2706201.280 8   2108728.991 9
 92  4 11  4 30 30.0000000  0  5  3 12 16 20 24
  23796297.975     -915691.228 4   -713523.996 2
  23266873.481     5111051.248 5   3982635.951 3
  22148749.244    -3498037.473 6  -2725739.737 6
  21063391.106    -3179637.075 8  -2477635.784 9
  21307638.942     2771139.488 8   2159330.195 9
 92  4 11  4 31  0.0000000  0  5  3 12 16 20 24
  23785289.575     -973520.295 4   -758585.473 2
  23287659.587     5220293.496 5   4067759.755 2
  22137923.129    -3554930.475 6  -2770071.896 5
  21053931.168    -3229332.178 8  -2516359.201 9
  21320060.530     2836412.387 8   2210192.195 9
 92  4 11  4 31 30.0000000  0  5  3 12 16 20 24
  23774312.970    -1031235.666 5   -803558.367 2
  23308492.181     5329773.461 5   4153068.780 3
  22127185.765    -3611375.480 6  -2814054.971 7
  21044567.451    -3278548.932 8  -2554709.882 9
  21332544.800     2902039.439 8   2261330.164 9
 92  4 11  4 32  0.0000000  0  5  3 12 16 20 24
  23763347.183    -1088847.260 4   -848450.396 3
  23329368.818     5439478.403 5   4238553.128 5
  22116530.837    -3667362.977 6  -2857681.538 6
  21035291.858    -3327294.686 8  -2592693.550 9
  21345105.502     2968026.301 8   2312748.502 9
 92  4 11  4 32 30.0000000  0  5  3 12 16 20 24
  23752409.247    -1146356.473 4   -893262.666 4
  23350290.443     5549404.094 5   4324209.491 4
  22105960.472    -3722877.506 6  -2900939.564 6
  21026106.831    -3375567.757 8  -2630308.891 9
  21357722.847     3034370.419 8   2364445.222 9
 92  4 11  4 33  0.0000000  0  5  3 12 16 20 24
  23741477.907    -1203762.024 5   -937994.160 1
  23371248.608     5659548.790 5   4410036.468 3
  22095494.704    -3777903.543 6  -2943816.943 6
  21017009.614    -3423363.966 8  -2667552.654 9
  21370409.783     3101042.715 8   2416397.661 9
 92  4 11  4 33 30.0000000  0  5  3 12 16 20 24
  23730568.485    -1261059.860 4   -982641.688 2
  23392241.604     5769913.900 5   4496035.222 2
  22085115.594    -3832431.149 6  -2986305.959 6
  21008008.059    -3470677.007 8  -2704419.920 9
  21383162.332     3168025.047 8   2468591.688 9
 92  4 11  4 34  0.0000000  0  5  3 12 16 20 24
  23719693.788    -1318263.645 4  -1027215.928 1
  23413289.708     5880482.760 5   4582192.754 3
  22074828.202    -3886493.205 6  -3028432.181 5
  20999094.034    -3517517.451 8  -2740918.925 9
  21395962.870     3235284.871 8   2521001.942 9
 92  4 11  4 34 30.0000000  0  5  3 12 16 20 24
  23708819.720    -1375368.806 4  -1071713.364 3
  23434368.419     5991256.925 5   4668510.260 2
  22064633.157    -3940095.052 6  -3070199.806 6
  20990272.634    -3563878.511 8  -2777044.385 9
  21408809.581     3302809.235 8   2573618.324 9
 92  4 11  4 35  0.0000000  0  5  3 12 16 20 24
  23697974.444    -1432369.434 5  -1116129.304 3
  23455490.302     6102239.760 5   4754990.343 4
  22054519.080    -3993249.673 7  -3111618.942 6
  20981540.266    -3609751.420 8  -2812789.467 9
  21421713.249     3370610.971 8   2626450.859 9
 92  4 11  4 35 30.0000000  0  5  3 12 16 20 24
  23687148.015    -1489273.002 5  -1160469.617 4
  23476651.169     6213420.442 5   4841624.605 4
  22044482.308    -4045982.138 6  -3152709.119 6
  20972905.375    -3655141.496 8  -2848158.319 9
  21434671.780     3438700.285 8   2679507.475 9
 92  4 11  4 36  0.0000000  0  5  3 12 16 20 24
  23676334.813    -1546084.596 5  -1204738.325 3
  23497841.387     6324791.449 5   4928407.180 3
  22034524.725    -4098298.914 7  -3193475.395 6
  20964358.572    -3700050.637 8  -2883152.409 9
  21447681.267     3507081.743 8   2732791.727 9
 92  4 11  4 36 30.0000000  0  5  3 12 16 20 24
  23665548.589    -1602799.858 5  -1248931.905 2
  23519066.401     6436353.960 5   5015338.991 3
  22024652.858    -4150182.367 7  -3233904.011 6
  20955904.117    -3744472.149 8  -2917766.539 9
  21460754.028     3575769.988 8   2786315.042 9
 92  4 11  4 37  0.0000000  0  5  3 12 16 20 24
  23654772.836    -1659416.738 5  -1293048.850 2
  23540340.555     6548107.289 5   5102419.456 2
  22014862.832    -4201619.641 7  -3273984.946 6
  20947543.508    -3788401.207 8  -2951996.928 9
  21473884.025     3644784.643 8   2840092.695 9
 92  4 11  4 37 30.0000000  0  5  3 12 16 20 24
  23644024.095    -1715941.083 5  -1337093.646 3
  23561635.125     6660042.429 5   5189641.632 4
  22005166.025    -4252585.248 7  -3313698.350 6
  20939278.840    -3831841.569 8  -2985846.525 9
  21487078.205     3714113.600 8   2894115.267 9
 92  4 11  4 38  0.0000000  0  5  3 12 16 20 24
  23633278.006    -1772366.089 5  -1381061.074 2
  23582979.150     6772163.646 5   5277008.792 3
  21995566.381    -4303052.977 7  -3353023.816 6
  20931104.984    -3874783.325 8  -3019307.588 9
  21500331.436     3783760.417 8   2948385.512 9
 92  4 11  4 38 30.0000000  0  5  3 12 16 20 24
  23622545.739    -1828698.548 5  -1424956.396 2
  23604341.462     6884460.969 5   5364513.146 4
  21986054.861    -4353030.543 7  -3391967.315 6
  20923026.475    -3917231.192 8  -3052383.809 9
  21513641.310     3853708.351 8   3002890.407 9
 92  4 11  4 39  0.0000000  0  5  3 12 16 20 24
  23611849.174    -1884935.420 5  -1468777.222 2
  23625746.632     6996934.748 5   5452155.032 3
  21976634.186    -4402508.476 7  -3430521.498 7
  20915044.501    -3959179.271 8  -3085070.585 9
  21527008.177     3923940.559 8   3057616.801 9
 92  4 11  4 39 30.0000000  0  5  3 12 16 20 24
  23601173.864    -1941078.095 5  -1512524.616 3
  23647172.812     7109580.733 5   5539931.062 2
  21967314.235    -4451491.502 7  -3468690.030 6
  20907161.784    -4000626.386 8  -3117366.999 9
  21540424.777     3994438.603 8   3112550.346 9
 92  4 11  4 40  0.0000000  0  5  3 12 16 20 24
  23590505.150    -1997134.418 5  -1556204.766 3
  23668646.945     7222387.867 5   5627832.721 4
  21958075.531    -4500013.564 7  -3506499.355 7
  20899368.971    -4041578.383 8  -3149277.613 9
  21553884.548     4065186.969 8   3167678.940 9
 92  4 11  4 40 30.0000000  0  5  3 12 16 20 24
  23579852.594    -2053103.525 5  -1599816.951 3
  23690143.240     7335354.354 5   5715858.499 2
  21948933.362    -4548079.604 7  -3543953.362 6
  20891670.005    -4082031.549 8  -3180799.519 9
  21567398.904     4136185.249 8   3223002.279 9
 92  4 11  4 41  0.0000000  0  5  3 12 16 20 24
  23569221.084    -2108989.976 5  -1643364.725 2
  23711671.365     7448472.564 5   5804002.503 3
  21939873.628    -4595681.357 7  -3581045.590 6
  20884067.573    -4121987.928 8  -3211934.334 9
  21580957.619     4207447.406 8   3278531.240 9
 92  4 11  4 41 30.0000000  0  5  3 12 16 20 24
  23558599.416    -2164790.456 5  -1686845.516 2
  23733215.927     7561743.054 5   5892265.187 2
  21930905.367    -4642821.648 7  -3617778.233 6
  20876558.360    -4161441.725 8  -3242677.515 9
  21594576.292     4278995.541 8   3334283.023 9
 92  4 11  4 42  0.0000000  0  5  3 12 16 20 24
  23548000.851    -2220507.419 5  -1730261.178 3
  23754809.385     7675160.626 5   5980642.511 2
  21922025.196    -4689496.365 7  -3654148.095 6
  20869146.276    -4200393.053 8  -3273029.161 9
  21608240.232     4350832.285 7   3390259.712 9
 92  4 11  4 42 30.0000000  0  5  3 12 16 20 24
  23537411.606    -2276133.322 5  -1773605.943 3
  23776421.724     7788729.711 5   6069137.859 2
  21913237.371    -4735672.224 7  -3690129.228 6
  20861827.445    -4238832.192 8  -3302981.715 9
  21621971.319     4422972.446 8   3446472.817 9
 92  4 11  4 43  0.0000000  0  5  3 12 16 20 24
  23526834.610    -2331676.681 5  -1816886.345 3
  23798055.038     7902438.735 5   6157742.266 3
  21904545.208    -4781344.219 7  -3725717.756 6
  20854612.652    -4276765.209 8  -3332539.874 9
  21635752.768     4495399.498 7   3502909.481 9
 92  4 11  4 43 30.0000000  0  5  3 12 16 20 24
  23516272.307    -2387136.150 5  -1860101.397 3
  23819716.866     8016286.369 5   6246454.669 3
  21895952.546    -4826507.690 7  -3760910.026 6
  20847491.986    -4314188.238 8  -3361700.645 9
  21649588.208     4568093.820 8   3559554.406 9
 92  4 11  4 44  0.0000000  0  5  3 12 16 20 24
  23505758.586    -2442513.855 5  -1903252.747 3
  23841410.418     8130267.568 5   6335271.173 3
  21887452.545    -4871151.572 7  -3795697.417 6
  20840467.262    -4351100.734 8  -3390463.598 9
  21663465.599     4641036.802 7   3616393.093 9
 92  4 11  4 44 30.0000000  0  5  3 12 16 20 24
  23495235.581    -2497809.686 5  -1946340.303 4
  23863119.606     8244379.412 5   6424189.460 4
  21879058.642    -4915272.173 7  -3830077.052 6
  20833537.850    -4387500.439 8  -3418826.978 9
  21677392.164     4714218.684 7   3673417.940 9
 92  4 11  4 45  0.0000000  0  5  3 12 16 20 24
  23484722.174    -2553018.135 5  -1989359.760 3
  23884862.053     8358624.476 5   6513211.537 3
  21870763.087    -4958870.151 7  -3864049.457 6
  20826712.476    -4423379.521 8  -3446784.675 9
  21691365.181     4787636.138 7   3730626.340 9
 92  4 11  4 45 30.0000000  0  5  3 12 16 20 24
  23474234.523    -2608145.198 5  -2032315.798 3
  23906629.699     8472993.924 5   6602330.526 2
  21862560.473    -5001962.536 7  -3897627.900 6
  20819983.324    -4458741.662 8  -3474339.563 9
  21705376.869     4861285.493 7   3788015.456 9
 92  4 11  4 46  0.0000000  0  5  3 12 16 20 24
  23463760.693    -2663190.080 5  -2075207.792 4
  23928414.691     8587485.543 5   6691544.753 2
  21854456.487    -5044555.387 7  -3930817.080 6
  20813353.427    -4493583.915 8  -3501489.345 9
  21719441.046     4935174.918 7   3845591.626 9
 92  4 11  4 46 30.0000000  0  5  3 12 16 20 24
  23453298.206    -2718156.065 5  -2118038.335 4
  23950229.103     8702093.252 5   6780849.403 2
  21846446.034    -5086658.143 7  -3963624.377 7
  20806822.125    -4527907.332 8  -3528234.835 9
  21733548.675     5009311.395 7   3903360.307 9
 92  4 11  4 47  0.0000000  0  5  3 12 16 20 24
  23442858.543    -2773039.640 5  -2160804.614 3
  23972068.400     8816817.812 5   6870245.108 4
  21838525.799    -5128271.984 7  -3996050.683 6
  20800391.894    -4561705.342 8  -3554570.924 9
  21747701.569     5083715.161 7   3961337.276 8
 92  4 11  4 47 30.0000000  0  5  3 12 16 20 24
  23432423.069    -2827846.513 5  -2203511.153 3
  23993905.253     8931650.262 4   6959724.912 3
  21830699.132    -5169411.001 7  -4028107.019 6
  20794058.757    -4594981.898 8  -3580500.683 9
  21761916.831     5158386.283 7   4019522.564 9
 92  4 11  4 48  0.0000000  0  5  3 12 16 20 24
  23422011.885    -2882576.896 5  -2246158.108 4
  24015777.217     9046587.848 4   7049286.605 3
  21822960.275    -5210072.628 7  -4059791.343 6
  20787825.190    -4627734.856 8  -3606022.439 9
  21776169.575     5233321.605 7   4077913.726 9
 92  4 11  4 48 30.0000000  0  5  3 12 16 20 24
  23411606.076    -2937232.753 5  -2288746.964 2
  24037688.443     9161625.397 4   7138926.218 3
  21815315.858    -5250259.482 7  -4091105.730 6
  20781693.846    -4659964.318 8  -3631136.281 9
  21790481.371     5308516.977 7   4136507.525 8
 92  4 11  4 49  0.0000000  0  5  3 12 16 20 24
  23401230.874    -2991812.441 5  -2331276.487 3
  24059584.383     9276761.765 4   7228642.760 2
  21807756.005    -5289968.606 7  -4122047.859 6
  20775662.004    -4691665.874 8  -3655838.764 9
  21804843.808     5383958.933 7   4195293.461 9
 92  4 11  4 49 30.0000000  0  5  3 12 16 20 24
  23390848.762    -3046318.946 5  -2373748.978 2
  24081510.023     9391990.827 4   7318431.621 2
  21800295.060    -5329196.055 7  -4152614.653 6
  20769727.325    -4722841.064 8  -3680131.100 9
  21819234.444     5459620.041 7   4254250.179 8
 92  4 11  4 50  0.0000000  0  5  3 12 16 20 24
  23380488.219    -3100748.210 5  -2416161.281 2
  24103454.823     9507313.881 5   7408293.686 3
  21792927.368    -5367918.799 7  -4182788.175 6
  20763894.554    -4753483.469 8  -3704008.272 9
  21833676.070     5535492.780 7   4313371.796 8
 92  4 11  4 50 30.0000000  0  5  3 12 16 20 24
  23370146.592    -3155101.553 5  -2458514.427 3
  24125415.818     9622726.777 5   7498225.789 3
  21785653.803    -5406120.609 7  -4212555.770 7
  20758167.602    -4783592.286 8  -3727469.660 9
  21848153.049     5611570.521 7   4372653.161 8
 92  4 11  4 51  0.0000000  0  5  3 12 16 20 24
  23359815.121    -3209380.584 5  -2500809.687 4
  24147390.598     9738224.873 5   7588224.243 3
  21778486.964    -5443784.763 7  -4241904.418 6
  20752539.000    -4813166.979 8  -3750514.850 9
  21862665.383     5687846.031 7   4432088.618 9
 92  4 11  4 51 30.0000000  0  6  3 12 16 20 24 25
  23349501.972    -3263577.888 5  -2543041.241 3
  24169395.392     9853812.783 5   7678292.672 2
  21771428.037    -5480894.700 7  -4270821.211 7
  20747013.842    -4842197.593 8  -3773136.081 9
  21877225.706     5764344.654 7   4491697.935 8
  24682187.665     -401144.555 5   -312579.809 3
 92  4 11  4 52  0.0000000  0  6  3 12 16 20 24 25
  23339208.019    -3317697.427 5  -2585212.209 3
  24191401.024     9969483.366 5   7768425.541 3
  21764469.867    -5517448.313 7  -4299304.499 7
  20741595.689    -4870686.239 8  -3795335.003 9
  21891832.201     5841083.298 8   4551494.284 9
  24677392.485     -426342.415 5   -332214.369 2
 92  4 11  4 52 30.0000000  0  6  3 12 16 20 24 25
  23328922.407    -3371742.572 5  -2627325.215 2
  24213427.701    10085230.814 5   7858618.311 1
  21757622.297    -5553449.574 7  -4327357.388 7
  20736273.163    -4898633.985 8  -3817112.444 9
  21906481.868     5918075.220 8   4611487.984 8
  24672695.340     -451018.690 5   -351442.538 4
 92  4 11  4 53  0.0000000  0  6  3 12 16 20 24 25
  23318648.242    -3425711.778 5  -2669379.038 4
  24235460.346    10201053.442 5   7948869.646 2
  21750873.076    -5588909.513 7  -4354988.459 7
  20731059.492    -4926037.621 8  -3838465.902 9
  21921183.083     5995331.654 7   4671687.808 8
  24668098.324     -475168.780 5   -370260.666 3
 92  4 11  4 53 30.0000000  0  6  3 12 16 20 24 25
  23308399.834    -3479607.087 5  -2711375.292 2
  24257533.161    10316946.078 5   8039175.534 3
  21744222.205    -5623849.419 7  -4382214.322 7
  20725949.230    -4952897.322 8  -3859395.521 9
  21935928.657     6072850.086 7   4732091.779 8
  24663608.628     -498781.035 5   -388659.722 4
 92  4 11  4 54  0.0000000  0  6  3 12 16 20 24 25
  23298161.617    -3533428.512 5  -2753313.977 4
  24279588.596    10432906.282 4   8129534.086 2
  21737676.524    -5658264.032 7  -4409030.859 7
  20720941.786    -4979210.720 8  -3879899.442 9
  21950719.217     6150612.793 7   4792686.096 8
  24659212.499     -521846.141 5   -406632.477 3
 92  4 11  4 54 30.0000000  0  6  3 12 16 20 24 25
  23287929.717    -3587183.707 5  -2795201.032 3
  24301662.912    10548923.184 4   8219936.787 2
  21731224.969    -5692169.742 7  -4435450.854 7
  20716037.193    -5004983.679 8  -3899982.246 9
  21965569.457     6228591.752 7   4853448.915 8
  24654927.563     -544363.087 5   -424178.047 2
 92  4 11  4 55  0.0000000  0  6  3 12 16 20 24 25
  23277702.598    -3640871.674 5  -2837035.719 3
  24323765.707    10664994.883 4   8310382.178 2
  21724860.386    -5725573.920 7  -4461480.039 7
  20711234.823    -5030213.297 8  -3919641.667 9
  21980442.173     6306766.598 7   4914364.377 9
  24650747.259     -566345.857 5   -441307.368 2
 92  4 11  4 55 30.0000000  0  6  3 12 16 20 24 25
  23267508.146    -3694488.010 5  -2878814.596 2
  24345859.218    10781122.941 4   8400871.508 3
  21718605.530    -5758465.748 7  -4487109.992 6
  20706540.959    -5054893.115 8  -3938872.676 9
  21995359.841     6385123.890 7   4975422.008 8
  24646667.677     -587781.618 5   -458010.481 3
 92  4 11  4 56  0.0000000  0  6  3 12 16 20 24 25
  23257315.508    -3748030.650 5  -2920536.044 4
  24367958.104    10897306.364 4   8491403.975 3
  21712449.267    -5790821.664 7  -4512322.354 7
  20701944.851    -5079019.413 8  -3957672.366 9
  22010295.482     6463653.621 7   5036614.001 8
  24642700.510     -608661.519 5   -474280.440 2
 92  4 11  4 56 30.0000000  0  6  3 12 16 20 24 25
  23247146.219    -3801502.873 5  -2962202.639 2
  24390090.599    11013539.062 4   8581974.824 3
  21706394.077    -5822641.843 7  -4537117.259 7
  20697465.031    -5102593.509 8  -3976041.774 9
  22025270.421     6542349.132 7   5097935.173 8
  24638828.097     -628994.198 5   -490124.019 3
 92  4 11  4 57  0.0000000  0  6  3 12 16 20 24 25
  23236987.470    -3854904.804 6  -3003814.448 3
  24412196.989    11129817.952 4   8672581.682 3
  21700440.795    -5853913.026 7  -4561484.380 7
  20693082.967    -5125613.553 8  -3993979.453 9
  22040285.217     6621213.982 7   5159388.290 8
  24635066.284     -648778.363 5   -505540.183 3
 92  4 11  4 57 30.0000000  0  6  3 12 16 20 24 25
  23226832.002    -3908240.874 5  -3045374.953 4
  24434334.265    11246135.817 4   8763218.870 2
  21694597.241    -5884621.871 7  -4585413.309 6
  20688806.442    -5148081.962 8  -4011487.285 9
  22055322.802     6700253.915 7   5220977.845 7
  24631406.415     -668009.824 5   -520525.603 4
 92  4 11  4 58  0.0000000  0  6  3 12 16 20 24 25
  23216679.535    -3961514.076 5  -3086886.475 3
  24456484.141    11362486.652 4   8853881.826 2
  21688861.599    -5914767.053 7  -4608903.028 7
  20684635.735    -5170000.110 8  -4028566.346 9
  22070399.686     6779481.600 7   5282713.698 8
  24627846.989     -686706.035 5   -535093.971 1
 92  4 11  4 58 30.0000000  0  6  3 12 16 20 24 25
  23206571.427    -4014722.078 5  -3128347.180 4
  24478635.482    11478869.847 4   8944569.953 2
  21683229.715    -5944369.538 7  -4631969.858 7
  20680568.439    -5191363.801 8  -4045213.365 9
  22085512.202     6858919.408 7   5344613.275 8
  24624387.693     -704869.374 5   -549247.208 1
 92  4 11  4 59  0.0000000  0  6  3 12 16 20 24 25
  23196444.123    -4067859.923 5  -3169753.241 4
  24500776.074    11595287.339 4   9035284.814 3
  21677697.647    -5973442.873 7  -4654624.366 7
  20676612.369    -5212166.364 8  -4061423.138 9
  22100676.616     6938584.331 7   5406689.830 8
  24621033.028     -722489.701 5   -562977.203 2
 92  4 11  4 59 30.0000000  0  6  3 12 16 20 24 25
  23186361.806    -4120927.960 5  -3211104.886 4
  24522934.919    11711736.024 4   9126023.954 1
  21672262.114    -6001990.855 7  -4676869.511 7
  20672761.560    -5232406.377 8  -4077194.567 9
  22115887.203     7018477.670 7   5468944.370 8
  24617783.553     -739572.395 5   -576288.269 3
 92  4 11  5  0  0.0000000  0  6  3 12 16 20 24 25
  23176276.208    -4173927.018 5  -3252402.766 3
  24545111.179    11828212.019 4   9216784.395 2
  21666929.711    -6030022.526 7  -4698712.334 7
  20669014.754    -5252083.100 8  -4092527.067 9
  22131123.547     7098590.709 7   5531370.101 8
  24614633.649     -756116.319 4   -589179.575 2
 92  4 11  5  0 30.0000000  0  6  3 12 16 20 24 25
  23166189.983    -4226864.521 5  -3293652.720 5
  24567275.434    11944704.925 4   9307558.018 2
  21661693.529    -6057537.193 7  -4720152.295 7
  20665379.141    -5271202.663 8  -4107425.407 9
  22146405.470     7178900.654 7   5593949.266 7
  24611596.160     -772114.889 5   -601645.935 2
 92  4 11  5  1  0.0000000  0  6  3 12 16 20 24 25
  23156133.143    -4279743.641 6  -3334857.164 4
  24589428.590    12061208.963 4   9398340.307 2
  21656558.663    -6084506.544 7  -4741167.336 8
  20661845.507    -5289765.898 8  -4121890.255 9
  22161720.968     7259385.618 7   5656664.820 8
  24608647.073     -787582.348 4   -613698.404 2
 92  4 11  5  1 30.0000000  0  6  3 12 16 20 24 25
  23146088.309    -4332551.598 6  -3376006.154 3
  24611609.945    12177733.893 4   9489138.850 3
  21651534.745    -6110897.593 7  -4761731.751 7
  20658421.564    -5307758.331 8  -4135910.319 9
  22177064.037     7340038.725 7   5719511.392 7
  24605809.249     -802507.946 5   -625328.651 2
 92  4 11  5  2  0.0000000  0  6  3 12 16 20 24 25
  23136050.350    -4385296.334 6  -3417105.875 4
  24633798.770    12294268.887 4   9579945.266 3
  21646628.058    -6136716.177 7  -4781850.086 7
  20655101.975    -5325186.400 8  -4149490.618 9
  22192452.372     7420838.489 7   5782472.225 8
  24603067.052     -816900.536 5   -636543.604 2
 92  4 11  5  2 30.0000000  0  6  3 12 16 20 24 25
  23126029.772    -4437972.841 6  -3458152.443 4
  24655972.343    12410815.865 4   9670760.986 2
  21641823.874    -6161951.373 7  -4801513.847 7
  20651899.301    -5342043.655 8  -4162626.132 9
  22207846.745     7501790.048 7   5845551.354 7
  24600427.671     -830766.516 5   -647348.219 2
 92  4 11  5  3  0.0000000  0  6  3 12 16 20 24 25
  23116017.919    -4490576.834 6  -3499142.509 4
  24678143.193    12527376.189 4   9761587.153 1
  21637133.325    -6186612.968 7  -4820730.636 7
  20648800.631    -5358324.461 8  -4175312.455 9
  22223280.345     7582902.809 7   5908756.102 7
  24597895.645     -844103.350 5   -657740.501 3
 92  4 11  5  3 30.0000000  0  6  3 12 16 20 24 25
  23106016.536    -4543120.383 6  -3540085.460 3
  24700334.112    12643934.921 4   9852412.014 1
  21632541.405    -6210718.034 7  -4839513.767 7
  20645808.408    -5374038.743 8  -4187557.341 9
  22238748.428     7664176.572 7   5972086.295 6
  24595460.432     -856901.723 4   -667713.160 1
 92  4 11  5  4  0.0000000  0  6  3 12 16 20 24 25
  23096029.253    -4595600.577 6  -3580979.058 4
  24722514.874    12760491.956 4   9943235.621 2
  21628060.992    -6234273.498 7  -4857868.639 7
  20642925.597    -5389182.275 8  -4199357.484 9
  22254248.619     7745632.997 7   6035558.820 8
  24593121.719     -869147.907 4   -677255.563 2
 92  4 11  5  4 30.0000000  0  6  3 12 16 20 24 25
  23086058.757    -4648014.040 6  -3621820.655 4
  24744699.196    12877047.791 4  10034058.302 2
  21623686.746    -6257278.411 7  -4875794.519 7
  20640155.514    -5403750.397 8  -4210709.260 9
  22269792.854     7827297.062 7   6099193.144 6
  24590894.268     -880820.620 3   -686351.166 2
 92  4 11  5  5  0.0000000  0  6  3 12 16 20 24 25
  23076093.950    -4700363.867 6  -3662612.659 3
  24766870.640    12993596.660 4  10124875.464 4
  21619408.999    -6279735.016 7  -4893293.136 7
  20637490.063    -5417744.357 8  -4221613.638 9
  22285372.164     7909161.554 7   6162983.650 6
  24588789.144     -891901.553 4   -694985.604 3
 92  4 11  5  5 30.0000000  0  6  3 12 16 20 24 25
  23066134.552    -4752648.786 6  -3703354.083 5
  24789052.903    13110136.695 4  10215685.742 1
  21615244.574    -6301624.264 7  -4910349.665 7
  20634939.714    -5431161.683 8  -4232068.688 9
  22300982.640     7991218.637 7   6226924.229 7
  24586798.807     -902401.499 4   -703167.291 2
 92  4 11  5  6  0.0000000  0  6  3 12 16 20 24 25
  23056200.318    -4804869.644 6  -3744045.599 3
  24811227.628    13226664.304 4  10306486.341 2
  21611186.282    -6322950.311 7  -4926967.333 7
  20632496.125    -5444001.866 8  -4242074.012 9
  22316635.730     8073462.544 7   6291010.375 7
  24584911.008     -912338.704 4   -710910.529 3
 92  4 11  5  6 30.0000000  0  7  3 12 16 20 17 24 25
  23046281.405    -4857028.636 6  -3784688.914 4
  24833410.205    13343174.260 4  10397273.195 3
  21607239.531    -6343703.776 7  -4943138.838 8
  20630159.855    -5456265.540 8  -4251630.118 9
  24169952.403     -210669.511 4   -164157.699 2
  22332315.762     8155866.442 7   6355221.203 7
  24583117.649     -921730.700 3   -718228.931 2
 92  4 11  5  7  0.0000000  0  7  3 12 16 20 17 24 25
  23036372.368    -4909125.734 6  -3825283.989 4
  24855569.643    13459663.450 4  10488043.877 3
  21603399.785    -6363870.655 7  -4958853.264 7
  20627935.685    -5467951.798 8  -4260736.282 9
  24153070.783     -299399.561 4   -233297.852 2
  22348020.993     8238409.402 7   6419540.379 7
  24581439.426     -930594.173 5   -725135.474 2
 92  4 11  5  7 30.0000000  0  7  3 12 16 20 17 24 25
  23026466.019    -4961157.520 6  -3865828.168 3
  24877730.617    13576132.771 4  10578799.098 3
  21599673.361    -6383452.809 7  -4974112.051 7
  20625823.650    -5479055.729 8  -4269388.687 9
  24136205.951     -387972.845 4   -302315.843 3
  22363763.393     8321101.562 7   6483975.825 8
  24579840.323     -938945.801 3   -731643.203 1
 92  4 11  5  8  0.0000000  0  6  3 12 16 20 17 24
  23016574.643    -5013124.502 6  -3906321.859 5
  24899880.458    13692578.482 4  10669535.866 1
  21596055.757    -6402468.713 7  -4988929.607 7
  20623822.215    -5489576.377 8  -4277586.591 9
  24119397.203     -476383.201 4   -371206.907 2
  22379531.270     8403945.963 7   6548529.893 7
 92  4 11  5  8 30.0000000  0  6  3 12 16 20 17 24
  23006693.492    -5065032.745 6  -3946769.762 3
  24922045.026    13808991.783 4  10760247.394 2
  21592543.377    -6420918.461 7  -5003306.002 7
  20621931.135    -5499518.711 8  -4285333.854 9
  24102602.520     -564613.358 4   -439957.542 2
  22395318.936     8486933.645 7   6613195.602 7
 92  4 11  5  9  0.0000000  0  6  3 12 16 20 17 24
  22996825.533    -5116876.948 6  -3987167.780 3
  24944184.118    13925374.971 4  10850935.396 2
  21589139.258    -6438803.271 7  -5017242.197 6
  20620148.560    -5508875.793 8  -4292625.082 9
  24085852.510     -652632.833 4   -508544.011 1
  22411145.899     8570092.479 7   6677994.691 8
 92  4 11  5  9 30.0000000  0  6  3 12 16 20 17 24
  22986979.736    -5168660.264 6  -4027518.348 5
  24966325.582    14041721.981 4  10941595.260 2
  21585839.143    -6456140.929 7  -5030752.028 7
  20618479.621    -5517649.788 8  -4299461.953 9
  24069148.673     -740425.358 4   -576953.603 2
  22426995.304     8653425.691 7   6742929.653 6
 92  4 11  5 10  0.0000000  0  6  3 12 16 20 17 24
  22977127.064    -5220382.262 6  -4067821.130 3
  24988446.351    14158030.303 4  11032225.014 2
  21582646.346    -6472925.281 7  -5043830.713 8
  20616923.097    -5525839.004 8  -4305843.151 9
  24052477.817     -827973.669 4   -645172.934 1
  22442892.103     8736928.465 7   6807996.755 7
 92  4 11  5 10 30.0000000  0  6  3 12 16 20 17 24
  22967303.150    -5272048.106 6  -4108080.181 4
  25010588.443    14274291.952 4  11122818.390 2
  21579559.089    -6489151.740 7  -5056474.684 7
  20615472.705    -5533447.562 8  -4311771.891 9
  24035867.199     -915282.124 4   -713205.354 3
  22458808.691     8820591.426 7   6873188.662 6
 92  4 11  5 11  0.0000000  0  6  3 12 16 20 17 24
  22957479.864    -5323651.690 6  -4148290.697 5
  25032684.921    14390510.095 3  11213377.787 1
  21576576.148    -6504825.433 7  -5068687.921 7
  20614138.042    -5540468.535 8  -4317242.775 9
  24019294.099    -1002357.141 4   -781055.875 1
  22474763.635     8904415.632 7   6938506.221 7
 92  4 11  5 11 30.0000000  0  6  3 12 16 20 17 24
  22947679.962    -5375196.353 6  -4188455.313 5
  25054807.504    14506678.743 3  11303898.629 1
  21573699.934    -6519951.845 7  -5080474.706 7
  20612912.793    -5546903.757 8  -4322257.223 9
  24002774.920    -1089226.170 4   -848745.884 4
  22490737.773     8988377.119 7   7003930.759 6
 92  4 11  5 12  0.0000000  0  5  3 16 20 17 24
  22937878.837    -5426682.856 6  -4228574.606 5
  21570927.443    -6534510.418 7  -5091819.016 8
  20611800.237    -5552752.748 8  -4326814.874 9
  23986280.660    -1175910.500 4   -916291.979 4
  22506736.517     9072467.193 7   7069455.474 6
 92  4 11  5 12 30.0000000  0  5  3 16 20 17 24
  22928097.816    -5478102.733 6  -4268641.967 3
  21568272.183    -6548478.674 7  -5102703.352 8
  20610799.536    -5558006.154 8  -4330908.425 9
  23969809.155    -1262418.770 4   -983700.878 2
  22522772.709     9156688.732 7   7135082.658 6
 92  4 11  5 13  0.0000000  0  5  3 16 20 17 24
  22918315.573    -5529464.586 6  -4308664.114 4
  21565724.870    -6561855.034 7  -5113126.464 7
  20609913.659    -5562671.593 8  -4334543.829 9
  23953380.508    -1348772.853 4  -1050989.649 1
  22538817.905     9241031.641 7   7200804.393 7
 92  4 11  5 13 30.0000000  0  5  3 16 20 17 24
  22908554.654    -5580772.281 6  -4348644.084 3
  21563287.842    -6574632.645 7  -5123083.027 8
  20609135.100    -5566751.936 8  -4337723.313 9
  23936983.969    -1434978.801 4  -1118163.001 2
  22554887.391     9325491.950 7   7266617.606 7
 92  4 11  5 14  0.0000000  0  5  3 16 20 17 24
  22898807.172    -5632014.713 6  -4388573.187 4
  21560977.050    -6586789.318 7  -5132555.735 7
  20608471.363    -5570235.138 8  -4340437.489 9
  23920616.503    -1521006.419 4  -1185197.378 4
  22570985.043     9410085.724 7   7332534.829 6
 92  4 11  5 14 30.0000000  0  5  3 16 20 17 24
  22889065.134    -5683195.620 6  -4428454.352 3
  21558778.671    -6598349.750 7  -5141563.836 8
  20607924.229    -5573124.563 8  -4342688.987 9
  23904275.700    -1606832.473 4  -1252074.706 3
  22587115.082     9494814.566 7   7398557.298 6
 92  4 11  5 15  0.0000000  0  5  3 16 20 17 24
  22879338.662    -5734314.345 6  -4468287.068 4
  21556692.707    -6609330.216 7  -5150120.018 7
  20607487.729    -5575417.884 8  -4344475.982 9
  23887993.390    -1692436.016 4  -1318778.663 3
  22603256.777     9579680.952 7   7464686.956 7
 92  4 11  5 15 30.0000000  0  5  3 16 20 17 24
  22869621.508    -5785373.533 6  -4508073.400 4
  21554706.872    -6619742.049 7  -5158233.112 8
  20607164.865    -5577117.217 8  -4345800.134 9
  23871742.526    -1777797.514 4  -1385294.005 3
  22619428.208     9664680.652 6   7530920.467 6
 92  4 11  5 16  0.0000000  0  5  3 16 20 17 24
  22859916.604    -5836374.337 6  -4547814.230 4
  21552835.267    -6629582.307 7  -5165900.827 7
  20606954.416    -5578222.729 8  -4346661.572 9
  23855554.936    -1862901.202 4  -1451608.444 2
  22635633.179     9749817.736 6   7597261.043 6
 92  4 11  5 16 30.0000000  0  5  3 16 20 17 24
  22850223.427    -5887318.124 6  -4587510.633 5
  21551072.201    -6638856.081 7  -5173127.125 7
  20606855.787    -5578734.980 8  -4347060.718 9
  23839395.232    -1947757.465 4  -1517730.125 3
  22651864.254     9835092.390 6   7663708.801 6
 92  4 11  5 17  0.0000000  0  5  3 16 20 17 24
  22840534.438    -5938205.464 6  -4627163.037 4
  21549421.550    -6647548.038 7  -5179900.057 8
  20606871.074    -5578653.960 8  -4346997.588 9
  23823292.485    -2032389.244 4  -1583676.854 4
  22668118.678     9920504.086 6   7730263.345 6
 92  4 11  5 17 30.0000000  0  5  3 16 20 17 24
  22830865.831    -5989038.353 6  -4666773.018 4
  21547871.029    -6655654.260 7  -5186216.569 8
  20606998.774    -5577980.791 8  -4346473.050 9
  23807235.877    -2116812.109 5  -1649460.811 1
  22684386.016    10006052.125 6   7796924.131 6
 92  4 11  5 18  0.0000000  0  5  3 16 20 17 24
  22821199.597    -6039810.794 6  -4706335.888 4
  21546445.206    -6663170.569 7  -5192073.412 7
  20607240.704    -5576709.107 8  -4345482.137 9
  23791204.501    -2201030.253 5  -1715085.230 3
  22700704.028    10091739.003 6   7863693.116 6
 92  4 11  5 18 30.0000000  0  6  3 16 20 17 24 25
  22811558.875    -6090522.865 6  -4745851.729 5
  21545119.513    -6670113.968 7  -5197483.835 8
  20607597.456    -5574837.863 8  -4344024.019 9
  23775220.765    -2285054.105 5  -1780558.280 2
  22717035.827    10177562.200 7   7930568.318 6
  24570819.259         617.47414       483.630 2
 92  4 11  5 19  0.0000000  0  6  3 16 20 17 24 25
  22801913.965    -6141177.730 6  -4785322.988 4
  21543907.177    -6676495.104 7  -5202456.131 8
  20608066.344    -5572369.590 8  -4342100.694 9
  23759258.004    -2368882.397 5  -1845878.950 3
  22733390.101    10263508.649 7   7997539.559 6
  24571591.256        4643.612 3      3620.886 2
 92  4 11  5 19 30.0000000  0  6  3 16 20 17 24 25
  22792276.524    -6191775.382 6  -4824749.687 4
  21542801.217    -6682320.567 7  -5206995.445 7
  20608650.019    -5569303.855 8  -4339711.802 9
  23743348.012    -2452496.237 5  -1911032.480 2
  22749764.757    10349563.366 6   8064595.178 6
  24572460.626        9201.664 4      7172.611 2
 92  4 11  5 20  0.0000000  0  6  3 16 20 17 24 25
  22782669.097    -6242315.507 6  -4864131.534 6
  21541796.922    -6687574.202 7  -5211089.165 7
  20609347.050    -5565639.792 8  -4336856.690 9
  23727477.004    -2535886.554 5  -1976011.876 3
  22766157.108    10435722.354 6   8131732.032 7
  24573416.689       14279.982 3     11129.766 1
 92  4 11  5 20 30.0000000  0  6  3 16 20 17 24 25
  22773064.637    -6292794.374 6  -4903465.665 4
  21540914.046    -6692234.387 7  -5214720.462 8
  20610160.370    -5561373.076 8  -4333531.982 9
  23711647.074    -2619047.184 5  -2040812.273 2
  22782578.251    10521992.506 6   8198955.502 7
  24574483.351       19890.025 4     15501.317 2
 92  4 11  5 21  0.0000000  0  6  3 16 20 17 24 25
  22763471.589    -6343211.581 6  -4942751.721 5
  21540145.678    -6696274.500 7  -5217868.579 7
  20611088.233    -5556502.933 8  -4329737.063 9
  23695876.789    -2701969.377 5  -2105426.851 3
  22799015.554    10608363.080 7   8266257.235 6
  24575673.805       26044.715 4     20297.149 3
 92  4 11  5 21 30.0000000  0  6  3 16 20 17 24 25
  22753889.011    -6393570.273 6  -4981992.216 4
  21539496.600    -6699682.984 7  -5220524.512 8
  20612127.323    -5551032.040 8  -4325474.037 9
  23680135.575    -2784656.516 5  -2169858.313 3
  22815469.364    10694829.562 7   8333633.698 6
  24576943.727       32748.504 4     25520.925 3
 92  4 11  5 22  0.0000000  0  6  3 16 20 17 24 25
  22744308.249    -6443872.664 6  -5021188.822 6
  21538968.381    -6702466.036 7  -5222693.103 7
  20613283.610    -5544961.895 8  -4320744.048 9
  23664451.355    -2867125.821 5  -2234120.055 3
  22831932.493    10781396.260 6   8401088.240 6
  24578318.280       39990.751 4     31164.212 2
 92  4 11  5 22 30.0000000  0  6  3 16 20 17 24 25
  22734752.056    -6494111.068 6  -5060335.575 4
  21538551.984    -6704640.319 7  -5224387.325 8
  20614553.532    -5538284.576 8  -4315540.951 9
  23648788.074    -2949377.875 5  -2298212.457 4
  22848429.754    10868060.147 6   8468618.519 6
  24579797.466       47775.657 4     37230.424 1
 92  4 11  5 23  0.0000000  0  5  3 16 17 24 25
  22725206.682    -6544286.983 6  -5099433.627 3
  21538249.188    -6706229.379 7  -5225625.539 8
  23633182.100    -3031416.453 5  -2362138.526 3
  22864938.742    10954807.535 6   8536213.863 6
  24581372.871       56085.570 4     43705.696 3
 92  4 11  5 23 30.0000000  0  6  3 16 20 17 24 25
  22715666.054    -6594405.063 6  -5138486.627 4
  21538049.523    -6707253.825 7  -5226423.775 8
  20617439.030        4538.33118      3541.975 9
  23617610.259    -3113258.054 5  -2425911.134 3
  22881462.388    11041641.845 6   8603876.936 6
  24583062.192       64895.995 4     50570.960 1
 92  4 11  5 24  0.0000000  0  6  3 16 20 17 24 25
  22706144.064    -6644463.178 6  -5177492.892 4
  21537966.774    -6707714.946 7  -5226783.070 8
  20619054.327       13027.886 8     10157.209 9
  23602069.339    -3194891.095 5  -2489521.217 3
  22898008.545    11128575.519 6   8671617.427 6
  24584829.166       74209.879 5     57828.540 1
 92  4 11  5 24 30.0000000  0  6  3 16 20 17 24 25
  22696618.444    -6694467.639 6  -5216457.366 5
  21537989.843    -6707607.260 7  -5226699.141 7
  20620784.725       22115.347 8     17238.352 9
  23586579.060    -3276308.382 5  -2552963.166 2
  22914565.172    11215611.990 6   8739438.033 5
  24586697.770       84030.057 5     65480.645 2
 92  4 11  5 25  0.0000000  0  6  3 16 20 17 24 25
  22687118.336    -6744414.814 6  -5255377.163 5
  21538122.674    -6706903.900 7  -5226151.056 8
  20622629.667       31805.092 8     24788.796 9
  23571140.643    -3357490.223 5  -2616221.676 3
  22931153.000    11302773.229 6   8807355.853 6
  24588655.440       94369.119 4     73537.094 3
 92  4 11  5 25 30.0000000  0  5  3 16 17 24 25
  22677626.604    -6794302.818 6  -5294250.891 5
  21538370.013    -6705594.181 7  -5225130.477 8
  23555734.613    -3438425.766 5  -2679288.263 3
  22947761.489    11390061.363 6   8875372.584 6
  24590731.807      105248.326 4     82014.403 2
 92  4 11  5 26  0.0000000  0  6  3 16 20 17 24 25
  22668149.565    -6844130.443 6  -5333077.581 4
  21538739.051    -6703670.979 7  -5223631.859 8
  20626656.479       10542.29218      8219.975 9
  23540383.448    -3519103.194 5  -2742153.696 2
  22964393.989    11477470.808 6   8943483.829 6
  24592911.898      116676.768 4     90919.756 1
 92  4 11  5 26 30.0000000  0  6  3 16 20 17 24 25
  22658676.715    -6893897.830 6  -5371857.329 5
  21539218.722    -6701137.177 7  -5221657.449 8
  20628846.761       22047.223 8     17184.853 9
  23525074.825    -3599528.562 5  -2804822.731 3
  22981057.342    11564989.779 6   9011680.427 6
  24595178.925      128647.257 3    100247.413 2
 92  4 11  5 27  0.0000000  0  5  3 16 17 24 25
  22649216.184    -6943601.049 6  -5410587.058 4
  21539817.090    -6697999.733 7  -5219212.669 8
  23509821.974    -3679702.095 5  -2867295.535 2
  22997729.699    11652599.933 6   9079948.075 6
  24597567.651      141159.181 4    109996.911 2
 92  4 11  5 27 30.0000000  0  6  3 16 20 17 24 25
  22639767.624    -6993248.948 6  -5449273.692 4
  21540524.906    -6694280.389 7  -5216314.462 8
  20633575.979        9798.50218      7640.617 9
  23494607.827    -3759640.015 5  -2929584.766 3
  23014410.467    11740287.585 6   9148276.097 6
  24600045.756      154186.615 4    120148.159 3
 92  4 11  5 28  0.0000000  0  6  3 16 20 17 24 25
  22630335.258    -7042838.219 6  -5487914.642 6
  21541341.855    -6689973.691 7  -5212958.576 8
  20636109.227       23118.526 8     18019.855 9
  23479441.319    -3839344.345 5  -2991691.970 2
  23031113.990    11828060.032 6   9216670.196 6
  24602628.458      167707.280 4    130683.780 2
 92  4 11  5 28 30.0000000  0  6  3 16 20 17 24 25
  22620906.765    -7092371.924 6  -5526512.294 5
  21542270.591    -6685088.158 7  -5209151.656 9
  20638758.485       37039.894 8     28867.672 9
  23464316.797    -3918825.993 5  -3053625.646 4
  23047834.928    11915910.162 6   9285124.829 6
  24605287.906      181713.513 4    141597.713 7
 92  4 11  5 29  0.0000000  0  6  3 16 20 17 24 25
  22611499.876    -7141844.535 6  -5565062.345 5
  21543312.090    -6679617.203 7  -5204888.558 7
  20641523.786       51567.734 8     40188.051 9
  23449233.631    -3998085.689 5  -3115386.357 4
  23064559.426    12003850.918 6   9353650.079 5
  24608043.295      196212.007 4    152895.306 2
 92  4 11  5 29 30.0000000  0  6  3 16 20 17 24 25
  22602092.708    -7191258.235 6  -5603566.464 6
  21544467.783    -6673548.477 7  -5200159.677 8
  20644401.466       66700.181 8     51979.566 9
  23434190.043    -4077131.984 5  -3176980.830 3
  23081313.938    12091886.373 6   9422249.115 5
  24610896.127      211203.566 3    164577.058 3
 92  4 11  5 30  0.0000000  0  6  3 16 20 17 24 25
  22592697.197    -7240613.403 6  -5642024.992 6
  21545737.111    -6666876.312 7  -5194960.581 8
  20647398.820       82436.739 8     64241.811 9
  23419181.843    -4155965.296 5  -3238409.287 2
  23098080.422    12180005.009 6   9490912.979 5
  24613847.273      226709.720 4    176659.774 2
 92  4 11  5 30 30.0000000  0  6  3 16 20 17 24 25
  22583316.100    -7289907.328 6  -5680435.791 6
  21547122.729    -6659603.027 7  -5189293.077 8
  20650508.554       98779.962 8     76976.791 9
  23404231.788    -4234583.301 5  -3299670.012 3
  23114863.413    12268213.481 6   9559646.817 6
  24616897.082      242749.627 4    189158.410 2
 92  4 11  5 31  0.0000000  0  6  3 16 20 17 24 25
  22573952.068    -7339145.516 6  -5718803.160 5
  21548617.514    -6651734.024 7  -5183161.365 8
  20653735.204      115723.984 8     90179.908 9
  23389309.304    -4312986.194 5  -3360763.099 4
  23131669.473    12356502.727 6   9628443.603 6
  24620055.397      259322.067 4    202071.990 3
 92  4 11  5 31 30.0000000  0  6  3 16 20 17 24 25
  22564589.259    -7388321.987 6  -5757122.442 6
  21550226.494    -6643271.010 7  -5176566.795 8
  20657071.302      133274.516 8    103855.643 9
  23374429.713    -4391154.173 5  -3421673.164 4
  23148482.723    12444862.613 6   9697295.440 5
  24623307.245      276430.308 4    215403.090 2
 92  4 11  5 32  0.0000000  0  6  3 16 20 17 24 25
  22555245.330    -7437441.066 6  -5795397.005 6
  21551951.204    -6634232.429 7  -5169523.737 8
  20660527.317      151427.200 8    118000.582 9
  23359604.078    -4469084.117 5  -3482397.714 4
  23165314.889    12533289.259 6   9766199.280 5
  24626660.409      294054.454 4    229136.197 2
 92  4 11  5 32 30.0000000  0  6  3 16 20 17 24 25
  22545910.092    -7486500.467 6  -5833625.061 5
  21553782.011    -6624610.448 7  -5162026.070 8
  20664098.155      170183.990 8    132616.257 9
  23344812.610    -4546779.055 5  -3542939.140 1
  23182148.242    12621783.366 6   9835155.703 6
  24630098.451      312175.785 4    243256.699 2
 92  4 11  5 33  0.0000000  0  6  3 16 20 17 24 25
  22536584.451    -7535497.393 6  -5871804.437 6
  21555728.583    -6614390.457 7  -5154062.417 8
  20667782.908      189547.405 8    147704.630 9
  23330085.324    -4624223.537 5  -3603285.452 3
  23199002.255    12710341.590 6   9904162.090 5
  24633643.777      330788.470 4    257760.095 2
 92  4 11  5 33 30.0000000  0  6  3 16 20 17 24 25
  22527274.690    -7584431.758 6  -5909935.052 5
  21557787.255    -6603573.711 7  -5145633.761 8
  20671580.076      209516.945 8    163265.300 9
  23315392.799    -4701404.501 5  -3663426.424 3
  23215873.998    12798970.860 6   9973223.835 5
  24637297.050      349886.465 4    272641.626 1
 92  4 11  5 34  0.0000000  0  6  3 16 20 17 24 25
  22517975.714    -7633311.327 6  -5948022.982 6
  21559957.748    -6592158.288 7  -5136738.608 9
  20675496.568      230085.214 8    179292.521 9
  23300757.825    -4778339.558 5  -3723375.760 2
  23232753.489    12887672.584 6  10042342.071 6
  24641012.690      369467.552 4    287899.660 1
 92  4 11  5 34 30.0000000  0  6  3 16 20 17 24 25
  22508678.866    -7682132.462 6  -5986065.384 5
  21562248.159    -6580136.430 7  -5127370.903 8
  20679521.565      251255.240 8    195788.634 9
  23286168.431    -4855024.363 5  -3783130.116 2
  23249639.925    12976446.164 6  10111516.283 4
  24644836.835      389551.252 5    303549.305 3
 92  4 11  5 35  0.0000000  0  6  3 16 20 17 24 25
  22499397.898    -7730894.368 6  -6024061.629 5
  21564646.796    -6567526.493 7  -5117544.962 8
  20683663.200      273026.891 8    212753.550 9
  23271619.801    -4931448.122 5  -3842681.027 4
  23266552.990    13065287.152 6  10180743.005 5
  24648757.236      410143.496 4    319595.160 2
 92  4 11  5 35 30.0000000  0  6  3 16 20 17 24 25
  22490130.401    -7779608.136 6  -6062020.381 6
  21567158.161    -6554337.872 7  -5107268.100 8
  20687922.344      295388.816 8    230178.409 9
  23257129.908    -5007639.875 5  -3902051.183 4
  23283465.776    13154172.433 6  10250004.266 5
  24652763.352      431231.163 4    336027.082 1
 92  4 11  5 36  0.0000000  0  6  3 16 20 17 24 25
  22480868.628    -7828255.205 6  -6099927.146 6
  21569781.348    -6540544.621 7  -5096520.102 8
  20692292.716      318359.135 8    248077.358 9
  23242661.025    -5083601.257 5  -3961241.814 4
  23300389.661    13243121.747 6  10319315.417 6
  24656881.883      452831.874 4    352858.796 2
 92  4 11  5 36 30.0000000  0  6  3 16 20 17 24 25
  22471623.608    -7876843.076 6  -6137787.804 6
  21572518.449    -6526165.192 7  -5085315.342 8
  20696779.726      341929.641 8    266443.975 9
  23228254.230    -5159327.695 5  -4020249.393 2
  23317331.239    13332123.440 6  10388667.383 6
  24661076.880      474928.029 4    370076.621 1
 92  4 11  5 37  0.0000000  0  6  3 16 20 17 24 25
  22462392.722    -7925370.186 6  -6175601.099 5
  21575365.278    -6511196.438 7  -5073651.361 8
  20701377.335      366101.438 8    285279.132 9
  23213890.851    -5234804.099 5  -4079062.133 3
  23334270.410    13421185.617 6  10458066.475 5
  24665378.010      497511.948 4    387674.423 3
 92  4 11  5 37 30.0000000  0  6  3 16 20 17 24 25
  22453171.992    -7973838.641 6  -6213368.700 6
  21578326.650    -6495633.924 7  -5061524.707 8
  20706087.986      390871.816 8    304580.716 9
  23199572.459    -5310032.916 5  -4137681.950 3
  23351231.777    13510318.327 6  10527520.525 5
  24669771.486      520583.058 4    405651.921 2
 92  4 11  5 38  0.0000000  0  6  3 16 20 17 24 25
  22443962.674    -8022246.484 6  -6251089.072 5
  21581393.211    -6479500.962 7  -5048953.559 8
  20710921.243      416242.287 8    324349.900 9
  23185304.463    -5385003.234 5  -4196100.353 3
  23368218.029    13599533.864 6  10597039.117 6
  24674246.769      544142.979 4    424010.285 2
 92  4 11  5 38 30.0000000  0  6  3 16 20 17 24 25
  22434758.138    -8070594.892 6  -6288763.116 6
  21584570.128    -6462800.636 7  -5035940.299 7
  20715860.317      442210.920 8    344585.185 9
  23171091.295    -5459710.076 5  -4254313.453 4
  23385207.561    13688819.126 6  10666612.034 5
  24678828.219      568184.244 4    442743.770 2
 92  4 11  5 39  0.0000000  0  6  3 16 20 17 24 25
  22425563.514    -8118881.381 6  -6326388.918 5
  21587860.646    -6445517.881 7  -5022473.200 8
  20720920.217      468779.495 8    365287.955 9
  23156921.614    -5534162.242 5  -4312328.073 3
  23402209.378    13778175.155 6  10736240.084 6
  24683482.785      592706.659 4    461852.089 2
 92  4 11  5 39 30.0000000  0  6  3 16 20 17 24 25
  22416391.644    -8167105.784 6  -6363966.335 6
  21591260.297    -6427655.021 7  -5008554.067 8
  20726088.030      495947.068 8    386457.485 9
  23142799.257    -5608388.553 5  -4370166.738 2
  23419225.015    13867585.250 6  10805910.289 6
  24688246.171      617706.359 4    481332.379 2
 92  4 11  5 40  0.0000000  0  6  3 16 20 17 24 25
  22407225.499    -8215267.681 6  -6401495.057 5
  21594775.644    -6409205.284 7  -4994177.632 8
  20731368.570      523713.686 8    408093.794 9
  23128712.918    -5682394.560 5  -4427833.705 3
  23436237.023    13957036.673 6  10875612.689 5
  24693108.500      643177.916 4    501180.329 2
 92  4 11  5 40 30.0000000  0  6  3 16 20 17 24 25
  22398071.045    -8263367.688 7  -6438975.546 6
  21598398.937    -6390144.076 7  -4979324.731 7
  20736768.121      552077.696 8    430195.609 9
  23114673.031    -5756175.928 5  -4485325.646 4
  23453263.131    14046523.962 5  10945343.010 6
  24698040.699      669122.366 4    521396.744 1
 92  4 11  5 41  0.0000000  0  6  3 16 20 17 24 25
  22388930.970    -8311409.438 7  -6476410.644 5
  21602140.648    -6370477.715 7  -4964000.282 8
  20742279.214      581034.816 8    452759.582 9
  23100678.724    -5829730.101 5  -4542640.549 2
  23470296.742    14136041.623 5  11015097.021 4
  24703054.426      695542.043 4    541983.541 3
 92  4 11  5 41 30.0000000  0  6  3 16 20 17 24 25
  22379804.087    -8359383.182 7  -6513792.752 6
  21605998.681    -6350203.248 7  -4948201.978 8
  20747905.129      610593.536 8    475792.333 9
  23086729.090    -5903044.977 5  -4599768.996 3
  23487338.764    14225601.884 5  11084884.221 4
  24708177.287      722446.114 4    562947.706 3
 92  4 11  5 42  0.0000000  0  6  3 16 20 17 24 25
  22370685.894    -8407293.765 7  -6551125.637 5
  21609973.038    -6329327.886 7  -4931935.448 8
  20753639.864      640748.301 8    499289.543 9
  23072830.096    -5976100.365 5  -4656695.229 3
  23504400.540    14315207.940 6  11154707.111 5
  24713391.272      749839.992 4    584293.562 3
 92  4 11  5 42 30.0000000  0  6  3 16 20 17 24 25
  22361582.395    -8455143.308 6  -6588410.971 6
  21614053.213    -6307862.003 7  -4915208.779 8
  20759492.109      671496.219 8    523248.939 9
  23058980.905    -6048889.363 6  -4713413.865 3
  23521466.539    14404858.937 6  11224564.992 5
  24718705.701      777726.075 3    606022.956 2
 92  4 11  5 43  0.0000000  0  6  3 16 20 17 24 25
  22352483.398    -8502928.103 7  -6625645.846 6
  21618251.212    -6285820.641 7  -4898033.681 8
  20765457.082      702839.507 8    547672.271 9
  23045177.260    -6121416.261 5  -4769928.290 3
  23538529.501    14494560.685 6  11294462.452 4
  24724105.845      806099.959 4    628132.421 4
 92  4 11  5 43 30.0000000  0  6  3 16 20 17 24 25
  22343406.876    -8550648.819 7  -6662830.792 6
  21622552.935    -6263207.917 7  -4880413.374 8
  20771532.968      734776.869 8    572558.508 9
  23031426.383    -6193679.772 6  -4826237.478 4
  23555613.788    14584314.711 6  11364400.610 4
  24729590.553      834957.825 4    650619.064 2
 92  4 11  5 44  0.0000000  0  6  3 16 20 17 24 25
  22334333.950    -8598308.483 7  -6699968.163 6
  21626964.664    -6240032.401 7  -4862354.528 8
  20777726.993      767304.064 8    597904.364 9
  23017721.960    -6265681.317 6  -4882342.541 3
  23572698.075    14674117.040 6  11434376.430 5
  24735165.514      864294.711 3    673478.956 2
 92  4 11  5 44 30.0000000  0  6  3 16 20 17 24 25
  22325277.845    -8645904.327 7  -6737055.811 5
  21631481.025    -6216287.480 7  -4843851.993 8
  20784028.302      800422.817 8    623711.162 9
  23004068.805    -6337429.247 6  -4938249.975 4
  23589799.428    14763980.472 6  11504399.862 2
  24740849.853      894086.231 4    696693.105 3
 92  4 11  5 45  0.0000000  0  5  3 16 20 17 24
  22316232.211    -8693434.863 7  -6774092.556 6
  21636114.930    -6191970.511 7  -4824903.696 8
  20790442.059      834133.294 8    649979.054 9
  22990459.135    -6408936.651 6  -4993970.002 3
  23606916.381    14853900.573 6  11574467.477 4
 92  4 11  5 45 30.0000000  0  5  3 16 20 17 24
  22307201.234    -8740900.907 7  -6811079.056 6
  21640848.057    -6167074.285 7  -4805504.047 9
  20796966.172      868433.464 8    676706.446 9
  22976903.108    -6480205.909 6  -5049504.448 3
  23624033.021    14943869.850 6  11644573.411 4
 92  4 11  5 46  0.0000000  0  5  3 16 20 17 24
  22298182.578    -8788297.502 7  -6848011.442 5
  21645697.508    -6141587.384 7  -4785644.119 8
  20803608.667      903327.540 8    703896.619 9
  22963377.968    -6551237.010 6  -5104853.316 4
  23641161.073    15033895.584 6  11714723.289 4
 92  4 11  5 46 30.0000000  0  5  3 16 20 17 24
  22289175.334    -8835622.875 7  -6884888.325 5
  21650664.747    -6115500.677 7  -4765316.816 8
  20810360.890      938815.850 8    731549.840 9
  22949910.693    -6622033.769 6  -5160019.600 3
  23658302.003    15123968.773 5  11784910.191 4
 92  4 11  5 47  0.0000000  0  5  3 16 20 17 24
  22280183.656    -8882881.252 7  -6921713.013 6
  21655743.249    -6088812.854 7  -4744521.100 9
  20817226.433      974892.586 8    759661.566 9
  22936481.808    -6692589.353 6  -5214997.921 4
  23675443.840    15214065.760 6  11855115.608 4
 92  4 11  5 47 30.0000000  0  5  3 16 20 17 24
  22271202.168    -8930071.915 7  -6958484.910 6
  21660935.945    -6061518.921 7  -4723253.097 8
  20824202.891     1011557.320 7    788231.481 9
  22923107.158    -6762881.824 6  -5269771.243 5
  23692601.836    15304193.778 6  11925345.213 4
 92  4 11  5 48  0.0010000  0  5  3 16 20 17 24
  22262235.080    -8977193.174 7  -6995202.754 6
  21666240.483    -6033627.193 7  -4701519.273 8
  20831293.005     1048813.315 8    817262.110 9
  22909784.077    -6832908.263 6  -5324337.243 4
  23709759.888    15394361.544 6  11995605.783 5
 92  4 11  5 48 30.0010000  0  5  3 16 20 17 24
  22253282.072    -9024241.377 7  -7031863.658 4
  21671659.509    -6005158.242 7  -4679335.674 8
  20838498.793     1086657.150 8    846750.799 9
  22896509.278    -6902658.516 6  -5378688.054 5
  23726918.513    15484556.299 5  12065887.394 3
 92  4 11  5 49  0.0010000  0  5  3 16 20 17 24
  22244342.849    -9071217.033 7  -7068468.030 6
  21677179.292    -5976123.751 7  -4656711.384 8
  20845808.934     1125089.708 7    876698.226 9
  22883294.716    -6972116.516 6  -5432811.121 4
  23744089.702    15574788.116 6  12136197.869 5
 92  4 11  5 49 30.0010000  0  5  3 16 20 17 24
  22235419.226    -9118124.261 7  -7105019.084 6
  21682814.211    -5946547.011 7  -4633664.572 9
  20853235.397     1164105.384 8    907100.038 9
  22870125.142    -7041301.696 6  -5486721.603 5
  23761269.930    15665056.924 5  12206537.182 3
 92  4 11  5 50  0.0010000  0  5  3 16 20 17 24
  22226507.295    -9164959.752 7  -7141514.217 6
  21688545.631    -5916436.300 7  -4610201.671 8
  20860770.087     1203705.683 7    937957.387 9
  22857013.118    -7110224.488 6  -5540427.625 4
  23778449.530    15755349.497 6  12276895.002 3
 92  4 11  5 50 30.0010000  0  5  3 16 20 17 24
  22217608.871    -9211721.860 7  -7177952.178 6
  21694378.680    -5885765.206 7  -4586302.115 8
  20868416.912     1243890.937 8    969270.555 9
  22843946.360    -7178877.718 6  -5593923.620 4
  23795634.539    15845650.287 5  12347259.263 4
 92  4 11  5 51  0.0010000  0  5  3 16 20 17 24
  22208722.731    -9258417.326 7  -7214338.195 6
  21700330.182    -5854520.729 7  -4561955.761 9
  20876174.616     1284652.721 8   1001032.963 9
  22830929.091    -7247279.862 6  -5647223.943 5
  23812820.141    15935951.022 5  12417623.468 3
 92  4 11  5 51 30.0010000  0  5  3 16 20 17 24
  22199848.563    -9305035.135 7  -7250663.713 6
  21706385.093    -5822688.235 7  -4537151.217 8
  20884041.174     1326000.914 7   1033252.309 9
  22817957.367    -7315440.343 6  -5700335.974 4
  23829998.834    16026257.095 5  12487991.829 4
 92  4 11  5 52  0.0010000  0  5  3 16 20 17 24
  22190995.404    -9351582.521 7  -7286934.362 7
  21712551.197    -5790266.430 7  -4511887.459 9
  20892019.553     1367926.140 7   1065921.290 9
  22805033.910    -7383361.437 6  -5753261.443 4
  23847184.751    16116562.559 5  12558359.672 4
 92  4 11  5 52 30.0010000  0  5  3 16 20 17 24
  22182153.623    -9398052.402 7  -7323144.624 6
  21718836.661    -5757243.393 7  -4486155.219 9
  20900111.847     1410434.370 7   1099044.563 9
  22792157.220    -7451036.318 6  -5805995.084 5
  23864382.045    16206894.004 5  12628747.826 5
 92  4 11  5 53  0.0010000  0  5  3 16 20 17 24
  22173322.033    -9444441.202 7  -7359291.710 6
  21725232.131    -5723637.521 7  -4459968.811 9
  20908310.588     1453527.512 8   1132623.611 9
  22779324.609    -7518462.831 6  -5858535.176 4
  23881579.025    16297274.308 5  12699174.005 3
 92  4 11  5 53 30.0010000  0  5  3 16 20 17 24
  22164509.917    -9490751.865 7  -7395377.907 6
  21731734.326    -5689459.953 7  -4433336.929 9
  20916617.240     1497200.749 7   1166654.678 9
  22766539.637    -7585626.356 6  -5910870.364 5
  23898792.827    16387696.188 5  12769632.623 4
 92  4 11  5 54  0.0010000  0  5  3 16 20 17 24
  22155711.029    -9536987.502 7  -7431405.656 7
  21738347.156    -5654704.698 7  -4406254.913 9
  20925038.401     1541448.674 7   1201133.562 9
  22753816.753    -7652515.772 6  -5962991.938 5
  23915990.715    16478156.163 5  12840120.896 4
 92  4 11  5 54 30.0010000  0  5  3 16 20 17 24
  22146931.301    -9583143.416 7  -7467371.275 6
  21745073.308    -5619368.080 7  -4378719.872 9
  20933569.603     1586274.314 7   1236062.607 9
  22741141.229    -7719121.410 6  -6014892.374 5
  23933219.175    16568657.859 6  12910641.678 4
 92  4 11  5 55  0.0010000  0  5  3 16 20 17 24
  22138160.856    -9629224.166 7  -7503278.319 7
  21751904.056    -5583463.275 7  -4350742.090 9
  20942209.311     1631671.106 7   1271436.709 9
  22728519.661    -7785437.195 6  -6066566.968 4
  23950441.668    16659173.610 6  12981173.412 2
 92  4 11  5 55 30.0010000  0  5  3 16 20 17 24
  22129406.047    -9675226.162 7  -7539123.998 7
  21758850.569    -5546991.875 7  -4322322.829 9
  20950956.058     1677641.119 7   1307257.475 9
  22715957.459    -7851463.675 6  -6118016.130 4
  23967673.723    16749693.131 5  13051708.067 4
 92  4 11  5 56  0.0010000  0  5  3 16 20 17 24
  22120661.394    -9721149.787 7  -7574908.601 7
  21765889.393    -5509959.327 7  -4293466.300 8
  20959811.311     1724182.303 7   1343523.317 9
  22703445.618    -7917220.238 6  -6169254.970 5
  23984887.211    16840216.886 5  13122246.032 3
 92  4 11  5 56 30.0010000  0  5  3 16 20 17 24
  22111939.531    -9766997.638 7  -7610634.173 7
  21773041.854    -5472384.299 7  -4264187.054 9
  20968777.233     1771290.255 7   1380230.788 9
  22690982.952    -7982716.518 6  -6220290.979 5
  24002120.173    16930731.079 5  13192776.596 2
 92  4 11  5 57  0.0010000  0  5  3 16 20 17 24
  22103228.452    -9812764.300 7  -7646296.475 6
  21780290.220    -5434265.763 7  -4234484.300 8
  20977849.252     1818968.194 7   1417382.415 9
  22678566.738    -8047953.987 6  -6271125.317 5
  24019338.757    17021238.651 5  13263301.963 3
 92  4 11  5 57 30.0010000  0  5  3 16 20 17 24
  22094539.884    -9858449.770 7  -7681895.514 7
  21787654.910    -5395601.346 7  -4204356.173 8
  20987033.092     1867213.628 7   1454976.231 9
  22666198.512    -8112948.279 6  -6321770.160 5
  24036570.812    17111761.235 5  13333839.023 4
 92  4 11  5 58  0.0010000  0  5  3 16 20 17 24
  22085858.470    -9904056.722 7  -7717433.363 7
  21795114.948    -5356390.900 7  -4173802.585 8
  20996320.656     1916022.322 7   1493008.951 9
  22653878.554    -8177701.657 6  -6372227.303 4
  24053805.310    17202307.554 5  13404394.575 4
 92  4 11  5 58 30.0010000  0  5  3 16 20 17 24
  22077197.159    -9949582.786 7  -7752908.185 7
  21802679.024    -5316641.745 7  -4142829.214 8
  21005717.354     1965394.586 7   1531480.827 9
  22641599.359    -8242200.400 6  -6422486.012 5
  24071032.863    17292884.948 5  13474974.321 4
 92  4 11  5 59  0.0010000  0  5  3 16 20 17 24
  22068547.854    -9995017.050 7  -7788311.482 7
  21810351.606    -5276343.095 7  -4111427.674 8
  21015217.183     2015338.788 7   1570398.361 9
  22629377.122    -8306434.410 6  -6472538.431 5
  24088279.332    17383517.561 5  13545597.108 4
 92  4 11  5 59 30.0010000  0  5  3 16 20 17 24
  22059918.024   -10040368.178 7  -7823649.990 6
  21818118.035    -5235498.422 7  -4079600.654 8
  21024829.426     2065844.387 7   1609753.345 9
  22617204.024    -8370409.353 6  -6522388.977 4
  24105537.179    17474196.731 5  13616256.157 3
 92  4 11  6  0  0.0010000  0  5  3 16 20 17 24
  22051300.199   -10085642.629 7  -7858928.765 7
  21825998.378    -5194108.485 7  -4047348.761 9
  21034546.580     2116902.942 7   1649539.208 9
  22605081.323    -8434119.436 6  -6572033.156 5
  24122798.027    17564891.017 5  13686926.965 3
 92  4 11  6  0 30.0010000  0  5  3 16 20 17 24
  22042702.442   -10130835.414 7  -7894143.902 7
  21833981.260    -5152157.346 7  -4014659.565 8
  21044364.805     2168516.582 7   1689757.606 9
  22593006.889    -8497557.812 6  -6621465.613 6
  24140045.089    17655587.352 5  13757599.395 3
 92  4 11  6  1  0.0010000  0  5  3 16 20 17 24
  22034121.506   -10175940.107 7  -7929290.389 7
  21842073.833    -5109625.070 7  -3981517.531 8
  21054295.410     2220690.094 7   1730412.275 9
  22580993.915    -8560721.907 6  -6670684.326 6
  24157314.034    17746288.278 5  13828275.416 4
 92  4 11  6  1 30.0010000  0  5  3 16 20 17 24
  22025558.231   -10220957.233 7  -7964368.641 7
  21850278.576    -5066513.914 7  -3947924.422 8
  21064329.774     2273420.510 7   1771500.894 9
  22569021.984    -8623618.660 6  -6719694.731 4
  24174572.788    17836986.367 5  13898949.214 4
 92  4 11  6  2  0.0010000  0  5  3 16 20 17 24
  22017005.146   -10265886.236 7  -7999378.224 7
  21858587.916    -5022837.584 7  -3913890.923 8
  21074473.830     2326705.951 7   1813022.005 9
  22557097.447    -8686254.855 6  -6768502.101 6
  24191827.040    17927666.914 5  13969609.346 2
 92  4 11  6  2 30.0010000  0  5  3 16 20 17 24
  22008469.442   -10310727.685 7  -8034319.583 7
  21867006.669    -4978610.592 7  -3879428.333 8
  21084713.862     2380543.444 7   1854973.282 9
  22545229.554    -8748632.474 6  -6817107.989 5
  24209080.419    18018341.539 5  14040264.845 3
 92  4 11  6  3  0.0010000  0  5  3 16 20 17 24
  21999955.062   -10355480.293 7  -8069191.714 7
  21875526.494    -4933845.967 7  -3844546.809 8
  21095060.305     2434931.781 7   1897353.794 9
  22533409.335    -8810740.292 6  -6865503.650 5
  24226339.452    18109016.534 5  14110920.682 2
 92  4 11  6  3 30.0010000  0  5  3 16 20 17 24
  21991455.340   -10400140.929 7  -8103992.174 7
  21884143.411    -4888556.966 7  -3809256.681 7
  21105519.442     2489872.256 7   1940164.532 9
  22521643.107    -8872565.694 6  -6913679.231 5
  24243589.202    18199682.311 5  14181569.342 3
 92  4 11  6  4  0.0010000  0  5  3 16 20 17 24
  21982972.999   -10444709.542 7  -8138720.925 8
  21892863.495    -4842741.031 7  -3773555.953 8
  21116076.649     2545362.113 7   1983403.364 9
  22509935.581    -8934084.314 6  -6961615.778 4
  24260844.954    18290333.421 5  14252206.579 3
 92  4 11  6  4 30.0010000  0  5  3 16 20 17 24
  21974510.167   -10489184.106 7  -8173376.392 7
  21901677.983    -4796393.165 7  -3737440.735 7
  21126744.770     2601401.020 7   2027070.015 9
  22498297.368    -8995280.201 6  -7009300.832 5
  24278095.611    18380986.047 5  14322844.991 2
 92  4 11  6  5  0.0010000  0  5  3 16 20 17 24
  21966066.216   -10533565.086 7  -8207958.946 8
  21910596.510    -4749513.839 7  -3700911.380 7
  21137511.206     2657985.774 7   2071162.010 9
  22486709.481    -9056163.997 6  -7056742.723 5
  24295340.579    18471636.983 5  14393482.108 3
 92  4 11  6  5 30.0010000  0  5  3 16 20 17 24
  21957641.739   -10577853.163 7  -8242469.120 7
  21919619.076    -4702103.170 7  -3663968.007 8
  21148381.365     2715113.356 7   2115676.981 9
  22475177.365    -9116762.289 6  -7103962.123 5
  24312595.145    18562292.034 5  14464122.394 2
 92  4 11  6  6  0.0010000  0  5  3 16 20 17 24
  21949231.362   -10622050.123 7  -8276908.286 8
  21928744.458    -4654157.452 7  -3626607.704 8
  21159357.098     2772779.309 7   2160611.459 9
  22463694.703    -9177102.416 6  -7150980.350 5
  24329855.993    18652970.948 5  14534781.259 3
 92  4 11  6  6 30.0010000  0  5  3 16 20 17 24
  21940837.459   -10666154.224 7  -8311275.097 8
  21937971.470    -4605677.321 7  -3588830.981 8
  21170430.832     2830982.947 7   2205964.918 9
  22452252.526    -9237217.058 6  -7197822.867 5
  24347107.837    18743677.414 5  14605461.642 2
 92  4 11  6  7  0.0010000  0  5  3 16 20 17 24
  21932463.378   -10710161.900 7  -8345566.766 7
  21947300.705    -4556655.877 7  -3550632.446 7
  21181608.883     2889725.305 7   2251738.152 9
  22440855.614    -9297120.499 6  -7244500.843 5
  24364380.097    18834404.252 5  14676157.821 3
 92  4 11  6  7 30.0010000  0  5  3 16 20 17 24
  21924103.049   -10754072.498 7  -8379782.800 8
  21956733.979    -4507087.335 7  -3512007.613 8
  21192890.379     2949004.169 7   2297929.456 9
  22429500.373    -9356813.425 6  -7291014.758 5
  24381647.821    18925145.178 5  14746865.043 3
 92  4 11  6  8  0.0010000  0  5  3 16 20 17 24
  21915767.638   -10797889.164 7  -8413925.650 7
  21966269.476    -4456971.071 7  -3472955.984 7
  21204270.190     3008813.913 7   2344534.425 9
  22418184.116    -9416277.693 6  -7337350.493 4
  24398913.485    19015872.822 5  14817561.863 3
 92  4 11  6  8 30.0010000  0  5  3 16 20 17 24
  21907445.978   -10841603.868 7  -8447989.039 7
  21975910.791    -4406300.911 7  -3433472.749 8
  21215757.040     3069159.359 7   2391556.824 9
  22406917.314    -9475484.229 6  -7383485.406 5
  24416163.235    19106569.946 5  14888234.933 3
 92  4 11  6  9  0.0010000  0  5  3 16 20 17 24
  21899154.019   -10885218.798 7  -8481974.683 7
  21985655.830    -4355092.583 7  -3393570.150 8
  21227338.330     3130035.905 7   2438993.068 9
  22395699.685    -9534413.442 6  -7429404.221 4
  24433421.709    19197237.052 5  14958884.628 3
 92  4 11  6  9 30.0010000  0  5  3 16 20 17 24
  21890868.655   -10928736.045 7  -8515884.198 7
  21995505.536    -4303359.941 7  -3353259.010 8
  21239023.938     3191438.347 7   2486839.109 9
  22384532.698    -9593047.023 6  -7475092.680 6
  24450660.675    19287877.410 5  15029513.435 2
 92  4 11  6 10  0.0010000  0  5  3 16 20 17 24
  21882609.991   -10972143.161 7  -8549707.889 8
  22005443.365    -4251110.580 7  -3312545.229 8
  21250809.362     3253376.559 7   2535102.617 9
  22373447.272    -9651360.779 6  -7520531.910 5
  24467911.925    19378508.872 5  15100135.346 3
 92  4 11  6 10 30.0010000  0  5  3 16 20 17 24
  21874368.079   -11015446.262 7  -8583450.529 8
  22015478.915    -4198364.921 7  -3271444.710 7
  21262695.857     3315841.837 7   2583776.833 9
  22362408.334    -9709372.692 6  -7565735.946 5
  24485160.488    19469144.484 5  15170760.489 2
 92  4 11  6 11  0.0010000  0  5  3 16 20 17 24
  21866149.270   -11058648.812 7  -8617114.826 7
  22025613.094    -4145132.806 7  -3229965.136 8
  21274679.445     3378827.489 7   2632856.535 9
  22351423.632    -9767086.687 6  -7610707.845 6
  24502414.740    19559792.613 5  15241395.324 3
 92  4 11  6 11 30.0010000  0  5  3 16 20 17 24
  21857946.063   -11101745.058 7  -8650696.275 8
  22035836.304    -4091401.685 7  -3188096.733 7
  21286767.385     3442336.362 7   2682343.945 9
  22340495.293    -9824506.907 6  -7655450.826 5
  24519663.582    19650446.224 5  15312034.478 3
 92  4 11  6 12  0.0010000  0  5  3 16 20 17 24
  21849768.611   -11144736.833 7  -8684196.327 8
  22046153.676    -4037162.184 7  -3145832.194 8
  21298952.139     3506363.436 7   2732235.146 9
  22329618.224    -9881657.450 6  -7699983.682 5
  24536920.556    19741093.752 5  15382668.875 2
 92  4 11  6 12 30.0010000  0  5  3 16 20 17 24
  21841605.888   -11187623.257 7  -8717614.286 8
  22056577.738    -3982388.420 7  -3103151.335 8
  21311232.835     3570906.814 7   2782528.648 9
  22318797.518    -9938540.568 6  -7744308.140 5
  24554163.710    19831723.946 5  15453289.780 4
 92  4 11  6 13  0.0010000  0  5  3 16 20 17 24
  21833461.418   -11230401.918 7  -8750948.278 8
  22067106.466    -3927076.386 7  -3060051.056 8
  21323614.253     3635966.086 7   2833224.158 9
  22308028.081    -9995146.214 6  -7788416.398 5
  24571396.986    19922327.750 5  15523890.105 3
 92  4 11  6 13 30.0010000  0  5  3 16 20 17 24
  21825348.742   -11273065.808 7  -8784192.843 7
  22077739.198    -3871212.799 7  -3016520.985 7
  21336093.113     3701545.377 7   2884324.880 9
  22297306.912   -10051477.556 6  -7832310.916 6
  24588636.824    20012895.629 4  15594462.431 3
 92  4 11  6 14  0.0010000  0  5  3 16 20 17 24
  21817248.630   -11315620.632 7  -8817352.406 8
  22088471.780    -3814814.214 7  -2972574.038 7
  21348669.415     3767635.757 7   2935823.847 9
  22286639.070   -10107534.182 6  -7875991.348 5
  24605858.409    20103423.090 4  15665003.306 4
 92  4 11  6 14 30.0010000  0  5  3 16 20 17 24
  21809170.121   -11358063.413 7  -8850424.669 7
  22099302.956    -3757900.741 7  -2928225.874 7
  21361344.660     3834236.783 7   2987720.715 9
  22276030.908   -10163310.299 6  -7919453.218 5
  24623085.404    20193916.738 4  15735517.806 2
 92  4 11  6 15  0.0010000  0  5  3 16 20 17 24
  21801115.904   -11400395.892 7  -8883410.990 8
  22110224.698    -3700502.540 7  -2883500.010 8
  21374111.902     3901343.421 7   3040011.571 9
  22265465.046   -10218814.282 6  -7962703.023 5
  24640289.573    20284386.663 4  15806013.769 3
 92  4 11  6 15 30.0010000  0  5  3 16 20 17 24
  21793082.975   -11442614.338 7  -8916308.468 8
  22121235.192    -3642621.410 7  -2838397.825 7
  21386979.588     3968956.666 7   3092697.187 9
  22254950.731   -10274054.981 6  -8005747.674 6
  24657521.070    20374842.559 4  15876498.875 2
 92  4 11  6 16  0.0010000  0  5  3 16 20 17 24
  21785070.114   -11484719.491 7  -8949117.662 8
  22132342.186    -3584266.278 7  -2792926.289 7
  21399940.842     4037072.419 7   3145774.375 9
  22244488.872   -10329037.124 6  -8048590.861 6
  24674714.141    20465303.449 4  15946987.853 3
 92  4 11  6 16 30.0010000  0  5  3 16 20 17 24
  21777077.042   -11526707.808 7  -8981835.819 8
  22143537.652    -3525420.925 7  -2747072.767 8
  21412999.189     4105691.350 7   3199243.645 9
  22234074.966   -10383759.782 6  -8091231.857 6
  24691948.011    20555776.463 4  16017486.245 2
 92  4 11  6 17  0.0010000  0  5  3 16 20 17 24
  21769111.541   -11568582.421 7  -9014465.372 8
  22154831.712    -3466076.200 7  -2700830.120 8
  21426149.883     4174806.831 7   3253099.843 9
  22223713.550   -10438213.386 6  -8133663.194 5
  24709164.501    20646254.546 5  16087988.607 1
 92  4 11  6 17 30.0010000  0  5  3 16 20 17 24
  21761166.143   -11610334.500 7  -9046999.445 8
  22166222.935    -3406220.280 7  -2654189.148 7
  21439400.705     4244424.523 7   3307347.372 9
  22213406.090   -10492386.194 6  -8175875.734 6
  24726376.174    20736738.174 4  16158495.342 3
 92  4 11  6 18  0.0010000  0  5  3 16 20 17 24
  21753242.941   -11651967.465 7  -9079440.696 7
  22177704.690    -3345855.467 7  -2607151.629 7
  21452741.187     4314537.570 7   3361980.894 9
  22203156.182   -10546263.921 7  -8217858.334 6
  24743588.162    20827215.525 5  16228997.107 2
 92  4 11  6 18 30.0010000  0  5  3 16 20 17 24
  21745341.901   -11693479.474 7  -9111787.688 8
  22189290.762    -3284989.339 7  -2559723.482 7
  21466177.262     4385144.867 7   3416999.536 9
  22192960.822   -10599833.118 7  -8259600.533 6
  24760797.148    20917667.878 4  16299479.501 3
 92  4 11  6 19  0.0010000  0  5  3 16 20 17 24
  21737471.155   -11734864.511 7  -9144035.735 8
  22200971.589    -3223643.354 7  -2511921.417 7
  21479707.498     4456249.074 7   3472405.394 8
  22182821.548   -10653097.377 7  -8301105.121 4
  24778016.324    21008093.641 4  16369941.065 3
 92  4 11  6 19 30.0010000  0  5  3 16 20 17 24
  21729616.010   -11776130.501 8  -9176191.033 9
  22212730.348    -3161829.111 7  -2463754.479 7
  21493332.488     4527838.464 7   3528189.307 9
  22172739.824   -10706083.205 6  -8342392.751 5
  24795217.842    21098476.271 5  16440369.123 2
 92  4 11  6 20  0.0010000  0  5  3 16 20 17 24
  21721785.434   -11817269.546 7  -9208247.424 8
  22224574.858    -3099546.448 7  -2415222.535 7
  21507049.197     4599917.660 7   3584354.881 9
  22162706.961   -10758792.393 6  -8383464.826 6
  24812409.133    21188815.634 5  16510763.351 1
 92  4 11  6 20 30.0010000  0  5  3 16 20 17 24
  21713980.929   -11858284.200 7  -9240206.877 8
  22236521.591    -3036807.513 7  -2366335.056 7
  21520853.715     4672480.535 7   3640897.363 9
  22152725.401   -10811251.493 6  -8424342.015 5
  24829594.736    21279111.191 5  16581123.539 2
 92  4 11  6 21  0.0010000  0  5  3 16 20 17 24
  21706198.306   -11899173.223 7  -9272068.435 8
  22248537.253    -2973610.198 7  -2317090.400 7
  21534759.898     4745524.628 7   3697814.808 9
  22142788.165   -10863473.643 6  -8465034.577 6
  24846762.644    21369377.203 4  16651460.633 3
 92  4 11  6 21 30.0010000  0  5  3 16 20 17 24
  21698447.478   -11939934.479 8  -9303830.442 8
  22260663.549    -2909937.737 7  -2267475.492 6
  21548751.518     4819049.410 7   3755106.831 9
  22132898.604   -10915447.137 6  -8505533.370 6
  24863941.650    21459625.168 4  16721783.690 3
 92  4 11  6 22  0.0010000  0  5  3 16 20 17 24
  21690711.342   -11980564.450 7  -9335490.130 8
  22272869.313    -2845789.079 7  -2217489.534 7
  21562833.669     4893054.584 7   3812773.179 8
  22123061.218   -10967156.931 7  -8545826.681 6
  24881113.467    21549867.682 5  16792102.523 2
 92  4 11  6 22 30.0010000  0  5  3 16 20 17 24
  21683006.967   -12021068.891 8  -9367052.019 8
  22285165.609    -2781149.565 7  -2167121.079 7
  21577003.664     4967530.898 7   3870806.651 8
  22113273.286   -11018591.650 7  -8585905.631 6
  24898285.284    21640105.903 5  16862417.928 2
 92  4 11  6 23  0.0010000  0  5  3 16 20 17 24
  21675321.193   -12061447.124 8  -9398515.565 8
  22297563.535    -2716009.555 7  -2116362.644 7
  21591263.878     5042475.197 7   3929204.792 8
  22103542.940   -11069736.085 6  -8625758.412 6
  24915460.975    21730337.752 4  16932728.456 2
 92  4 11  6 23 30.0010000  0  5  3 16 20 17 24
  21667660.582   -12101694.349 8  -9429877.033 8
  22310054.087    -2650360.736 7  -2065207.713 8
  21605614.343     5117888.526 7   3987968.408 8
  22093865.049   -11120573.237 6  -8665371.750 7
  24932618.692    21820563.319 5  17003034.045 2
 92  4 11  6 24  0.0010000  0  5  3 16 20 17 24
  21660031.766   -12141808.951 7  -9461135.167 9
  22322643.267    -2584206.041 7  -2013658.607 6
  21620053.247     5193769.101 7   4047096.099 9
  22084250.991   -11171107.267 6  -8704748.881 6
  24949789.323    21910772.713 5  17073327.100 2
 92  4 11  6 24 30.0010000  0  5  3 16 20 17 24
  21652421.830   -12181791.440 7  -9492290.333 8
  22335332.577    -2517561.267 7  -1961727.609 7
  21634581.496     5270112.608 7   4106584.530 8
  22074684.921   -11221355.567 6  -8743903.373 6
  24966958.138    22000956.709 5  17143600.305 3
 92  4 11  6 25  0.0010000  0  5  3 16 20 17 24
  21644838.594   -12221634.423 7  -9523336.786 9
  22348095.352    -2450449.752 7  -1909432.920 6
  21649198.775     5346922.693 7   4166436.520 8
  22065175.495   -11271334.563 6  -8782848.010 7
  24984113.168    22091118.664 5  17213856.331 2
 92  4 11  6 25 30.0010000  0  5  3 16 20 17 24
  21637281.428   -12261334.781 7  -9554272.105 9
  22360954.033    -2382883.528 7  -1856783.915 7
  21663904.492     5424198.923 7   4226651.738 9
  22055714.336   -11321053.115 6  -8821589.690 6
  25001260.101    22181249.510 5  17284088.130 1
 92  4 11  6 26  0.0010000  0  5  3 16 20 17 24
  21629753.020   -12300904.499 7  -9585105.621 8
  22373896.965    -2314893.081 7  -1803804.347 6
  21678698.647     5501925.942 7   4287218.225 8
  22046293.661   -11370539.023 6  -8860150.106 7
  25018398.309    22271320.550 5  17354273.307 2
 92  4 11  6 26 30.0010000  0  5  3 16 20 17 24
  21622251.032   -12340331.595 8  -9615828.023 9
  22386909.766    -2246474.479 7  -1750491.155 7
  21693570.456     5580111.956 7   4348142.366 8
  22036928.165   -11419771.921 7  -8898513.358 6
  25035534.772    22361345.678 4  17424422.773 2
 92  4 11  6 27  0.0010000  0  5  3 16 20 17 24
  21614780.803   -12379613.611 8  -9646437.374 8
  22400019.696    -2177614.484 7  -1696834.006 6
  21708537.892     5658755.486 7   4409423.020 8
  22027610.900   -11468728.674 6  -8936661.420 7
  25052654.098    22451332.841 4  17494542.605 3
 92  4 11  6 27 30.0010000  0  5  3 16 20 17 24
  21607327.676   -12418759.062 8  -9676940.315 9
  22413209.967    -2108310.267 7  -1642830.729 6
  21723587.483     5737844.087 7   4471050.482 9
  22018350.628   -11517396.962 7  -8974584.720 7
  25069768.050    22541272.241 4  17564625.241 3
 92  4 11  6 28  0.0010000  0  5  3 16 20 17 24
  21599906.307   -12457759.615 8  -9707330.356 9
  22426479.357    -2038547.477 7  -1588470.111 6
  21738727.292     5817382.352 7   4533028.319 8
  22009149.686   -11565755.296 7  -9012266.490 7
  25086889.820    22631182.161 4  17634684.886 2
 92  4 11  6 28 30.0010000  0  5  3 16 20 17 24
  21592513.104   -12496619.104 8  -9737610.472 9
  22439848.003    -1968321.520 7  -1533748.590 6
  21753942.346     5897362.737 7   4595350.670 8
  22000002.108   -11613803.331 6  -9049706.468 6
  25103986.078    22721072.899 4  17704729.520 3
 92  4 11  6 29  0.0010000  0  5  3 16 20 17 24
  21585142.725   -12535330.296 8  -9767775.034 9
  22453288.929    -1897629.718 6  -1478664.070 6
  21769249.153     5977788.458 7   4658020.020 8
  21990920.212   -11661549.818 7  -9086911.479 7
  25121078.147    22810951.021 3  17774764.360 3
 92  4 11  6 29 30.0010000  0  4  3 16 20 17
  21577806.200   -12573890.750 8  -9797822.141 9
  22466830.228    -1826480.568 7  -1423223.182 6
  21784638.710     6058658.079 7   4721035.288 8
  21981885.362   -11709018.668 6  -9123900.157 7
 92  4 11  6 30  0.0010000  0  4  3 16 20 17
  21570499.340   -12612299.586 8  -9827751.110 9
  22480461.501    -1754882.861 7  -1367432.771 7
  21800110.387     6139968.698 7   4784394.185 8
  21972899.686   -11756228.363 6  -9160686.886 7
 92  4 11  6 30 30.0010000  0  4  3 16 20 17
  21563217.992   -12650558.126 8  -9857562.953 9
  22494168.018    -1682845.230 7  -1311299.549 6
  21815665.127     6221714.587 7   4848092.260 7
  21963961.650   -11803188.837 7  -9197279.423 7
 92  4 11  6 31  0.0010000  0  4  3 16 20 17
  21555964.216   -12688665.519 8  -9887257.011 9
  22507963.253    -1610380.579 7  -1254833.605 6
  21831305.304     6303893.241 7   4912127.539 8
  21955075.824   -11849911.787 7  -9233686.879 7
 92  4 11  6 31 30.0010000  0  4  3 16 20 17
  21548743.421   -12726619.116 8  -9916831.239 9
  22521827.451    -1537497.312 7  -1198041.457 7
  21847027.322     6386503.073 7   4976498.817 8
  21946229.541   -11896388.725 7  -9269902.641 7
 92  4 11  6 32  0.0010000  0  4  3 16 20 17
  21541548.382   -12764417.764 8  -9946284.723 9
  22535775.620    -1464197.532 7  -1140924.760 7
  21862824.585     6469541.421 7   5041203.992 8
  21937436.027   -11942604.351 7  -9305914.781 6
 92  4 11  6 32 30.0010000  0  4  3 16 20 17
  21534384.544   -12802061.929 8  -9975617.812 9
  22549804.408    -1390478.973 7  -1083481.719 6
  21878705.191     6553003.561 7   5106239.406 7
  21928691.967   -11988558.169 7  -9341722.907 6
 92  4 11  6 33  0.0010000  0  4  3 16 20 17
  21527251.000   -12839548.353 8 -10004827.993 9
  22563908.128    -1316343.410 7  -1025713.754 6
  21894672.419     6636888.687 7   5171604.408 8
  21919999.211   -12034234.081 7  -9377314.498 7
 92  4 11  6 33 30.0010000  0  4  3 16 20 17
  21520151.623   -12876873.552 8 -10033912.551 9
  22578097.319    -1241771.461 7   -967605.758 6
  21910713.113     6721196.315 7   5237298.636 8
  21911366.973   -12079599.860 7  -9412664.416 7
 92  4 11  6 34  0.0010000  0  4  3 16 20 17
  21513076.223   -12914039.433 8 -10062872.976 9
  22592378.507    -1166748.806 7   -909146.547 7
  21926838.650     6805920.259 7   5303317.264 7
  21902794.728   -12124649.520 7  -9447768.021 7
 92  4 11  6 34 30.0010000  0  4  3 16 20 17
  21506038.271   -12951042.661 8 -10091706.657 9
  22606740.664    -1091279.438 7   -850339.255 6
  21943040.933     6891059.751 7   5369659.699 7
  21894281.813   -12169377.925 7  -9482621.290 7
 92  4 11  6 35  0.0010000  0  4  3 16 20 17
  21499027.925   -12987879.371 8 -10120410.567 9
  22621183.477    -1015376.205 7   -791193.882 6
  21959321.776     6976614.591 7   5436325.766 8
  21885836.641   -12213769.785 7  -9517212.330 8
 92  4 11  6 35 30.0010000  0  4  3 16 20 17
  21492049.653   -13024556.213 8 -10148989.906 9
  22635699.440     -939057.030 7   -731724.413 6
  21975677.865     7062574.105 7   5503307.168 7
  21877447.274   -12257862.912 7  -9551570.586 7
 92  4 11  6 36  0.0010000  0  4  3 16 20 17
  21485100.767   -13061063.932 8 -10177437.472 9
  22650305.622     -862341.653 7   -671946.192 6
  21992113.074     7148943.303 7   5570607.814 7
  21869103.732   -12301686.493 7  -9585718.800 7
 92  4 11  6 36 30.0010000  0  5  3 16 20 17 23
  21478185.455   -13097401.373 8 -10205752.351 9
  22664978.672     -785246.610 7   -611872.139 7
  22008625.342     7235719.186 7   5638225.354 7
  21860813.866   -12345253.521 7  -9619667.119 7
  24314508.422     -254281.113 5   -198141.581 2
 92  4 11  6 37  0.0010000  0  5  3 16 20 17 23
  21471305.532   -13133574.368 8 -10233939.081 9
  22679720.651     -707772.469 7   -551502.688 7
  22025214.950     7322891.539 7   5706151.842 7
  21852570.767   -12388582.674 7  -9653430.075 7
  24295707.837     -353080.872 5   -275128.329 4
 92  4 11  6 37 30.0010000  0  5  3 16 20 17 23
  21464452.552   -13169575.843 8 -10261992.160 9
  22694528.592     -629902.979 7   -490825.169 6
  22041875.929     7410463.312 7   5774389.567 8
  21844369.060   -12431686.360 7  -9687017.325 7
  24276931.228     -451733.610 4   -352000.530 3
 92  4 11  6 38  0.0010000  0  5  3 16 20 17 23
  21457632.588   -13205404.017 8 -10289910.194 9
  22709436.696     -551623.910 7   -429828.495 7
  22058620.844     7498432.357 7   5842936.835 7
  21836206.302   -12474549.581 7  -9720417.219 7
  24258183.726     -550258.792 4   -428773.338 3
 92  4 11  6 38 30.0010000  0  5  3 16 20 17 23
  21450848.572   -13241058.344 8 -10317692.764 9
  22724408.320     -472927.357 7   -368506.507 6
  22075434.094     7586794.770 7   5911790.626 7
  21828105.318   -12517151.823 7  -9753613.741 7
  24239457.479     -648656.225 4   -505446.587 2
 92  4 11  6 39  0.0010000  0  5  3 16 20 17 23
  21444097.257   -13276535.569 8 -10345337.337 9
  22739465.694     -393816.402 7   -306861.630 6
  22092323.218     7675549.109 7   5980949.815 7
  21820048.098   -12559481.184 7  -9786597.630 7
  24220763.025     -746920.124 4   -582015.778 4
 92  4 11  6 39 30.0010000  0  5  3 16 20 17 23
  21437378.923   -13311832.198 8 -10372841.190 9
  22754593.218     -314301.195 7   -244901.724 6
  22109291.146     7764695.055 7   6050414.147 7
  21812049.337   -12601532.514 7  -9819364.873 7
  24202098.238     -845053.859 4   -658483.549 3
 92  4 11  6 40  0.0010000  0  5  3 16 20 17 23
  21430694.443   -13346954.160 8 -10400208.944 9
  22769795.394     -234399.794 6   -182640.905 6
  22126320.569     7854222.250 7   6120175.545 7
  21804099.437   -12643301.182 7  -9851911.853 7
  24183444.862     -943072.967 4   -734861.998 4
 92  4 11  6 40 30.0010000  0  5  3 16 20 17 23
  21424048.039   -13381893.064 8 -10427434.062 9
  22785079.726     -154110.737 7   -120078.012 6
  22143432.427     7944134.470 7   6190236.967 7
  21796207.995   -12684769.446 7  -9884224.760 7
  24164805.866    -1040962.179 4   -811139.245 4
 92  4 11  6 41  0.0010000  0  5  3 16 20 17 23
  21417431.928   -13416654.880 8 -10454521.176 9
  22800424.610      -73443.197 6    -57220.193 5
  22160613.842     8034421.266 7   6260590.297 7
  21788368.729   -12725960.479 7  -9916321.660 7
  24146207.040    -1138719.319 4   -887313.541 5
 92  4 11  6 41 30.0010000  0  5  3 16 20 17 23
  21410854.173   -13451231.568 8 -10481464.047 9
  22815855.523        7626.261 6      5950.810 6
  22177867.466     8125086.853 7   6331238.757 7
  21780583.105   -12766870.060 7  -9948199.218 7
  24127626.502    -1236339.294 4   -963381.000 4
 92  4 11  6 42  0.0010000  0  5  3 16 20 17 23
  21404309.993   -13485623.415 8 -10508262.882 9
  22831358.680       89103.495 6     69439.552 6
  22195190.087     8216126.103 7   6402178.399 7
  21772851.158   -12807500.184 7  -9979859.031 8
  24109078.945    -1333807.893 4  -1039330.477 4
 92  4 11  6 42 30.0010000  0  5  3 16 20 17 23
  21397801.201   -13519830.729 8 -10534917.916 9
  22846946.681      170988.282 7    133245.868 6
  22212586.733     8307534.391 7   6473405.610 6
  21765171.701   -12847856.248 7 -10011305.275 7
  24090558.051    -1431107.415 5  -1115148.214 3
 92  4 11  6 43  0.0010000  0  5  3 16 20 17 23
  21391326.577   -13553851.321 8 -10561427.473 9
  22862597.956      253270.864 6    197362.170 6
  22230050.841     8399309.420 7   6544918.597 6
  21757540.476   -12887951.387 7 -10042548.206 8
  24072085.739    -1528227.471 5  -1190826.122 4
 92  4 11  6 43 30.0010000  0  5  3 16 20 17 23
  21384889.436   -13587688.051 8 -10587793.762 9
  22878329.571      335933.716 6    261774.771 6
  22247580.911     8491443.855 7   6616711.625 6
  21749962.614   -12927779.368 7 -10073582.960 7
  24053632.029    -1625177.528 5  -1266371.558 4
 92  4 11  6 44  0.0010000  0  5  3 16 20 17 23
  21378484.089   -13621332.076 8 -10614009.882 9
  22894129.522      418961.877 6    326472.038 6
  22265185.947     8583942.150 7   6688788.181 6
  21742433.020   -12967333.288 7 -10104404.154 7
  24035212.173    -1721945.047 5  -1341774.775 3
 92  4 11  6 44 30.0010000  0  5  3 16 20 17 23
  21372116.784   -13654781.135 8 -10640074.086 9
  22909999.622      502339.215 6    391441.377 6
  22282855.409     8676802.220 7   6761146.637 7
  21734961.290   -13006607.293 7 -10135007.241 8
  24016838.490    -1818535.020 5  -1417039.626 4
 92  4 11  6 45  0.0010000  0  5  3 16 20 17 23
  21365790.277   -13688043.265 8 -10665992.637 9
  22925926.122      586049.070 6    456669.827 6
  22300592.020     8770011.845 7   6833777.479 7
  21727544.424   -13045604.984 7 -10165395.018 7
  23998490.284    -1914956.549 5  -1492173.235 3
 92  4 11  6 45 30.0010000  0  5  3 16 20 17 23
  21359499.718   -13721110.024 8 -10691758.928 9
  22941914.360      670099.562 6    522163.714 5
  22318395.779     8863574.283 7   6906683.232 7
  21720174.046   -13084318.020 7 -10195560.994 7
  23980169.091    -2011205.594 5  -1567172.464 5
 92  4 11  6 46  0.0010000  0  5  3 16 20 17 23
  21353241.861   -13753978.030 8 -10717370.340 9
  22957968.526      754495.533 6    587926.798 5
  22336268.816     8957488.237 7   6979862.907 6
  21712862.998   -13122748.820 7 -10225507.038 7
  23961894.909    -2107274.177 5  -1642031.059 5
 92  4 11  6 46 30.0010000  0  5  3 16 20 17 23
  21347026.547   -13786646.077 8 -10742825.955 9
  22974106.348      839237.041 6    653959.142 6
  22354206.593     9051750.889 7   7053314.302 7
  21705601.125   -13160902.551 7 -10255237.182 8
  23943641.771    -2203165.399 5  -1716751.438 5
 92  4 11  6 47  0.0010000  0  5  3 16 20 17 23
  21340846.343   -13819114.894 8 -10768126.333 9
  22990294.566      924333.305 6    720267.907 5
  22372209.459     9146356.754 7   7127033.136 6
  21698392.300   -13198787.803 7 -10284758.118 7
  23925426.676    -2298882.695 5  -1791336.296 3
 92  4 11  6 47 30.0010000  0  5  3 16 20 17 23
  21334704.809   -13851388.345 8 -10793274.477 9
  23006546.616     1009781.168 6    786850.652 5
  22390272.842     9241297.447 7   7201012.862 7
  21691231.778   -13236417.223 7 -10314079.703 7
  23907250.564    -2394441.957 5  -1865798.005 4
 92  4 11  6 48  0.0010000  0  5  3 16 20 17 23
  21328601.002   -13883456.325 8 -10818262.521 9
  23022881.975     1095590.340 6    853714.928 6
  22408404.596     9336578.614 6   7275257.884 7
  21684120.988   -13273779.520 7 -10343193.139 7
  23889086.737    -2489838.332 5  -1940132.800 3
 92  4 11  6 48 30.0010000  0  5  3 16 20 17 23
  21322543.717   -13915319.562 8 -10843091.025 9
  23039289.647     1181764.217 6    920863.396 6
  22426599.903     9432194.463 7   7349763.709 7
  21677061.782   -13310878.424 7 -10372101.339 7
  23870961.266    -2585078.924 5  -2014346.194 4
 92  4 11  6 49  0.0010000  0  5  3 16 20 17 23
  21316514.876   -13946975.905 8 -10867758.304 9
  23055760.523     1268312.052 6    988303.252 5
  22444859.043     9528143.064 7   7424528.819 7
  21670053.844   -13347710.922 7 -10400801.961 8
  23852880.781    -2680165.837 5  -2088439.845 2
 92  4 11  6 49 30.0010000  0  5  3 16 20 17 23
  21310533.116   -13978426.061 8 -10892264.916 9
  23072303.679     1355223.375 6   1056026.342 6
  22463181.178     9624418.586 7   7499548.673 7
  21663093.860   -13384279.780 7 -10429297.139 8
  23834803.298    -2775091.451 5  -2162407.797 4
 92  4 11  6 50  0.0010000  0  5  3 16 20 17 23
  21304588.839   -14009666.280 8 -10916607.943 9
  23088909.795     1442495.002 6   1124030.203 6
  22481561.143     9721020.400 6   7574822.774 6
  21656183.644   -13420578.414 7 -10457581.755 8
  23816774.082    -2869843.560 5  -2236240.556 4
 92  4 11  6 50 30.0010000  0  5  3 16 20 17 23
  21298684.418   -14040686.611 8 -10940779.616 9
  23105579.743     1530126.370 6   1192314.363 6
  22500013.073     9817953.967 6   7650355.398 7
  21649333.072   -13456590.302 7 -10485642.928 8
  23798790.725    -2964402.034 5  -2309922.438 5
 92  4 11  6 51  0.0010000  0  5  3 16 20 17 23
  21292822.576   -14071490.752 8 -10964782.836 9
  23122318.934     1618102.950 6   1260867.521 6
  22518515.958     9915210.837 6   7726139.927 6
  21642534.677   -13492312.666 7 -10513478.514 8
  23780834.974    -3058757.589 5  -2383446.203 3
 92  4 11  6 51 30.0010000  0  5  3 16 20 17 23
  21286999.403   -14102078.661 8 -10988617.569 9
  23139129.218     1706406.174 6   1329675.205 5
  22537082.397    10012786.204 6   7802172.656 6
  21635790.237   -13527750.215 7 -10541092.159 8
  23762912.170    -3152907.448 5  -2456809.667 3
 92  4 11  6 52  0.0010000  0  5  3 16 20 17 23
  21281219.403   -14132449.978 8 -11012283.525 9
  23155985.954     1795027.449 6   1398730.723 5
  22555715.390    10110675.850 6   7878450.260 7
  21629100.382   -13562910.033 7 -10568489.389 7
  23745037.947    -3246857.802 5  -2530017.681 4
 92  4 11  6 52 30.0010000  0  5  3 16 20 17 23
  21275485.296   -14162603.303 8 -11035779.618 9
  23172916.434     1883963.587 6   1468031.600 6
  22574399.059    10208876.146 6   7954969.929 6
  21622462.982   -13597788.086 7 -10595667.074 8
  23727194.296    -3340615.203 5  -2603075.341 5
 92  4 11  6 53  0.0010000  0  5  3 16 20 17 23
  21269786.543   -14192539.400 8 -11059106.439 9
  23189893.088     1973212.242 6   1537575.981 6
  22593142.408    10307381.987 6   8031727.694 6
  21615874.443   -13632409.071 7 -10622644.436 8
  23709389.316    -3434182.634 5  -2675984.982 5
 92  4 11  6 53 30.0010000  0  5  3 16 20 17 23
  21264136.652   -14222250.475 8 -11082257.921 9
  23206937.762     2062780.493 6   1607369.394 6
  22611948.961    10406196.199 6   8108725.760 6
  21609332.357   -13666785.618 7 -10649431.326 9
  23691615.850    -3527554.551 5  -2748742.269 3
 92  4 11  6 54  0.0010000  0  5  3 16 20 17 23
  21258524.243   -14251736.239 8 -11105233.846 9
  23224047.526     2152674.686 6   1677416.803 6
  22630812.507    10505314.427 6   8185960.700 6
  21602839.759   -13700914.528 7 -10676025.243 8
  23673901.715    -3620715.882 5  -2821335.457 4
 92  4 11  6 54 30.0010000  0  5  3 16 20 17 23
  21252956.786   -14280997.925 8 -11128035.178 9
  23241214.248     2242896.595 6   1747719.561 5
  22649732.417    10604730.429 6   8263427.679 6
  21596392.113   -13734794.147 7 -10702424.916 8
  23656202.553    -3713662.260 5  -2893761.153 5
 92  4 11  6 55  0.0010000  0  5  3 16 20 17 23
  21247429.813   -14310032.391 8 -11150659.456 9
  23258445.431     2333450.752 6   1818281.218 6
  22668705.375    10704442.867 6   8341125.631 6
  21589991.547   -13768429.591 7 -10728634.322 8
  23638570.853    -3806377.668 5  -2966006.873 5
 92  4 11  6 55 30.0010000  0  5  3 16 20 17 23
  21241947.792   -14338836.081 8 -11173103.887 9
  23275751.230     2424335.249 6   1889100.266 5
  22687732.011    10804450.378 6   8419053.527 6
  21583641.064   -13801801.490 7 -10754638.356 8
  23620962.536    -3898866.306 5  -3038075.891 4
 92  4 11  6 56  0.0010000  0  5  3 16 20 17 23
  21236510.758   -14367409.542 8 -11195368.921 9
  23293101.737     2515539.924 6   1960168.817 5
  22706817.698    10904747.428 6   8497207.020 6
  21577343.316   -13834898.470 7 -10780428.196 9
  23603400.113    -3991134.623 5  -3109973.230 4
 92  4 11  6 56 30.0010000  0  5  3 16 20 17 23
  21231118.711   -14395753.502 8 -11217455.123 9
  23310505.573     2607059.029 6   2031482.382 5
  22725961.250    11005328.897 6   8575582.151 5
  21571097.743   -13867723.349 7 -10806006.002 8
  23585888.645    -4083196.636 5  -3181709.824 4
 92  4 11  6 57  0.0010000  0  5  3 16 20 17 23
  21225767.113   -14423863.648 8 -11239359.124 9
  23327988.283     2698886.618 6   2103036.315 5
  22745153.069    11106194.191 6   8654178.453 6
  21564903.718   -13900276.491 7 -10831372.055 9
  23568408.029    -4175052.938 5  -3253286.116 3
 92  4 11  6 57 30.0010000  0  5  3 16 20 17 23
  21220465.562   -14451744.407 8 -11261084.381 9
  23345509.034     2791003.836 6   2174815.921 5
  22764402.439    11207334.111 6   8732988.752 6
  21558756.775   -13932568.012 7 -10856534.249 8
  23550958.614    -4266714.811 5  -3324710.907 4
 92  4 11  6 58  0.0010000  0  5  3 16 20 17 23
  21215199.121   -14479391.659 8 -11282627.694 9
  23363096.655     2883407.209 6   2246818.524 5
  22783697.075    11308747.720 6   8812012.301 6
  21552662.600   -13964597.025 7 -10881491.895 8
  23533559.246    -4358175.913 5  -3395979.258 5
 92  4 11  6 58 30.0010000  0  5  3 16 20 17 23
  21209986.916   -14506795.334 8 -11303981.197 9
  23380735.265     2976093.300 6   2319041.429 6
  22803050.484    11410440.565 6   8891253.456 5
  21546618.473   -13996361.104 7 -10906243.109 9
  23516201.585    -4449420.646 5  -3467079.016 3
 92  4 11  6 59  0.0010000  0  5  3 16 20 17 23
  21204819.697   -14533959.039 8 -11325147.716 9
  23398416.698     3069048.670 6   2391474.158 5
  22822450.344    11512403.830 6   8970705.330 6
  21540623.834   -14027865.485 7 -10930791.962 9
  23498874.775    -4540447.091 5  -3538008.685 5
 92  4 11  6 59 30.0010000  0  5  3 16 20 17 23
  21199696.243   -14560876.353 8 -11346122.250 9
  23416165.036     3162274.321 6   2464117.481 5
  22841906.290    11614638.992 6   9050369.068 6
  21534680.151   -14059102.907 7 -10955132.796 9
  23481596.232    -4631240.791 5  -3608756.995 5
 92  4 11  7  0  0.0010000  0  5  3 16 20 17 23
  21194618.963   -14587550.673 8 -11366907.431 9
  23433952.915     3255775.346 6   2536975.409 4
  22861409.875    11717138.069 6   9130238.438 6
  21528784.734   -14090071.057 7 -10979263.817 9
  23464354.859    -4721798.829 5  -3679321.675 4
 92  4 11  7  0 30.0010000  0  5  3 16 20 17 23
  21189588.763   -14613975.134 8 -11387497.917 9
  23451801.067     3349561.180 6   2610055.247 5
  22880969.231    11819903.161 6   9210315.100 6
  21522943.588   -14120766.870 7 -11003182.616 8
  23447180.355    -4812107.870 5  -3749692.340 4
 92  4 11  7  1  0.0010000  0  5  3 16 20 17 23
  21184609.483   -14640147.149 8 -11407891.704 9
  23469710.366     3443647.023 6   2683368.852 5
  22900577.447    11922931.283 6   9290596.730 5
  21517155.490   -14151184.025 7 -11026884.276 8
  23430042.426    -4902173.434 5  -3819873.276 5
 92  4 11  7  1 30.0010000  0  5  3 16 20 17 23
  21179679.412   -14666067.817 8 -11428089.628 9
  23487679.029     3538036.820 6   2756919.285 4
  22920231.243    12026217.077 6   9371079.146 6
  21511421.349   -14181328.418 7 -11050373.382 8
  23412943.446    -4991995.664 5  -3889864.590 4
 92  4 11  7  2  0.0010000  0  5  3 16 20 17 23
  21174792.479   -14691739.697 8 -11448093.687 9
  23505689.364     3632721.799 6   2830699.768 4
  22939927.932    12129752.915 6   9451756.375 5
  21505736.975   -14211197.790 7 -11073648.197 9
  23395896.049    -5081584.725 5  -3959674.238 5
 92  4 11  7  2 30.0010000  0  5  3 16 20 17 23
  21169954.441   -14717157.976 8 -11467900.143 9
  23523760.251     3727697.363 6   2904706.637 5
  22959682.451    12233538.733 6   9532628.414 6
  21500103.870   -14240781.427 7 -11096700.360 9
  23378905.610    -5170941.385 5  -4029302.786 4
 92  4 11  7  3  0.0010000  0  5  3 16 20 17 23
  21165168.858   -14742317.588 8 -11487505.039 9
  23541894.378     3822969.708 6   2978944.772 5
  22979476.233    12337574.742 6   9613695.380 6
  21494525.943   -14270085.937 7 -11119535.020 9
  23361934.086    -5260066.390 5  -4098750.828 5
 92  4 11  7  3 30.0010000  0  5  3 16 20 17 23
  21160430.042   -14767218.076 8 -11506908.010 9
  23560069.617     3918528.146 6   3053405.887 5
  22999323.099    12441856.225 6   9694953.649 6
  21489005.288   -14299120.641 7 -11142159.435 9
  23345019.765    -5348962.116 6  -4168020.203 5
 92  4 11  7  4  0.0010000  0  5  3 16 20 17 23
  21155740.994   -14791860.948 8 -11526110.272 9
  23578313.471     4014368.231 6   3128086.403 5
  23019210.135    12546376.929 6   9776398.318 6
  21483529.863   -14327889.634 7 -11164576.807 9
  23328148.650    -5437635.917 6  -4237116.660 5
 92  4 11  7  4 30.0010000  0  5  3 16 20 17 23
  21151099.585   -14816237.997 8 -11545105.388 9
  23596607.093     4110498.242 6   3202992.852 4
  23039148.439    12651140.120 6   9858031.943 6
  21478098.832   -14356415.307 7 -11186804.574 9
  23311311.109    -5526077.157 6  -4306031.901 5
 92  4 11  7  5  0.0010000  0  5  3 16 20 17 23
  21146514.262   -14840347.446 8 -11563891.971 9
  23614957.113     4206900.723 6   3278111.623 4
  23059128.695    12756142.428 6   9939851.884 6
  21472714.253   -14384717.465 7 -11208858.179 9
  23294528.746    -5614283.094 6  -4374763.780 5
 92  4 11  7  5 30.0010000  0  5  3 16 20 17 23
  21141975.704   -14864192.695 8 -11582472.692 9
  23633334.077     4303549.349 5   3353422.213 5
  23079153.936    12861375.849 6  10021851.945 5
  21467374.940   -14412786.888 7 -11230730.428 8
  23277792.522    -5702240.128 6  -4443301.718 6
 92  4 11  7  6  0.0010000  0  5  3 16 20 17 23
  21137491.103   -14887771.943 8 -11600846.148 9
  23651771.035     4400432.280 5   3428915.366 5
  23099223.257    12966837.306 6  10104029.662 6
  21462078.799   -14440624.798 7 -11252422.277 9
  23261107.880    -5789930.300 6  -4511631.712 4
 92  4 11  7  6 30.0010000  0  5  3 16 20 17 23
  21133052.675   -14911091.423 8 -11619017.190 9
  23670248.442     4497529.140 5   3504575.210 5
  23119338.123    13072515.396 6  10186376.199 4
  21456821.642   -14468236.450 7 -11273937.826 9
  23244467.597    -5877358.948 5  -4579757.921 6
 92  4 11  7  7  0.0010000  0  5  3 16 20 17 23
  21128665.830   -14934142.597 8 -11636979.155 9
  23688780.085     4594847.391 6   3580407.586 4
  23139482.061    13178413.384 6  10268894.079 5
  21451620.849   -14495583.639 7 -11295247.293 9
  23227872.265    -5964520.952 5  -4647676.359 5
 92  4 11  7  7 30.0010000  0  5  3 16 20 17 23
  21124330.533   -14956923.811 8 -11654730.756 9
  23707335.460     4692401.580 6   3656423.819 4
  23159678.489    13284528.360 6  10351581.053 6
  21446468.602   -14522653.405 7 -11316340.595 9
  23211345.618    -6051419.096 6  -4715389.166 6
 92  4 11  7  8  0.0010000  0  5  3 16 20 17 23
  21120049.506   -14979426.582 8 -11672265.396 9
  23725946.885     4790211.887 6   3732639.597 4
  23179910.272    13390863.902 6  10434439.875 5
  21441369.439   -14549441.016 7 -11337214.035 9
  23194855.232    -6138075.741 5  -4782913.810 4
 92  4 11  7  8 30.0010000  0  5  3 16 20 17 23
  21115819.712   -15001646.468 8 -11689579.599 9
  23744613.453     4888284.521 6   3809059.777 4
  23200185.540    13497419.520 6  10517470.184 5
  21436326.640   -14575936.657 7 -11357859.968 9
  23178408.611    -6224492.692 6  -4850251.684 5
 92  4 11  7  9  0.0010000  0  5  3 16 20 17 23
  21111645.097   -15023585.599 8 -11706675.018 9
  23763328.881     4986612.308 6   3885678.820 4
  23220507.889    13604188.367 6  10600666.662 4
  21431340.799   -14602149.197 7 -11378285.302 9
  23162009.978    -6310660.813 6  -4917395.646 6
 92  4 11  7  9 30.0010000  0  5  3 16 20 17 23
  21107524.158   -15045246.932 8 -11723553.987 9
  23782084.515     5085182.682 6   3962486.854 3
  23240864.371    13711162.017 6  10684022.730 4
  21426402.003   -14628101.898 7 -11398508.162 9
  23145667.675    -6396569.191 6  -4984337.217 5
 92  4 11  7 10  0.0010000  0  5  3 16 20 17 23
  21103450.893   -15066631.199 8 -11740217.048 9
  23800882.378     5183987.225 6   4039477.386 4
  23261257.463    13818334.822 6  10767533.967 5
  21421509.695   -14653809.938 7 -11418540.389 9
  23129364.983    -6482208.881 6  -5051069.425 5
 92  4 11  7 10 30.0010000  0  5  3 16 20 17 23
  21099435.180   -15087731.511 8 -11756658.835 9
  23819734.546     5283031.349 6   4116654.573 2
  23281693.134    13925708.772 6  10851201.952 4
  21416665.061   -14679278.215 8 -11438385.769 9
  23113134.222    -6567544.471 6  -5117564.662 4
 92  4 11  7 11  0.0010000  0  5  3 16 20 17 23
  21095478.517   -15108545.635 8 -11772877.632 9
  23838628.944     5382326.952 6   4194027.761 4
  23302161.437    14033280.804 6  10935024.300 4
  21411862.377   -14704511.897 8 -11458048.360 9
  23096943.910    -6652578.493 6  -5183824.915 5
 92  4 11  7 11 30.0010000  0  5  3 16 20 17 23
  21091572.216   -15129070.339 8 -11788870.904 9
  23857574.645     5481882.022 6   4271603.098 3
  23322670.259    14141049.328 6  11018999.743 4
  21407105.867   -14729496.191 7 -11477516.619 9
  23080824.690    -6737323.566 6  -5249860.014 6
 92  4 11  7 12  0.0010000  0  5  3 16 20 17 23
  21087720.185   -15149305.512 8 -11804638.565 9
  23876569.800     5581693.097 5   4349377.961 3
  23343216.843    14249009.511 6  11103124.527 5
  21402399.717   -14754224.697 7 -11496785.561 9
  23064745.326    -6821798.457 6  -5315684.583 6
 92  4 11  7 12 30.0010000  0  5  3 16 20 17 23
  21083926.613   -15169256.901 8 -11820185.081 9
  23895606.906     5681747.313 5   4427342.289 4
  23363789.777    14357150.710 6  11187390.374 4
  21397744.244   -14778696.962 7 -11515854.845 9
  23048719.919    -6906017.938 6  -5381310.123 6
 92  4 11  7 13  0.0010000  0  5  3 16 20 17 23
  21080183.401   -15188911.223 8 -11835500.134 9
  23914689.592     5782034.401 6   4505488.060 4
  23384406.826    14465481.008 6  11271803.562 4
  21393140.353   -14802894.815 7 -11534710.296 9
  23032740.650    -6989993.763 6  -5446745.815 5
 92  4 11  7 13 30.0010000  0  5  3 16 20 17 23
  21076500.742   -15208267.132 8 -11850582.651 9
  23933807.073     5882525.073 5   4583792.504 4
  23405053.505    14573996.855 6  11356361.350 4
  21388588.289   -14826815.668 7 -11553349.904 9
  23016810.590    -7073721.956 6  -5511988.536 6
 92  4 11  7 14  0.0010000  0  5  3 16 20 17 23
  21072875.041   -15227324.548 8 -11865432.590 9
  23952971.914     5983200.610 6   4662240.971 4
  23425739.481    14682693.811 6  11441060.258 3
  21384083.306   -14850473.414 7 -11571784.491 9
  23000926.704    -7157194.063 6  -5577031.723 5
 92  4 11  7 14 30.0010000  0  5  3 16 20 17 23
  21069302.423   -15246085.026 8 -11880051.140 9
  23972151.414     6084043.812 5   4740820.097 4
  23446454.251    14791564.748 6  11525894.700 4
  21379630.185   -14873868.267 7 -11590014.218 9
  22985092.237    -7240398.114 6  -5641866.031 5
 92  4 11  7 15  0.0010000  0  5  3 16 20 17 23
  21065794.859   -15264533.979 8 -11894426.972 9
  23991375.900     6185055.825 5   4819530.759 4
  23467208.877    14900619.234 6  11610872.212 4
  21375236.429   -14896986.199 8 -11608028.181 9
  22969321.358    -7323303.043 6  -5706467.248 5
 92  4 11  7 15 30.0010000  0  5  3 16 20 17 23
  21062341.845   -15282683.986 8 -11908569.829 9
  24010645.093     6286241.850 5   4898377.001 4
  23487994.390    15009840.065 6  11695979.317 4
  21370884.031   -14919841.934 7 -11625837.822 9
  22953593.058    -7405893.192 6  -5770823.185 6
 92  4 11  7 16  0.0010000  0  5  3 16 20 17 23
  21058946.696   -15300529.935 8 -11922475.778 9
  24029922.314     6387628.070 5   4977379.267 5
  23508805.100    15119227.168 6  11781215.989 4
  21366584.437   -14942435.561 8 -11643443.226 9
  22937942.098    -7488162.763 6  -5834929.320 5
 92  4 11  7 16 30.0010000  0  5  3 16 20 17 23
  21055606.410   -15318068.140 8 -11936141.911 9
  24049265.531     6489237.271 5   5056555.271 3
  23529654.446    15228778.713 6  11866580.771 5
  21362332.761   -14964768.317 7 -11660845.358 9
  22922354.970    -7570106.243 6  -5898781.355 5
 92  4 11  7 17  0.0010000  0  5  3 16 20 17 23
  21052327.584   -15335291.198 8 -11949562.469 9
  24068644.417     6591094.203 5   5135924.347 4
  23550536.493    15338497.504 6  11952075.909 5
  21358136.263   -14986852.620 8 -11678053.879 9
  22906817.924    -7651730.665 6  -5962384.764 6
 92  4 11  7 17 30.0010000  0  5  3 16 20 17 23
  21049108.996   -15352205.440 8 -11962742.390 9
  24088086.856     6693198.906 6   5215486.459 5
  23571438.923    15448372.523 6  12037692.766 4
  21353974.246   -15008703.869 8 -11695080.806 9
  22891336.056    -7733067.330 6  -6025763.949 5
 92  4 11  7 18  0.0010000  0  5  3 16 20 17 23
  21045951.902   -15368804.260 8 -11975676.525 9
  24107545.210     6795537.965 5   5295231.189 4
  23592380.022    15558404.873 6  12123432.218 4
  21349862.591   -15030319.232 8 -11711923.923 9
  22875911.739    -7814131.736 6  -6088930.982 5
 92  4 11  7 18 30.0010000  0  5  3 16 20 17 23
  21042856.827   -15385089.064 8 -11988365.988 9
  24127075.773     6898083.587 6   5375136.847 4
  23613352.007    15668588.466 6  12209289.525 6
  21345792.014   -15051700.602 8 -11728584.709 9
  22860539.563    -7894917.733 6  -6151881.074 6
 92  4 11  7 19  0.0010000  0  5  3 16 20 17 23
  21039815.743   -15401051.216 8 -12000804.038 9
  24146613.246     7000821.239 5   5455192.188 4
  23634350.378    15778926.956 6  12295267.540 4
  21341771.798   -15072839.011 8 -11745056.190 9
  22845223.786    -7975418.735 6  -6214609.090 6
 92  4 11  7 19 30.0010000  0  5  3 16 20 17 23
  21036838.805   -15416689.038 8 -12012989.360 9
  24166197.207     7103732.693 5   5535382.949 5
  23655376.041    15889416.669 6  12381363.389 5
  21337798.662   -15093715.266 8 -11761323.384 9
  22829958.649    -8055616.142 6  -6277100.540 6
 92  4 11  7 20  0.0010000  0  5  3 16 20 17 23
  21033926.329   -15432006.655 8 -12024925.170 9
  24185816.521     7206805.101 5   5615699.109 4
  23676423.237    16000048.822 5  12467570.218 3
  21333876.482   -15114331.308 8 -11777387.821 9
  22814758.568    -8135490.865 6  -6339340.546 6
 92  4 11  7 20 30.0010000  0  5  3 16 20 17 23
  21031074.405   -15446993.925 8 -12036603.542 9
  24205465.502     7310051.278 5   5696150.667 4
  23697505.264    16110828.581 5  12553892.073 5
  21330001.347   -15134678.660 7 -11793242.874 9
  22799623.261    -8215029.520 6  -6401318.687 6
 92  4 11  7 21  0.0010000  0  5  3 16 20 17 23
  21028282.440   -15461654.684 8 -12048027.498 9
  24225147.183     7413486.906 5   5776749.872 3
  23718611.232    16221747.443 5  12640322.312 4
  21326181.983   -15154755.849 8 -11808887.421 9
  22784551.473    -8294256.137 6  -6463053.691 6
 92  4 11  7 21 30.0010000  0  5  3 16 20 17 23
  21025558.810   -15475977.569 8 -12059188.203 9
  24244865.441     7517125.964 5   5857507.583 5
  23739755.312    16332811.373 5  12726865.599 5
  21322414.795   -15174546.900 7 -11824309.012 9
  22769529.488    -8373170.025 6  -6524545.001 6
 92  4 11  7 22  0.0010000  0  5  3 16 20 17 23
  21022893.953   -15489971.006 8 -12070092.190 9
  24264617.272     7620964.985 5   5938421.113 5
  23760912.270    16444006.873 5  12813511.406 4
  21318698.561   -15194081.632 8 -11839530.865 9
  22754571.022    -8451787.353 6  -6585805.228 6
 92  4 11  7 22 30.0010000  0  5  3 16 20 17 23
  21020298.058   -15503630.423 8 -12080735.892 9
  24284423.653     7725002.863 5   6019489.594 3
  23782088.703    16555333.747 5  12900259.563 3
  21315029.130   -15213362.811 8 -11854555.150 9
  22739662.672    -8530121.109 6  -6646844.496 6
 92  4 11  7 23  0.0010000  0  5  3 16 20 17 23
  21017761.809   -15516956.769 8 -12091120.063 9
  24304253.418     7829232.626 5   6100707.593 4
  23803307.400    16666786.091 5  12987105.503 3
  21311402.521   -15232407.399 7 -11869395.076 9
  22724815.434    -8608156.789 6  -6707651.488 6
 92  4 11  7 23 30.0010000  0  5  3 16 20 17 23
  21015283.738   -15529952.788 8 -12101246.843 9
  24324128.169     7933622.965 5   6182050.739 4
  23824527.632    16778356.016 5  13074043.083 2
  21307820.619   -15251237.860 8 -11884068.144 9
  22710023.687    -8685872.996 6  -6768209.540 6
 92  4 11  7 24  0.0010000  0  5  3 16 20 17 23
  21012877.004   -15542611.395 8 -12111110.706 9
  24344016.985     8038172.077 5   6263517.575 4
  23845784.999    16890045.898 5  13161074.096 5
  21304278.853   -15269854.880 8 -11898574.905 9
  22695298.460    -8763256.262 6  -6828508.169 6
 92  4 11  7 24 30.0010000  0  5  3 16 20 17 23
  21010535.604   -15554925.038 8 -12120705.761 9
  24363934.000     8142876.679 5   6345105.601 3
  23867059.467    17001857.871 5  13248200.268 3
  21300786.576   -15288231.993 8 -11912894.717 9
  22680637.730    -8840303.609 6  -6888545.035 6
 92  4 11  7 25  0.0010000  0  5  3 16 20 17 23
  21008255.384   -15566892.890 8 -12130031.366 9
  24383895.095     8247739.854 5   6426817.155 4
  23888363.041    17113788.214 5  13335418.679 2
  21297332.375   -15306359.455 8 -11927020.009 9
  22666037.830    -8917016.815 6  -6948321.525 6
 92  4 11  7 25 30.0010000  0  5  3 16 20 17 23
  21006044.720   -15578514.029 8 -12139086.785 9
  24403880.131     8352760.071 5   6508651.086 3
  23909683.683    17225832.561 5  13422725.944 3
  21293938.098   -15324216.422 8 -11940934.512 9
  22651502.078    -8993419.242 6  -7007855.860 6
 92  4 11  7 26  0.0010000  0  5  3 16 20 17 23
  21003900.612   -15589791.990 8 -12147874.805 9
  24423900.591     8457942.549 5   6590611.465 5
  23931024.706    17337983.130 5  13510115.982 3
  21290590.623   -15341791.653 7 -11954629.469 9
  22637017.630    -9069517.453 6  -7067153.124 6
 92  4 11  7 26 30.0010000  0  5  3 16 20 17 23
  21001820.930   -15600716.453 8 -12156387.389 9
  24443943.807     8563291.615 5   6672701.647 2
  23952388.204    17450244.814 5  13597592.589 3
  21287299.512   -15359079.727 8 -11968100.683 9
  22622599.387    -9145293.625 6  -7126199.466 6
 92  4 11  7 27  0.0010000  0  5  3 16 20 17 23
  20999811.433   -15611291.711 8 -12164627.860 9
  24464020.003     8668797.082 5   6754913.676 3
  23973764.302    17562608.219 5  13685148.470 4
  21284063.858   -15376096.470 8 -11981360.476 9
  22608242.325    -9220741.104 6  -7184989.676 6
 92  4 11  7 27 30.0010000  0  5  3 16 20 17 23
  20997865.175   -15621510.938 8 -12172590.900 9
  24484126.179     8774456.288 5   6837245.542 4
  23995172.788    17675075.223 5  13772785.078 2
  21280879.158   -15392839.800 8 -11994407.215 9
  22593952.447    -9295830.166 6  -7243500.595 6
 92  4 11  7 28  0.0010000  0  5  3 16 20 17 23
  20995989.381   -15631371.151 8 -12180274.187 9
  24504264.463     8880263.316 5   6919692.556 4
  24016594.466    17787644.319 5  13860501.201 4
  21277743.633   -15409325.508 8 -12007253.209 9
  22579729.961    -9370555.354 6  -7301727.991 7
 92  4 11  7 28 30.0010000  0  5  3 16 20 17 23
  20994178.921   -15640871.988 8 -12187677.444 9
  24524424.002     8986207.723 5   7002246.623 3
  24038034.711    17900310.641 5  13948293.120 4
  21274648.872   -15425564.013 8 -12019906.563 9
  22565580.661    -9444929.697 6  -7359681.991 6
 92  4 11  7 29  0.0010000  0  5  3 16 20 17 23
  20992441.927   -15650015.231 8 -12194802.043 9
  24544606.016     9092286.883 5   7084905.718 4
  24059493.244    18013067.589 5  14036155.652 4
  21271607.160   -15441564.395 8 -12032374.373 9
  22551493.415    -9518962.949 6  -7417370.199 7
 92  4 11  7 29 30.0010000  0  5  3 16 20 17 23
  20990766.706   -15658798.467 8 -12201646.136 9
  24564819.546     9198503.668 5   7167672.028 2
  24080957.814    18125912.696 5  14124086.884 4
  21268601.150   -15457338.715 8 -12044666.032 9
  22537464.347    -9592674.437 6  -7474807.690 7
 92  4 11  7 30  0.0010000  0  5  3 16 20 17 23
  20989164.287   -15667217.809 8 -12208206.671 9
  24585066.614     9304852.683 5   7250541.377 4
  24102451.736    18238845.095 5  14212086.122 5
  21265642.187   -15472891.549 8 -12056785.095 9
  22523495.517    -9666077.234 6  -7532004.638 7
 92  4 11  7 30 30.0010000  0  5  3 16 20 17 23
  20987632.961   -15675274.846 8 -12214484.890 9
  24605313.090     9411335.545 5   7333515.043 4
  24123957.628    18351857.987 5  14300148.068 3
  21262721.927   -15488225.905 8 -12068733.935 9
  22509591.742    -9739159.349 6  -7588951.703 6
 92  4 11  7 31  0.0010000  0  5  3 16 20 17 23
  20986168.469   -15682964.532 8 -12220476.870 9
  24625609.962     9517968.805 5   7416605.885 5
  24145479.122    18464951.649 5  14388272.979 4
  21259848.400   -15503336.035 8 -12080508.050 9
  22495745.518    -9811913.788 6  -7645643.448 6
 92  4 11  7 31 30.0010000  0  5  3 16 20 17 23
  20984773.847   -15690286.725 8 -12226182.500 9
  24645932.869     9624751.292 5   7499813.029 2
  24167013.528    18578121.687 5  14476457.388 4
  21257019.580   -15518203.621 8 -12092093.179 9
  22481969.164    -9884331.411 6  -7702072.726 6
 92  4 11  7 32  0.0010000  0  5  3 16 20 17 23
  20983455.658   -15697237.564 8 -12231598.765 9
  24666278.008     9731687.914 5   7583140.235 2
  24188556.310    18691366.663 5  14564700.203 5
  21254239.900   -15532812.181 8 -12103476.461 9
  22468251.269    -9956382.546 6  -7758216.430 6
 92  4 11  7 32 30.0010000  0  5  3 16 20 17 23
  20982204.338   -15703818.211 8 -12236726.553 9
  24686661.468     9838787.803 5   7666594.681 4
  24210135.668    18804680.967 5  14652997.019 3
  21251508.487   -15547159.918 8 -12114656.507 9
  22454617.588   -10028057.190 6  -7814066.764 7
 92  4 11  7 33  0.0010000  0  5  3 16 20 17 23
  20981018.944   -15710028.057 8 -12241565.417 9
  24707074.349     9946040.694 5   7750168.318 3
  24231701.241    18918059.942 5  14741344.187 2
  21248829.844   -15561233.854 8 -12125623.213 9
  22441050.498   -10099357.553 6  -7869625.445 6
 92  4 11  7 33 30.0010000  0  5  3 16 20 17 23
  20979908.203   -15715867.033 8 -12246115.280 9
  24727517.488    10053428.722 5   7833847.297 4
  24253288.102    19031498.848 5  14829738.104 4
  21246203.656   -15575039.493 8 -12136380.851 9
  22427546.647   -10170277.362 6  -7924887.600 6
 92  4 11  7 34  0.0010000  0  5  3 16 20 17 23
  20978867.018   -15721332.757 8 -12250374.294 9
  24747965.444    10160952.414 5   7917632.007 4
  24274889.343    19144995.539 5  14918177.016 2
  21243625.142   -15588596.814 8 -12146944.991 9
  22414128.232   -10240827.288 6  -7979861.525 7
 92  4 11  7 34 30.0010000  0  5  3 16 20 17 23
  20977897.519   -15726424.736 8 -12254342.087 9
  24768456.851    10268593.006 5   8001507.796 3
  24296495.679    19258545.563 5  15006657.532 3
  21241088.893   -15601912.363 8 -12157320.743 9
  22400769.183   -10311030.362 6  -8034565.187 7
 92  4 11  7 35  0.0010000  0  5  3 16 20 17 23
  20977002.637   -15731141.847 8 -12258017.773 9
  24788955.761    10376328.591 5   8085457.591 4
  24318118.209    19372145.282 5  15095176.744 4
  21238600.631   -15614994.302 8 -12167514.455 9
  22387468.278   -10380907.219 6  -8089014.649 7
 92  4 11  7 35 30.0010000  0  5  3 16 20 17 23
  20976177.905   -15735470.662 8 -12261390.877 9
  24809473.867    10484159.794 4   8169481.901 2
  24339737.144    19485802.979 5  15183741.121 2
  21236154.599   -15627849.206 8 -12177531.256 9
  22374236.022   -10450455.327 6  -8143207.945 7
 92  4 11  7 36  0.0010000  0  5  3 16 20 17 23
  20975427.196   -15739414.900 8 -12264464.321 9
  24830008.445    10592073.163 4   8253570.243 1
  24361372.866    19599510.521 5  15272344.357 3
  21233752.088   -15640477.800 8 -12187371.718 9
  22361061.666   -10519685.211 6  -8197153.279 7
 92  4 11  7 36 30.0010000  0  5  3 16 20 17 23
  20974753.269   -15742975.986 8 -12267239.204 9
  24850557.403    10700051.156 4   8337708.921 2
  24383028.691    19713261.944 5  15360981.773 3
  21231391.807   -15652872.954 8 -12197030.282 9
  22347949.642   -10588594.094 6  -8250848.475 6
 92  4 11  7 37  0.0010000  0  5  3 16 20 17 23
  20974148.584   -15746148.326 8 -12269711.148 9
  24871115.679    10808103.370 4   8421905.433 2
  24404675.791    19827057.753 5  15449653.778 2
  21229079.513   -15665023.424 8 -12206498.184 9
  22334902.673   -10657160.988 6  -8304277.190 7
 92  4 11  7 37 30.0010000  0  5  3 16 20 17 23
  20973618.865   -15748930.497 8 -12271879.072 9
  24891694.651    10916252.329 4   8506177.321 1
  24426343.901    19940894.688 5  15538357.828 3
  21226816.988   -15676915.566 8 -12215764.795 9
  22321922.852   -10725368.150 6  -8357425.596 7
 92  4 11  7 38  0.0010000  0  5  3 16 20 17 23
  20973163.764   -15751320.979 8 -12273741.793 9
  24912302.660    11024514.434 5   8590537.381 2
  24448018.293    20054769.269 5  15627091.246 2
  21224607.511   -15688531.966 8 -12224816.541 9
  22309014.088   -10793206.207 6  -8410286.386 6
 92  4 11  7 38 30.0020000  0  5  3 16 20 17 23
  20972783.928   -15753322.506 8 -12275301.418 9
  24932929.606    11132899.689 5   8674993.456 1
  24469686.389    20168678.367 5  15715851.524 3
  21222447.788   -15699888.784 8 -12233666.007 9
  22296174.274   -10860672.567 6  -8462857.539 7
 92  4 11  7 39  0.0020000  0  5  3 16 20 17 23
  20972476.350   -15754929.718 8 -12276553.785 9
  24953575.692    11241410.268 4   8759547.132 2
  24491368.284    20282614.723 5  15804633.033 3
  21220331.879   -15710988.928 8 -12242315.477 9
  22283407.625   -10927752.295 6  -8515127.425 7
 92  4 11  7 39 30.0020000  0  5  3 16 20 17 23
  20972244.612   -15756144.038 8 -12277500.014 9
  24974254.479    11350044.779 5   8844197.311 2
  24513057.055    20396575.954 5  15893433.940 3
  21218268.984   -15721845.874 8 -12250775.436 9
  22270711.719   -10994454.750 6  -8567103.325 7
 92  4 11  7 40  0.0020000  0  5  3 16 20 17 23
  20972086.338   -15756960.265 8 -12278136.030 9
  24994939.269    11458781.275 5   8928927.060 2
  24534747.048    20510562.472 4  15982254.552 4
  21216247.481   -15732470.456 8 -12259054.334 9
  22258096.154   -11060780.111 7  -8618785.392 7
 92  4 11  7 40 30.0020000  0  5  3 16 20 17 23
  20972010.464   -15757378.691 8 -12278462.079 9
  25015645.942    11567604.656 4   9013724.496 2
  24556438.541    20624569.283 4  16071090.970 2
  21214265.276   -15742873.540 8 -12267160.639 9
  22245541.734   -11126734.449 7  -8670178.352 7
 92  4 11  7 41  0.0020000  0  5  3 16 20 17 23
  20972003.868   -15757392.558 8 -12278472.931 9
  25036371.495    11676519.472 5   9098593.160 3
  24578138.724    20738598.691 4  16159944.990 3
  21212331.303   -15753037.694 8 -12275080.758 9
  22233059.279   -11192317.615 7  -8721282.081 7
 92  4 11  7 41 30.0020000  0  5  3 16 20 17 23
  20972077.927   -15757010.021 8 -12278174.850 9
  25057121.898    11785524.301 5   9183531.995 3
  24599847.563    20852637.691 5  16248806.495 2
  21210443.225   -15762974.594 8 -12282823.782 9
  22220649.976   -11257546.649 7  -8772109.872 7
 92  4 11  7 42  0.0020000  0  5  3 16 20 17 23
  20972232.012   -15756219.681 8 -12277559.017 9
  25077873.558    11894622.878 5   9268543.859 3
  24621554.063    20966693.072 4  16337680.746 3
  21208597.690   -15772667.520 8 -12290376.713 9
  22208303.004   -11322407.901 7  -8822651.072 7
 92  4 11  7 42 30.0020000  0  5  3 16 20 17 23
  20972460.471   -15755015.680 8 -12276620.858 9
  25098655.755    12003817.805 5   9353630.783 3
  24643267.718    21080766.417 5  16426569.040 1
  21206799.549   -15782108.566 8 -12297733.349 9
  22196039.689   -11386888.862 7  -8872895.946 8
 92  4 11  7 43  0.0020000  0  5  3 16 20 17 23
  20972766.268   -15753397.401 8 -12275359.879 9
  25119449.958    12113108.799 4   9438792.571 4
  24664957.990    21194853.471 4  16515467.936 4
  21205053.550   -15791298.903 8 -12304894.639 9
  22183837.834   -11450987.574 7  -8922842.962 7
 92  4 11  7 43 30.0020000  0  5  3 16 20 17 23
  20973158.375   -15751363.043 8 -12273774.674 9
  25140260.669    12222480.327 4   9524017.134 3
  24686671.680    21308951.455 4  16604375.405 3
  21203352.538   -15800237.002 8 -12311859.376 9
  22171715.133   -11514709.232 7  -8972496.169 7
 92  4 11  7 44  0.0020000  0  5  3 16 20 17 23
  20973618.572   -15748912.507 8 -12271865.180 9
  25161093.227    12331909.431 5   9609286.541 3
  24708385.334    21423055.750 5  16693287.779 5
  21201699.479   -15808919.525 8 -12318624.955 9
  22159661.395   -11578049.016 7  -9021851.809 8
 92  4 11  7 44 30.0020000  0  5  3 16 20 17 23
  20974166.893   -15746049.966 8 -12269634.632 9
  25181918.317    12441394.689 4   9694599.683 4
  24730110.716    21537157.674 5  16782198.328 2
  21200090.499   -15817365.856 8 -12325206.520 9
  22147675.678   -11641024.801 7  -9070923.811 7
 92  4 11  7 45  0.0020000  0  5  3 16 20 17 23
  20974792.867   -15742768.471 8 -12267077.624 9
  25202771.572    12550952.989 4   9779969.671 3
  24751816.588    21651259.563 5  16871108.902 2
  21198530.973   -15825571.556 8 -12331600.559 9
  22135761.926   -11703636.710 7  -9119712.284 7
 92  4 11  7 45 30.0020000  0  5  3 16 20 17 23
  20975490.178   -15739071.047 8 -12264196.517 9
  25223629.049    12660572.706 4   9865387.643 3
  24773524.554    21765354.415 5  16960013.914 1
  21197013.398   -15833535.595 8 -12337806.284 9
  22123917.730   -11765885.632 7  -9168217.901 8
 92  4 11  7 46  0.0020000  0  5  3 16 20 17 23
  20976274.739   -15734950.985 8 -12260986.083 9
  25244511.096    12770259.287 3   9950857.653 4
  24795238.523    21879444.060 5  17048914.894 2
  21195546.532   -15841266.096 8 -12343830.048 9
  22112146.092   -11827750.597 7  -9216424.335 8
 92  4 11  7 46 30.0020000  0  5  3 16 20 17 23
  20977140.829   -15730406.845 8 -12257445.212 9
  25265400.019    12880015.682 3  10036382.107 3
  24816959.089    21993525.289 5  17137809.328 2
  21194118.616   -15848751.771 8 -12349663.038 9
  22100447.571   -11889224.646 7  -9264326.158 8
 92  4 11  7 47  0.0020000  0  5  3 16 20 17 23
  20978088.759   -15725440.910 8 -12253575.664 9
  25286275.784    12989838.023 4  10121957.880 4
  24838652.955    22107591.535 5  17226692.111 2
  21192745.563   -15855973.002 8 -12355289.977 9
  22088827.331   -11950291.368 7  -9311910.581 8
 92  4 11  7 47 30.0020000  0  5  3 16 20 17 23
  20979113.157   -15720039.959 8 -12249367.138 9
  25307199.782    13099729.470 4  10207587.558 2
  24860347.135    22221651.247 4  17315569.727 2
  21191422.592   -15862925.464 8 -12360707.487 9
  22077285.618   -12010937.898 7  -9359167.581 8
 92  4 11  7 48  0.0020000  0  4  3 20 17 23
  20980220.897   -15714209.602 8 -12244824.011 9
  24882073.704    22335694.709 5  17404434.751 2
  21190147.574   -15869634.801 8 -12365935.541 9
  22065822.744   -12071172.792 7  -9406103.831 7
 92  4 11  7 48 30.0020000  0  4  3 20 17 23
  20981415.573   -15707950.537 8 -12239946.821 9
  24903752.598    22449716.983 4  17493283.200 2
  21188916.915   -15876095.762 8 -12370970.054 9
  22054436.931   -12131005.569 7  -9452726.733 7
 92  4 11  7 49  0.0020000  0  4  3 20 17 23
  20982689.684   -15701261.307 8 -12234734.428 9
  24925447.371    22563714.275 4  17582112.229 3
  21187728.241   -15882332.848 8 -12375830.111 9
  22043125.456   -12190445.711 7  -9499043.693 7
 92  4 11  7 49 30.0020000  0  4  3 20 17 23
  20984043.855   -15694131.191 8 -12229178.502 9
  24947155.058    22677692.914 4  17670926.712 3
  21186582.739   -15888366.461 8 -12380531.622 9
  22031890.133   -12249496.974 7  -9545057.636 8
 92  4 11  7 50  0.0020000  0  4  3 20 17 23
  20985485.558   -15686564.504 8 -12223282.376 9
  24968816.537    22791644.406 4  17759720.029 1
  21185475.907   -15894184.888 8 -12385065.458 9
  22020726.775   -12308163.780 7  -9590771.987 8
 92  4 11  7 50 30.0020000  0  4  3 20 17 23
  20987009.101   -15678555.528 8 -12217041.621 9
  24990493.058    22905570.374 4  17848493.461 2
  21184411.932   -15899764.628 8 -12389413.297 9
  22009629.937   -12366444.858 7  -9636185.785 8
 92  4 11  7 51  0.0020000  0  4  3 20 17 23
  20988618.081   -15670105.234 8 -12210456.980 9
  25012177.920    23019465.396 4  17937242.806 2
  21183394.724   -15905110.635 8 -12393579.012 9
  21998617.070   -12424347.819 7  -9681304.942 8
 92  4 11  7 51 30.0020000  0  4  3 20 17 23
  20990308.309   -15661208.239 8 -12203524.268 9
  25033850.811    23133330.683 4  18025968.949 2
  21182426.726   -15910199.360 8 -12397544.269 9
  21987667.163   -12481863.288 7  -9726122.154 8
 92  4 11  7 52  0.0020000  0  4  3 20 17 23
  20992085.474   -15651875.430 8 -12196251.940 9
  25055501.820    23247150.814 4  18114659.866 2
  21181511.148   -15915016.621 8 -12401297.983 9
  21976799.063   -12538991.039 7  -9770637.251 8
 92  4 11  7 52 30.0020000  0  4  3 20 17 23
  20993944.795   -15642103.156 8 -12188637.184 9
  25077150.141    23360925.154 4  18203315.158 3
  21180640.556   -15919574.247 8 -12404849.382 9
  21965999.367   -12595731.630 7  -9814850.657 8
 92  4 11  7 53  0.0020000  0  4  3 20 17 23
  20995891.960   -15631877.946 8 -12180669.500 9
  25098800.277    23474663.124 4  18291942.086 1
  21179823.607   -15923874.101 8 -12408199.904 9
  21955280.885   -12652061.160 7  -9858743.766 8
 92  4 11  7 53 30.0020000  0  4  3 20 17 23
  20997923.340   -15621208.788 8 -12172355.883 9
  25120435.372    23588351.084 5  18380530.050 2
  21179049.864   -15927926.257 8 -12411357.393 9
  21944637.648   -12707979.748 7  -9902316.658 8
 92  4 11  7 54  0.0020000  0  4  3 20 17 23
  21000038.062   -15610084.387 8 -12163687.532 9
  25142061.217    23701996.440 4  18469084.785 3
  21178327.949   -15931732.634 8 -12414323.370 9
  21934078.347   -12763487.636 7  -9945569.520 8
 92  4 11  7 54 30.0020000  0  4  3 20 17 23
  21002241.536   -15598508.690 7 -12154667.512 9
  25163673.556    23815590.900 4  18557599.881 2
  21177644.738   -15935326.030 8 -12417123.406 9
  21923589.510   -12818601.362 7  -9988515.257 8
 92  4 11  7 55  0.0020000  0  4  3 20 17 23
  21004528.980   -15586480.768 8 -12145295.121 9
  25185279.578    23929131.247 5  18646072.806 3
  21177001.662   -15938703.279 8 -12419755.042 9
  21913181.606   -12873315.564 7 -10031149.659 8
 92  4 11  7 55 30.0020000  0  4  3 20 17 23
  21006904.827   -15573999.824 8 -12135569.725 9
  25206874.537    24042613.888 5  18734500.759 3
  21176402.073   -15941855.903 8 -12422211.641 9
  21902845.389   -12927636.992 7 -10073478.012 8
 92  4 11  7 56  0.0020000  0  4  3 20 17 23
  21009368.205   -15561057.399 8 -12125484.734 9
  25228463.806    24156042.834 4  18822886.881 3
  21175846.563   -15944784.548 8 -12424493.707 9
  21892580.193   -12981557.199 7 -10115493.734 8
 92  4 11  7 56 30.0020000  0  4  3 20 17 23
  21011921.241   -15547655.828 8 -12115041.965 9
  25250045.258    24269412.443 5  18911226.781 3
  21175332.409   -15947478.441 8 -12426592.851 9
  21882399.213   -13035061.341 7 -10157185.243 8
 92  4 11  7 57  0.0020000  0  4  3 20 17 23
  21014554.340   -15533798.404 8 -12104243.996 9
  25271583.259    24382714.259 4  18999513.838 4
  21174868.652   -15949918.725 8 -12428494.373 9
  21872298.015   -13088142.713 7 -10198547.331 8
 92  4 11  7 57 30.0020000  0  4  3 20 17 23
  21017279.435   -15519480.608 8 -12093087.298 9
  25293154.207    24495949.156 4  19087748.695 1
  21174455.222   -15952104.045 8 -12430197.215 9
  21862281.345   -13140798.368 7 -10239577.679 8
 92  4 11  7 58  0.0020000  0  4  3 20 17 23
  21020094.505   -15504706.301 8 -12081574.872 9
  25314678.701    24609109.440 4  19175925.484 2
  21174082.590   -15954041.001 8 -12431706.518 9
  21852340.236   -13193033.113 7 -10280280.039 8
 92  4 11  7 58 30.0020000  0  4  3 20 17 23
  21022992.881   -15489476.424 8 -12069707.452 9
  25336201.102    24722189.905 4  19264040.063 1
  21173761.820   -15955727.641 8 -12433020.766 9
  21842480.060   -13244852.436 7 -10320658.711 8
 92  4 11  7 59  0.0020000  0  4  3 20 17 23
  21025977.915   -15473772.676 8 -12057470.794 9
  25357713.625    24835204.654 4  19352103.450 1
  21173487.503   -15957166.892 8 -12434142.250 9
  21832697.852   -13296249.945 7 -10360708.688 7
 92  4 11  7 59 30.0020000  0  4  3 20 17 23
  21029053.481   -15457604.137 8 -12044871.945 9
  25379187.445    24948140.616 3  19440105.391 3
  21173258.765   -15958382.676 8 -12435089.608 9
  21822994.170   -13347241.787 7 -10400442.570 8
 92  4 11  8  0  0.0020000  0  4  3 20 17 23
  21032220.800   -15440962.276 8 -12031904.285 9
  25400665.487    25061002.721 4  19528049.734 2
  21173069.291   -15959363.368 8 -12435853.773 9
  21813368.420   -13397817.648 7 -10439852.305 8
 92  4 11  8  0 30.0020000  0  5  3 20 17 23 21
  21035480.152   -15423845.178 8 -12018566.296 9
  25422140.806    25173788.530 4  19615934.737 2
  21172926.304   -15960116.139 8 -12436440.367 9
  21803824.826   -13447976.883 7 -10478937.391 8
  24727567.277     -220729.377 4   -171996.598 4
 92  4 11  8  1  0.0020000  0  4  3 17 23 21
  21038825.219   -15406256.790 8 -12004861.080 9
  21172830.641   -15960641.492 8 -12436849.743 9
  21794356.792   -13497731.305 7 -10517707.037 8
  24709865.706     -313730.867 4   -244465.248 2
 92  4 11  8  1 30.0020000  0  4  3 17 23 21
  21042264.727   -15388191.428 8 -11990784.191 9
  21172774.905   -15960925.357 8 -12437070.955 9
  21784966.969   -13547080.165 7 -10556160.646 8
  24692177.956     -406559.421 4   -316799.160 3
 92  4 11  8  2  0.0020000  0  4  3 17 23 21
  21045789.706   -15369654.614 8 -11976339.918 9
  21172762.900   -15960970.544 8 -12437106.234 9
  21775650.019   -13596037.247 7 -10594308.983 8
  24674560.042     -499201.850 4   -388988.035 2
 92  4 11  8  2 30.0020000  0  4  3 17 23 21
  21049408.497   -15350638.558 8 -11961522.209 9
  21172806.072   -15960762.157 8 -12436943.834 9
  21766407.720   -13644604.305 7 -10632153.402 8
  24656974.829     -591641.108 4   -461018.599 2
 92  4 11  8  3  0.0020000  0  4  3 17 23 21
  21053122.043   -15331143.300 8 -11946331.105 9
  21172895.103   -15960282.641 8 -12436570.204 9
  21757239.481   -13692774.902 7 -10669688.898 8
  24639406.997     -683893.299 4   -532903.397 2
 92  4 11  8  3 30.0020000  0  4  3 17 23 21
  21056920.711   -15311168.565 8 -11930766.380 9
  21173042.906   -15959524.168 8 -12435979.197 9
  21748151.861   -13740534.015 7 -10706903.763 8
  24621885.024     -775963.576 4   -604646.440 4
 92  4 11  8  4  0.0020000  0  4  3 17 23 21
  21060809.597   -15290718.381 8 -11914831.179 9
  21173236.883   -15958485.319 8 -12435169.712 9
  21739140.394   -13787871.719 7 -10743790.251 9
  24604405.909     -867871.475 4   -676262.935 3
 92  4 11  8  4 30.0020000  0  4  3 17 23 21
  21064794.459   -15269787.121 8 -11898521.134 9
  21173485.409   -15957166.451 8 -12434142.022 9
  21730215.899   -13834769.811 7 -10780334.207 9
  24586946.024     -959626.095 4   -747759.996 3
 92  4 11  8  5  0.0020000  0  4  3 17 23 21
  21068870.411   -15248376.027 8 -11881837.173 8
  21173790.299   -15955590.628 8 -12432914.097 9
  21721379.493   -13881219.020 7 -10816528.360 8
  24569522.365    -1051225.729 4   -819136.282 3
 92  4 11  8  5 30.0020000  0  4  3 17 23 21
  21073034.242   -15226484.948 8 -11864779.209 9
  21174133.859   -15953788.233 8 -12431509.622 9
  21712626.777   -13927224.428 7 -10852376.699 9
  24552112.841    -1142664.991 4   -890387.626 3
 92  4 11  8  6  0.0020000  0  4  3 17 23 21
  21077295.202   -15204106.773 8 -11847341.683 9
  21174513.401   -15951783.620 8 -12429947.587 9
  21703954.962   -13972784.853 7 -10887878.299 9
  24534744.046    -1233939.416 4   -961510.526 4
 92  4 11  8  6 30.0020000  0  4  3 17 23 21
  21081643.970   -15181243.640 7 -11829526.277 9
  21174931.299   -15949588.469 8 -12428237.076 9
  21695370.711   -14017908.442 7 -10923039.496 8
  24517414.235    -1325033.025 4  -1032492.519 2
 92  4 11  8  7  0.0020000  0  4  3 17 23 21
  21086088.122   -15157899.217 7 -11811335.832 9
  21175383.399   -15947207.289 8 -12426381.588 9
  21686865.300   -14062604.573 7 -10957867.616 9
  24500106.027    -1415946.146 4  -1103333.874 2
 92  4 11  8  7 30.0020000  0  4  3 17 23 21
  21090620.362   -15134073.075 7 -11792770.019 9
  21175873.541   -15944627.734 8 -12424371.531 9
  21678437.543   -14106886.104 7 -10992372.662 8
  24482844.272    -1506683.709 4  -1174038.425 2
 92  4 11  8  8  0.0020000  0  4  3 17 23 21
  21095247.671   -15109759.829 7 -11773824.641 9
  21176411.670   -15941808.576 8 -12422174.765 9
  21670088.312   -14150753.265 7 -11026554.825 8
  24465600.525    -1597240.489 4  -1244602.117 3
 92  4 11  8  8 30.0020000  0  4  3 17 23 21
  21099969.386   -15084954.158 7 -11754495.549 9
  21176996.288   -15938721.689 8 -12419769.378 9
  21661823.330   -14194203.727 7 -11060412.278 8
  24448422.426    -1687603.907 4  -1315015.138 3
 92  4 11  8  9  0.0020000  0  4  3 17 23 21
  21104781.947   -15059660.502 8 -11734786.236 9
  21177636.920   -15935377.049 8 -12417163.158 9
  21653631.814   -14237244.025 7 -11093950.135 8
  24431259.892    -1777782.436 4  -1385284.093 3
 92  4 11  8  9 30.0020000  0  4  3 17 23 21
  21109685.074   -15033871.464 8 -11714690.885 9
  21178322.260   -15931763.075 8 -12414347.071 9
  21645524.513   -14279855.761 7 -11127154.052 8
  24414123.744    -1867765.048 4  -1455400.374 3
 92  4 11  8 10  0.0020000  0  4  3 17 23 21
  21114690.390   -15007588.752 8 -11694210.864 9
  21179059.427   -15927891.943 8 -12411330.607 9
  21637499.681   -14322029.800 7 -11160016.894 9
  24397042.493    -1957553.112 4  -1525365.067 2
 92  4 11  8 10 30.0020000  0  4  3 17 23 21
  21119782.992   -14980819.767 7 -11673351.914 9
  21179839.207   -15923802.778 8 -12408144.274 9
  21629552.468   -14363769.330 7 -11192541.165 9
  24379989.094    -2047151.311 4  -1595181.801 3
 92  4 11  8 11  0.0020000  0  4  3 17 23 21
  21124972.372   -14953557.657 8 -11652108.706 9
  21180656.750   -15919490.395 8 -12404783.965 9
  21621694.321   -14405069.877 7 -11224723.371 9
  24362985.148    -2136562.416 4  -1664852.768 4
 92  4 11  8 11 30.0020000  0  4  3 17 23 21
  21130253.541   -14925802.783 8 -11630481.538 9
  21181523.747   -15914943.662 8 -12401241.065 9
  21613918.295   -14445941.880 7 -11256571.657 8
  24346003.713    -2225797.667 4  -1734386.688 3
 92  4 11  8 12  0.0020000  0  4  3 17 23 21
  21135631.210   -14897551.335 8 -11608467.439 9
  21182430.600   -15910169.185 8 -12397520.682 9
  21606219.922   -14486394.035 7 -11288092.789 9
  24329053.164    -2314851.223 4  -1803779.050 3
 92  4 11  8 12 30.0020000  0  4  3 17 23 21
  21141099.131   -14868802.373 7 -11586065.668 9
  21183387.255   -15905170.238 8 -12393625.401 9
  21598604.298   -14526424.798 7 -11319285.550 9
  24312143.938    -2403715.850 5  -1873024.183 2
 92  4 11  8 13  0.0020000  0  4  3 17 23 21
  21146665.960   -14839554.349 7 -11563275.007 9
  21184378.358   -15899939.680 8 -12389549.641 9
  21591062.104   -14566037.429 7 -11350152.492 9
  24295268.950    -2492393.794 4  -1942123.840 3
 92  4 11  8 13 30.0020000  0  4  3 17 23 21
  21152329.951   -14809805.814 7 -11540094.329 8
  21185417.728   -15894490.992 8 -12385303.916 9
  21583608.383   -14605220.824 7 -11380684.977 9
  24278433.782    -2580867.380 5  -2011064.276 2
 92  4 11  8 14  0.0020000  0  4  3 17 23 21
  21158082.660   -14779550.510 7 -11516518.764 9
  21186494.302   -15888828.322 8 -12380891.461 9
  21576235.876   -14643964.002 7 -11410874.444 9
  24261635.225    -2669120.306 5  -2079832.739 2
 92  4 11  8 14 30.0020000  0  4  3 17 23 21
  21163938.499   -14748787.196 7 -11492547.364 9
  21187611.918   -15882944.178 8 -12376306.406 9
  21568944.616   -14682276.266 7 -11440728.125 9
  24244882.807    -2757161.911 5  -2148436.555 2
 92  4 11  8 15  0.0020000  0  4  3 17 23 21
  21169885.184   -14717520.819 7 -11468183.961 8
  21188776.301   -15876828.695 8 -12371541.093 9
  21561732.511   -14720167.558 7 -11470253.776 9
  24228176.283    -2844998.442 5  -2216880.587 3
 92  4 11  8 15 30.0020000  0  4  3 17 23 21
  21175931.999   -14685749.563 7 -11443427.138 9
  21189985.985   -15870476.966 8 -12366591.704 9
  21554607.343   -14757636.414 7 -11499450.258 9
  24211502.739    -2932621.300 5  -2285158.098 3
 92  4 11  8 16  0.0020000  0  4  3 17 23 21
  21182072.661   -14653478.027 7 -11418280.493 8
  21191238.213   -15863878.632 8 -12361450.154 9
  21547549.951   -14794693.657 7 -11528325.996 9
  24194867.237    -3020045.880 5  -2353281.142 2
 92  4 11  8 16 30.0020000  0  4  3 17 23 21
  21188308.356   -14620710.435 7 -11392747.315 8
  21192543.210   -15857030.487 8 -12356113.931 9
  21540580.369   -14831336.991 7 -11556879.208 9
  24178261.435    -3107276.823 5  -2421253.264 2
 92  4 11  8 17  0.0020000  0  4  3 17 23 21
  21194643.867   -14587435.972 7 -11366819.172 8
  21193898.254   -15849915.787 8 -12350570.049 9
  21533690.535   -14867540.627 7 -11585089.788 9
  24161698.491    -3194286.248 5  -2489052.793 2
 92  4 11  8 17 30.0020000  0  4  3 17 23 21
  21201072.597   -14553657.285 7 -11340498.132 8
  21195299.507   -15842546.007 8 -12344827.396 9
  21526884.042   -14903310.118 7 -11612962.088 9
  24145181.127    -3281075.641 5  -2556680.842 2
 92  4 11  8 18  0.0020000  0  4  3 17 23 21
  21207593.988   -14519377.885 7 -11313786.935 8
  21196751.400   -15834925.605 8 -12338889.417 9
  21520157.018   -14938644.122 7 -11640495.046 9
  24128705.155    -3367657.863 5  -2624147.484 2
 92  4 11  8 18 30.0020000  0  4  3 17 23 21
  21214211.599   -14484594.955 7 -11286683.377 9
  21198249.152   -15827047.715 8 -12332750.802 9
  21513515.116   -14973543.492 7 -11667689.338 9
  24112278.916    -3454031.277 5  -2691451.406 4
 92  4 11  8 19  0.0020000  0  4  3 17 23 21
  21220929.654   -14449303.877 7 -11259183.856 8
  21199794.578   -15818917.225 8 -12326415.370 9
  21506960.431   -15008010.224 7 -11694546.517 9
  24095876.061    -3540199.900 5  -2758595.738 3
 92  4 11  8 19 30.0020000  0  4  3 17 23 21
  21227739.148   -14413507.341 7 -11231290.466 9
  21201390.994   -15810549.525 8 -12319895.107 9
  21500483.119   -15042049.981 7 -11721070.983 9
  24079511.596    -3626188.627 5  -2825599.905 3
 92  4 11  8 20  0.0020000  0  4  3 17 23 21
  21234647.270   -14377201.442 7 -11203000.176 8
  21203026.952   -15801946.264 8 -12313191.280 9
  21494089.150   -15075655.111 7 -11747256.775 9
  24063188.208    -3711996.822 5  -2892463.399 3
 92  4 11  8 20 30.0020000  0  4  3 17 23 21
  21241653.393   -14340388.570 7 -11174314.842 8
  21204704.581   -15793113.466 8 -12306308.598 9
  21487773.707   -15108831.793 7 -11773108.701 9
  24046889.391    -3797614.400 5  -2959178.348 4
 92  4 11  8 21  0.0020000  0  4  3 17 23 21
  21248757.307   -14303072.420 7 -11145237.353 8
  21206429.012   -15784067.489 8 -12299259.827 9
  21481541.641   -15141576.704 7 -11798624.181 9
  24030640.027    -3883035.499 5  -3025740.213 2
 92  4 11  8 21 30.0020000  0  4  3 17 23 21
  21255954.719   -14265245.560 7 -11115761.896 8
  21208192.391   -15774795.408 8 -12292034.835 9
  21475394.104   -15173880.735 7 -11823796.121 9
  24014423.051    -3968239.076 5  -3092132.592 4
 92  4 11  8 22  0.0020000  0  4  3 17 23 21
  21263250.166   -14226909.281 7 -11085889.486 9
  21210001.629   -15765292.555 8 -12284630.054 9
  21469329.001   -15205751.986 7 -11848630.828 9
  23998257.658    -4053209.519 5  -3158343.267 3
 92  4 11  8 22 30.0020000  0  4  3 17 23 21
  21270641.241   -14188057.785 7 -11055615.622 8
  21211856.727   -15755544.883 8 -12277034.476 9
  21463346.648   -15237187.597 7 -11873126.090 9
  23982137.217    -4137941.211 5  -3224367.937 4
 92  4 11  8 23  0.0020000  0  4  3 17 23 21
  21278129.757   -14148693.933 7 -11024942.501 8
  21213756.218   -15745561.124 8 -12269254.903 9
  21457445.228   -15268198.288 7 -11897290.252 9
  23966046.755    -4222444.245 5  -3290214.413 2
 92  4 11  8 23 30.0020000  0  4  3 17 23 21
  21285719.590   -14108816.992 7 -10993869.566 8
  21215702.476   -15735336.551 8 -12261287.690 9
  21451625.057   -15298790.055 7 -11921127.971 9
  23950003.967    -4306719.290 5  -3355883.248 3
 92  4 11  8 24  0.0020000  0  4  3 17 23 21
  21293407.179   -14068419.650 7 -10962391.131 8
  21217693.406   -15724871.977 8 -12253133.472 9
  21445884.320   -15328954.244 7 -11944632.509 9
  23934019.009    -4390769.875 5  -3421377.172 3
 92  4 11  8 24 30.0020000  0  4  3 17 23 21
  21301193.675   -14027503.763 7 -10930508.636 8
  21219727.788   -15714179.830 8 -12244801.945 9
  21440228.146   -15358682.044 7 -11967797.005 9
  23918072.756    -4474594.848 5  -3486695.288 4
 92  4 11  8 25  0.0020000  0  4  3 17 23 21
  21309077.335   -13986075.122 7 -10898226.577 7
  21221802.339   -15703273.565 8 -12236303.574 9
  21434653.185   -15387976.465 7 -11990623.816 9
  23902156.168    -4558202.480 5  -3551844.051 3
 92  4 11  8 25 30.0020000  0  4  3 17 23 21
  21317058.401   -13944129.633 7 -10865541.814 8
  21223919.190   -15692145.474 8 -12227632.368 9
  21429164.010   -15416813.549 7 -12013094.237 9
  23886293.850    -4641588.761 5  -3616820.328 3
 92  4 11  8 26  0.0020000  0  4  3 17 23 21
  21325139.318   -13901676.177 7 -10832461.213 8
  21226077.398   -15680809.456 8 -12218799.113 9
  21423764.738   -15445203.829 7 -12035216.509 9
  23870464.513    -4724766.801 5  -3681634.344 3
 92  4 11  8 26 30.0020000  0  4  3 17 23 21
  21333314.640   -13858710.932 7 -10798981.818 8
  21228273.369   -15669252.272 8 -12209793.530 9
  21418445.213   -15473151.027 7 -12056993.525 9
  23854677.162    -4807723.177 5  -3746275.653 3
 92  4 11  8 27  0.0020000  0  4  3 17 23 21
  21341587.719   -13815229.078 7 -10765099.867 7
  21230519.421   -15657459.608 8 -12200604.453 9
  21413210.846   -15500656.197 7 -12078426.109 9
  23838937.135    -4890455.608 5  -3810742.423 3
 92  4 11  8 27 30.0020000  0  4  3 17 23 21
  21349959.740   -13771233.007 7 -10730817.242 8
  21232810.146   -15645429.544 8 -12191230.361 9
  21408057.727   -15527728.539 7 -12099521.440 9
  23823237.628    -4972958.280 5  -3875030.197 3
 92  4 11  8 28  0.0020000  0  4  3 17 23 21
  21358432.449   -13726719.666 7 -10696131.534 7
  21235147.009   -15633152.110 8 -12181663.551 9
  21402988.823   -15554383.600 7 -12120291.602 9
  23807577.942    -5055226.295 5  -3939135.095 4
 92  4 11  8 28 30.0020000  0  4  3 17 23 21
  21367001.134   -13681687.085 7 -10661041.224 8
  21237532.454   -15620621.555 8 -12171899.486 9
  21397998.479   -15580611.537 7 -12140728.921 9
  23791970.153    -5137250.196 5  -4003049.777 3
 92  4 11  8 29  0.0020000  0  4  3 17 23 21
  21375668.133   -13636138.627 7 -10625548.935 8
  21239960.198   -15607849.373 8 -12161947.128 9
  21393087.569   -15606408.968 7 -12160830.799 9
  23776401.628    -5219037.569 5  -4066780.185 2
 92  4 11  8 29 30.0020000  0  4  3 17 23 21
  21384435.577   -13590074.614 7 -10589654.922 7
  21242436.454   -15594835.816 8 -12151806.703 9
  21388261.223   -15631775.183 7 -12180596.660 9
  23760893.061    -5300588.379 5  -4130326.230 2
 92  4 11  8 30  0.0020000  0  4  3 17 23 21
  21393299.833   -13543490.905 7 -10553355.960 7
  21244959.232   -15581582.410 8 -12141479.398 9
  21383516.997   -15656703.146 7 -12200021.031 9
  23745420.197    -5381892.677 5  -4193680.180 4
 92  4 11  8 30 30.0020000  0  4  3 17 23 21
  21402260.939   -13496389.560 7 -10516653.620 8
  21247526.054   -15568096.436 8 -12130970.870 9
  21378857.929   -15681195.958 7 -12219106.326 9
  23729987.469    -5462946.599 5  -4256839.033 4
 92  4 11  8 31  0.0020000  0  4  3 17 23 21
  21411320.359   -13448764.977 7 -10479543.589 7
  21250138.422   -15554377.061 8 -12120280.457 9
  21374273.198   -15705259.871 7 -12237857.410 9
  23714617.107    -5543752.928 5  -4319804.968 3
 92  4 11  8 31 30.0020000  0  4  3 17 23 21
  21420487.098   -13400625.751 7 -10442032.525 7
  21252790.715   -15540424.115 8 -12109408.046 9
  21369776.626   -15728913.755 7 -12256289.004 9
  23699280.635    -5624317.836 5  -4382582.791 4
 92  4 11  8 32  0.0020000  0  4  3 17 23 21
  21429743.810   -13351964.741 7 -10404114.889 7
  21255493.614   -15526233.779 8 -12098350.662 9
  21365353.763   -15752163.537 7 -12274405.705 9
  23683996.024    -5704641.847 5  -4445172.894 4
 92  4 11  8 32 30.0020000  0  4  3 17 23 21
  21439104.212   -13302786.326 7 -10365794.070 6
  21258236.719   -15511812.682 8 -12087113.470 9
  21361003.180   -15775009.507 7 -12292207.749 9
  23668752.770    -5784742.653 5  -4507589.051 4
 92  4 11  8 33  0.0020000  0  4  3 17 23 21
  21448560.555   -13253084.254 7 -10327065.199 7
  21261027.497   -15497151.288 8 -12075689.021 9
  21356736.532   -15797431.678 7 -12309679.560 9
  23653552.095    -5864618.248 5  -4569829.736 4
 92  4 11  8 33 30.0020000  0  4  3 17 23 21
  21458115.561   -13202873.043 7 -10287939.601 8
  21263861.727   -15482263.360 8 -12064088.032 9
  21352549.038   -15819437.355 7 -12326826.832 9
  23638397.593    -5944275.791 5  -4631900.524 4
 92  4 11  8 34  0.0020000  0  4  3 17 23 21
  21467765.881   -13152148.558 7 -10248414.063 7
  21266731.938   -15467160.811 8 -12052319.823 9
  21348440.070   -15841012.044 7 -12343638.267 9
  23623282.947    -6023706.794 5  -4693794.764 3
 92  4 11  8 34 30.0020000  0  4  3 17 23 21
  21477523.205   -13100904.127 7 -10208483.370 7
  21269652.232   -15451830.318 8 -12040374.005 9
  21344424.670   -15862141.582 7 -12360102.832 9
  23608210.286    -6102893.047 5  -4755498.312 3
 92  4 11  8 35  0.0020000  0  4  3 17 23 21
  21487370.502   -13049142.545 7 -10168149.691 7
  21272613.569   -15436268.669 8 -12028248.083 9
  21340485.982   -15882834.439 7 -12376227.125 9
  23593192.769    -6181824.934 6  -4817003.647 4
 92  4 11  8 35 30.0020000  0  4  3 17 23 21
  21497319.430   -12996863.137 7 -10127412.516 7
  21275616.612   -15420482.428 8 -12015947.127 9
  21336631.857   -15903100.378 7 -12392018.760 9
  23578218.737    -6260491.995 5  -4878302.630 3
 92  4 11  8 36  0.0020000  0  4  3 17 23 21
  21507363.356   -12944060.925 7 -10086267.944 7
  21278663.978   -15404464.367 8 -12003465.540 9
  21332853.256   -15922938.516 7 -12407477.051 9
  23563311.853    -6338885.626 6  -4939388.543 4
 92  4 11  8 36 30.0020000  0  4  3 17 23 21
  21517516.137   -12890741.369 7 -10044720.265 7
  21281758.740   -15388203.600 8 -11990794.829 9
  21329157.126   -15942353.652 7 -12422605.720 9
  23548435.857    -6417005.178 6  -5000260.892 3
 92  4 11  8 37  0.0020000  0  4  3 17 23 21
  21527755.541   -12836904.567 7 -10002769.546 7
  21284898.173   -15371713.494 8 -11977945.397 9
  21325544.337   -15961341.748 7 -12437401.637 9
  23533623.728    -6494856.812 6  -5060924.477 3
 92  4 11  8 37 30.0020000  0  4  3 17 23 21
  21538101.985   -12782543.428 7  -9960410.243 7
  21288078.685   -15354987.683 8 -11964912.313 9
  21322012.483   -15979895.419 7 -12451859.040 9
  23518863.741    -6572443.083 6  -5121381.288 5
 92  4 11  8 38  0.0020000  0  4  3 17 23 21
  21548545.556   -12727661.341 7  -9917645.011 7
  21291310.745   -15338020.613 8 -11951691.217 9
  21318567.880   -15998012.936 7 -12465976.567 9
  23504144.517    -6649785.992 6  -5181648.455 4
 92  4 11  8 38 30.0020000  0  4  3 17 23 21
  21559091.037   -12672256.844 7  -9874472.701 7
  21294585.069   -15320804.312 8 -11938275.934 9
  21315204.804   -16015687.639 7 -12479749.060 9
  23489467.872    -6726899.593 6  -5241736.942 4
 92  4 11  8 39  0.0020000  0  4  3 17 23 21
  21569732.179   -12616340.279 7  -9830901.381 8
  21297907.660   -15303354.866 8 -11924678.978 9
  21311924.163   -16032931.860 7 -12493186.114 9
  23474833.212    -6803804.655 6  -5301662.945 4
 92  4 11  8 39 30.0020000  0  4  3 17 23 21
  21580467.763   -12559901.538 7  -9786923.186 7
  21301273.423   -15285650.550 8 -11910883.414 9
  21308725.085   -16049740.745 7 -12506283.956 9
  23460236.907    -6880480.763 6  -5361410.527 4
 92  4 11  8 40  0.0020000  0  4  3 17 23 21
  21591311.258   -12502941.549 7  -9742538.804 7
  21304692.863   -15267691.205 8 -11896889.117 9
  21305610.221   -16066114.223 7 -12519042.519 9
  23445700.562    -6956910.583 6  -5420966.209 3
 92  4 11  8 40 30.0020000  0  4  3 17 23 21
  21602252.161   -12445465.517 7  -9697752.313 6
  21308153.067   -15249492.465 8 -11882708.284 9
  21302571.824   -16082064.240 7 -12531471.101 9
  23431202.328    -7033087.549 6  -5480324.863 4
 92  4 11  8 41  0.0020000  0  4  3 17 23 21
  21613281.536   -12387475.359 7  -9652565.210 7
  21311660.351   -15231067.337 8 -11868351.051 9
  21299615.896   -16097599.932 7 -12543576.827 9
  23416760.109    -7108993.714 6  -5539472.499 5
 92  4 11  8 41 30.0020000  0  4  3 17 23 21
  21624417.044   -12328962.931 7  -9606971.171 7
  21315207.492   -15212414.734 8 -11853816.554 9
  21296742.683   -16112713.215 7 -12555353.403 9
  23402364.377    -7184612.140 6  -5598395.909 3
 92  4 11  8 42  0.0020000  0  4  3 17 23 21
  21635650.237   -12269922.294 7  -9560965.503 7
  21318802.899   -15193531.482 8 -11839102.346 9
  21293946.809   -16127399.493 7 -12566797.240 9
  23388035.515    -7259949.429 6  -5657100.265 5
 92  4 11  8 42 30.0020000  0  4  3 17 23 21
  21646985.096   -12210361.316 7  -9514554.382 6
  21322440.572   -15174421.662 8 -11824211.582 9
  21291230.404   -16141669.441 7 -12577916.665 9
  23373746.508    -7335024.678 6  -5715600.433 3
 92  4 11  8 43  0.0020000  0  4  3 17 23 21
  21658416.804   -12150283.128 7  -9467740.243 6
  21326120.229   -15155082.930 8 -11809142.455 9
  21288596.119   -16155514.318 7 -12588704.872 9
  23359501.268    -7409827.942 6  -5773888.660 3
 92  4 11  8 43 30.0020000  0  4  3 17 23 21
  21669952.793   -12089680.949 7  -9420517.799 7
  21329847.561   -15135495.291 8 -11793879.370 9
  21286041.896   -16168925.258 7 -12599154.937 9
  23345327.363    -7484362.509 6  -5831967.511 5
 92  4 11  8 44  0.0020000  0  4  3 17 23 21
  21681583.852   -12028560.241 7  -9372891.328 6
  21333618.658   -15115659.595 8 -11778423.012 9
  21283574.295   -16181913.450 7 -12609275.590 9
  23331194.536    -7558639.669 6  -5889845.786 4
 92  4 11  8 44 30.0020000  0  4  3 17 23 21
  21693308.723   -11966927.615 7  -9324865.946 6
  21337439.802   -15095594.146 8 -11762787.602 9
  21281179.532   -16194485.586 7 -12619072.044 9
  23317104.288    -7632653.609 6  -5947518.964 3
 92  4 11  8 45  0.0020000  0  4  3 17 23 21
  21705133.759   -11904778.488 7  -9276438.102 7
  21341300.523   -15075304.290 8 -11746977.338 9
  21278865.738   -16206642.042 7 -12628544.589 9
  23303074.627    -7706398.219 6  -6004982.282 3
 92  4 11  8 45 30.0020000  0  4  3 17 23 21
  21717057.109   -11842118.020 7  -9227611.806 6
  21345205.009   -15054793.665 8 -11730995.057 9
  21276628.096   -16218405.981 7 -12637711.272 9
  23289089.883    -7779891.307 6  -6062249.600 4
 92  4 11  8 46  0.0020000  0  4  3 17 23 21
  21729084.462   -11778939.118 7  -9178381.540 7
  21349151.201   -15034059.201 8 -11714838.333 9
  21274465.386   -16229762.472 7 -12646560.477 9
  23275158.258    -7853119.562 6  -6119310.544 5
 92  4 11  8 46 30.0020000  0  4  3 17 23 21
  21741202.975   -11715249.363 7  -9128753.215 7
  21353143.532   -15013085.396 8 -11698495.132 9
  21272384.238   -16240700.820 7 -12655083.852 9
  23261266.453    -7926088.446 6  -6176169.387 5
 92  4 11  8 47  0.0020000  0  4  3 17 23 21
  21753420.117   -11651050.505 7  -9078728.174 6
  21357182.315   -14991856.000 8 -11681952.758 9
  21270384.932   -16251214.036 7 -12663275.949 9
  23247430.455    -7998806.413 6  -6232832.700 5
 92  4 11  8 47 30.0020000  0  4  3 17 23 21
  21765736.201   -11586336.171 7  -9028301.466 6
  21361269.994   -14970356.955 8 -11665200.262 9
  21268465.932   -16261291.450 7 -12671128.476 9
  23233645.376    -8071264.855 6  -6289293.787 4
 92  4 11  8 48  0.0020000  0  4  3 17 23 21
  21778148.506   -11521109.428 7  -8977475.477 6
  21365411.628   -14948597.205 8 -11648244.632 9
  21266633.903   -16270928.431 7 -12678637.807 9
  23219904.691    -8143460.984 6  -6345550.495 5
 92  4 11  8 48 30.0020000  0  4  3 17 23 21
  21790654.344   -11455370.381 7  -8926250.297 6
  21369606.347   -14926583.220 8 -11631090.890 9
  21264878.027   -16280141.227 7 -12685816.592 9
  23206220.684    -8215386.634 6  -6401596.413 5
 92  4 11  8 49  0.0020000  0  4  3 17 23 21
  21803263.906   -11389118.724 7  -8874625.674 6
  21373834.011   -14904344.670 8 -11613762.165 9
  21263204.586   -16288955.567 7 -12692684.892 9
  23192584.595    -8287041.071 6  -6457431.021 4
 92  4 11  8 49 30.0020000  0  4  3 17 23 21
  21815967.037   -11322352.212 7  -8822599.863 6
  21378107.534   -14881892.077 8 -11596266.640 9
  21261603.389   -16297375.910 7 -12699246.185 9
  23179004.312    -8358420.938 6  -6513051.677 4
 92  4 11  8 50  0.0020000  0  4  3 17 23 21
  21828771.448   -11255075.465 7  -8770176.464 6
  21382420.949   -14859219.299 8 -11578599.561 9
  21260070.248   -16305401.549 7 -12705499.911 9
  23165467.794    -8429536.619 6  -6568466.464 5
 92  4 11  8 50 30.0020000  0  4  3 17 23 21
  21841670.021   -11187287.942 7  -8717355.060 6
  21386777.849   -14836322.428 8 -11560757.869 9
  21258622.264   -16313034.586 7 -12711447.728 9
  23151986.419    -8500384.429 6  -6623672.518 4
 92  4 11  8 51  0.0020000  0  4  3 17 23 21
  21854669.316   -11118984.516 7  -8664131.645 6
  21391179.981   -14813191.383 8 -11542733.694 9
  21257246.803   -16320261.462 7 -12717079.050 9
  23138552.125    -8570965.822 6  -6678670.977 5
 92  4 11  8 51 30.0020000  0  4  3 17 23 21
  21867760.365   -11050173.953 7  -8610513.065 6
  21395630.729   -14789809.947 8 -11524514.414 9
  21255951.403   -16327072.667 7 -12722386.471 9
  23125173.287    -8641273.545 6  -6733456.175 5
 92  4 11  8 52  0.0020000  0  4  3 17 23 21
  21880953.044   -10980850.251 7  -8556494.641 6
  21400131.803   -14766161.147 8 -11506086.804 9
  21254731.249   -16333457.018 7 -12727361.277 9
  23111851.407    -8711287.543 6  -6788012.528 4
 92  4 11  8 52 30.0020000  0  4  3 17 23 21
  21894238.627   -10911017.197 7  -8502079.322 6
  21404679.365   -14742261.745 8 -11487463.912 9
  21253600.754   -16339418.979 7 -12732006.954 9
  23098585.577    -8780993.474 6  -6842328.810 4
 92  4 11  8 53  0.0020000  0  4  3 17 23 21
  21907630.657   -10840673.868 7  -8447266.378 6
  21409274.880   -14718103.138 8 -11468639.029 9
  21252548.471   -16344949.720 7 -12736316.621 9
  23085380.020    -8850395.881 6  -6896408.569 5
 92  4 11  8 53 30.0020000  0  4  3 17 23 21
  21921108.438   -10769818.952 7  -8392054.785 6
  21413918.662   -14693681.710 8 -11449609.358 9
  21251577.750   -16350046.597 7 -12740288.216 9
  23072232.014    -8919488.713 6  -6950247.115 4
 92  4 11  8 54  0.0020000  0  4  3 17 23 21
  21934688.441   -10698461.683 7  -8336451.775 6
  21418612.805   -14669022.207 8 -11430394.164 9
  21250687.056   -16354727.640 7 -12743935.779 9
  23059141.279    -8988292.132 6  -7003860.125 5
 92  4 11  8 54 30.0020000  0  4  3 17 23 21
  21948366.760   -10626599.198 7  -8280455.068 6
  21423350.714   -14644140.816 8 -11411006.070 9
  21249874.330   -16359002.138 7 -12747266.560 9
  23046099.405    -9056817.065 6  -7057256.161 5
 92  4 11  8 55  0.0020000  0  4  3 17 23 21
  21962136.831   -10554228.286 7  -8224062.179 6
  21428128.200   -14619031.173 8 -11391440.139 9
  21249135.942   -16362875.359 7 -12750284.648 9
  23033109.708    -9125069.389 6  -7110439.776 4
 92  4 11  8 55 30.0020000  0  4  3 17 23 21
  21976005.217   -10481357.202 7  -8167279.559 6
  21432944.390   -14593705.979 8 -11371706.232 9
  21248473.392   -16366356.233 7 -12752997.010 9
  23020170.650    -9193053.226 6  -7163414.172 4
 92  4 11  8 56  0.0020000  0  4  3 17 23 21
  21989967.765   -10407978.500 7  -8110101.388 6
  21437809.127   -14568162.666 8 -11351802.359 9
  21247889.089   -16369442.806 7 -12755402.125 9
  23007286.771    -9260764.900 6  -7216176.497 3
 92  4 11  8 56 30.0020000  0  4  3 17 23 21
  22004029.534   -10334095.442 7  -8052530.206 6
  21442707.124   -14542397.569 8 -11331725.660 9
  21247375.843   -16372135.230 7 -12757500.104 9
  22994456.568    -9328208.734 6  -7268730.125 5
 92  4 11  8 57  0.0020000  0  4  3 17 23 21
  22018183.022   -10259717.179 7  -7994573.145 6
  21447661.205   -14516391.055 8 -11311460.856 9
  21246936.656   -16374426.969 7 -12759285.880 9
  22981669.537    -9395385.530 6  -7321075.648 5
 92  4 11  8 57 30.0020000  0  4  3 17 23 21
  22032431.857   -10184837.165 7  -7936225.116 6
  21452654.830   -14490133.526 8 -11291000.451 9
  21246580.497   -16376301.936 7 -12760746.888 9
  22968943.337    -9462294.268 6  -7373212.300 5
 92  4 11  8 58  0.0020000  0  4  3 17 23 21
  22046775.134   -10109458.116 7  -7877488.218 5
  21457702.759   -14463628.059 8 -11270346.841 9
  21246299.897   -16377769.864 7 -12761890.734 9
  22956258.809    -9528933.544 6  -7425138.991 4
 92  4 11  8 58 30.0020000  0  4  3 17 23 21
  22061215.852   -10033577.936 7  -7818360.848 6
  21462793.511   -14436862.451 8 -11249490.518 9
  21246100.546   -16378813.192 7 -12762703.722 9
  22943634.240    -9595289.965 6  -7476845.277 4
 92  4 11  8 59  0.0020000  0  4  3 17 23 21
  22075750.662    -9957200.026 7  -7758845.621 6
  21467938.254   -14409840.875 8 -11228434.763 9
  21245982.129   -16379440.868 7 -12763192.823 9
  22931055.564    -9661363.067 6  -7528330.791 5
 92  4 11  8 59 30.0020000  0  4  3 17 23 21
  22090379.040    -9880320.724 7  -7698939.707 6
  21473123.481   -14382582.314 8 -11207194.339 9
  21245939.550   -16379671.558 7 -12763372.583 9
  22918535.312    -9727149.897 6  -7579593.230 5
 92  4 11  9  0  0.0020000  0  4  3 17 23 21
  22105102.766    -9802943.780 7  -7638646.014 5
  21478355.440   -14355085.686 8 -11185768.403 9
  21245971.310   -16379514.586 7 -12763250.265 9
  22906075.647    -9792634.478 6  -7630620.159 5
 92  4 11  9  0 30.0020000  0  4  3 17 23 21
  22119921.211    -9725069.327 7  -7577964.656 7
  21483633.294   -14327346.822 8 -11164153.703 9
  21246074.755   -16378972.413 7 -12762827.782 9
  22893675.034    -9857817.899 6  -7681412.404 5
 92  4 11  9  1  0.0020000  0  4  3 17 23 21
  22134832.876    -9646700.964 7  -7516898.440 4
  21488955.505   -14299373.748 8 -11142356.502 9
  21246247.128   -16378059.380 7 -12762116.324 9
  22881326.876    -9922703.928 6  -7731972.923 5
 92  4 11  9  1 30.0020000  0  4  3 17 23 21
  22149839.575    -9567838.984 7  -7455447.566 6
  21494322.983   -14271158.650 8 -11120370.702 9
  21246492.966   -16376763.275 7 -12761106.366 9
  22869035.990    -9987278.942 6  -7782291.101 5
 92  4 11  9  2  0.0020000  0  4  3 17 23 21
  22164944.344    -9488487.278 7  -7393615.123 5
  21499744.137   -14242688.490 8 -11098186.169 9
  21246820.333   -16375066.727 7 -12759784.368 9
  22856806.249   -10051539.006 6  -7832363.844 5
 92  4 11  9  2 30.0020000  0  4  3 17 23 21
  22180139.016    -9408650.096 7  -7331404.343 5
  21505210.558   -14213973.436 8 -11075810.786 9
  21247213.660   -16372972.048 7 -12758152.151 9
  22844638.003   -10115509.025 6  -7882210.584 6
 92  4 11  9  3  0.0020000  0  4  3 17 23 21
  22195421.812    -9328320.318 7  -7268809.751 5
  21510718.056   -14185006.544 8 -11053239.191 9
  21247693.018   -16370464.701 7 -12756198.377 9
  22832518.268   -10179180.714 6  -7931824.852 5
 92  4 11  9  3 30.0020000  0  4  3 17 23 21
  22210800.584    -9247506.101 7  -7205837.664 5
  21516279.789   -14155793.551 8 -11030475.818 9
  21248245.841   -16367554.966 7 -12753931.055 9
  22820460.621   -10242559.902 6  -7981211.194 5
 92  4 11  9  4  0.0020000  0  4  3 17 23 21
  22226274.355    -9166206.476 7  -7142487.335 5
  21521885.323   -14126333.275 8 -11007519.766 9
  21248877.818   -16364250.270 7 -12751355.967 9
  22808451.242   -10305658.120 6  -8030378.598 5
 92  4 11  9  4 30.0020000  0  4  3 17 23 21
  22241836.006    -9084423.206 7  -7078760.132 6
  21527535.215   -14096632.701 8 -10984376.457 9
  21249575.129   -16360562.706 7 -12748482.541 9
  22796495.504   -10368477.565 6  -8079328.768 4
 92  4 11  9  5  0.0020000  0  4  3 17 23 21
  22257494.156    -9002148.032 7  -7014649.646 5
  21533239.342   -14066677.043 8 -10961034.384 9
  21250352.187   -16356481.350 7 -12745302.262 9
  22784603.355   -10430984.055 6  -8128035.090 5
 92  4 11  9  5 30.0020000  0  4  3 17 23 21
  22273241.058    -8919386.337 7  -6950160.054 5
  21538987.269   -14036467.092 8 -10937494.166 9
  21251206.584   -16352015.013 7 -12741821.983 9
  22772765.442   -10493194.857 6  -8176511.004 5
 92  4 11  9  6  0.0020000  0  4  3 17 23 21
  22289079.085    -8836143.302 7  -6885295.374 5
  21544780.462   -14006013.483 8 -10913764.087 9
  21252126.350   -16347164.619 7 -12738042.437 9
  22760982.985   -10555126.024 6  -8224769.025 5
 92  4 11  9  6 30.0020000  0  4  3 17 23 21
  22305009.773    -8752416.298 7  -6820053.563 4
  21550621.015   -13975330.683 8 -10889855.403 9
  21253118.674   -16341932.320 7 -12733965.306 9
  22749253.333   -10616766.912 6  -8272800.847 5
 92  4 11  9  7  0.0020000  0  4  3 17 23 21
  22321033.365    -8668208.884 7  -6754437.424 5
  21556504.147   -13944422.985 8 -10865771.482 9
  21254191.933   -16336317.654 7 -12729590.216 9
  22737572.506   -10678128.216 6  -8320614.806 5
 92  4 11  9  7 30.0020000  0  4  3 17 23 21
  22337150.212    -8583522.754 7  -6688448.269 5
  21562426.855   -13913292.968 8 -10841514.329 9
  21255333.526   -16330326.488 7 -12724921.774 9
  22725943.855   -10739219.942 6  -8368218.709 5
 92  4 11  9  8  0.0020000  0  4  3 17 23 21
  22353359.405    -8498354.883 7  -6622083.727 5
  21568393.015   -13881948.105 8 -10817089.781 9
  21256541.988   -16323954.237 7 -12719956.376 9
  22714377.258   -10800022.821 6  -8415597.537 5
 92  4 11  9  8 30.0020000  0  4  3 17 23 21
  22369651.626    -8412707.272 7  -6555345.357 5
  21574402.067   -13850370.915 8 -10792484.182 9
  21257826.918   -16317203.876 7 -12714696.348 9
  22702865.244   -10860526.777 6  -8462743.429 6
 92  4 11  9  9  0.0020000  0  4  3 17 23 21
  22386044.570    -8326581.041 7  -6488234.044 5
  21580456.664   -13818534.732 8 -10767676.764 9
  21259185.278   -16310063.178 7 -12709132.158 9
  22691405.966   -10920735.505 6  -8509659.281 6
 92  4 11  9  9 30.0020000  0  4  3 17 23 21
  22402524.172    -8239983.488 7  -6420755.469 5
  21586564.625   -13786443.442 8 -10742670.566 9
  21260615.288   -16302546.420 7 -12703274.944 9
  22680006.052   -10980642.906 6  -8556340.332 6
 92  4 11  9 10  0.0020000  0  4  3 17 23 21
  22419096.993    -8152916.062 7  -6352910.761 5
  21592719.386   -13754091.316 8 -10717461.132 9
  21262118.136   -16294651.476 7 -12697123.038 9
  22668663.097   -11040247.308 6  -8602785.266 5
 92  4 11  9 10 30.0020000  0  4  3 17 23 21
  22435751.062    -8065370.431 7  -6284693.413 5
  21598931.384   -13721455.285 8 -10692030.447 9
  21263695.042   -16286373.562 7 -12690672.720 9
  22657381.915   -11099530.302 6  -8648979.757 5
 92  4 11  9 11  0.0020000  0  4  3 17 23 21
  22452501.351    -7977354.775 7  -6216109.810 6
  21605190.743   -13688553.371 8 -10666392.606 9
  21265340.912   -16277722.054 7 -12683931.290 9
  22646163.100   -11158497.903 6  -8694928.500 5
 92  4 11  9 11 30.0020000  0  4  3 17 23 21
  22469335.297    -7888873.839 7  -6147163.671 6
  21611501.684   -13655393.819 8 -10640554.001 9
  21267056.338   -16268702.576 7 -12676903.131 9
  22634999.428   -11217152.931 6  -8740633.676 6
 92  4 11  9 12  0.0020000  0  4  3 17 23 21
  22486268.779    -7799928.220 7  -6077855.417 5
  21617864.766   -13621973.846 8 -10614512.466 9
  21268845.474   -16259301.758 7 -12669577.826 9
  22623897.495   -11275500.625 6  -8786099.370 5
 92  4 11  9 12 30.0020000  0  4  3 17 23 21
  22503277.820    -7710515.191 7  -6008182.969 5
  21624269.519   -13588299.736 8 -10588272.899 9
  21270707.203   -16249515.516 7 -12661952.181 9
  22612852.240   -11333543.279 6  -8831327.373 5
 92  4 11  9 13  0.0020000  0  4  3 17 23 21
  22520380.081    -7620640.942 6  -5938151.119 6
  21630720.481   -13554393.126 8 -10561852.167 9
  21272644.456   -16239336.174 7 -12654020.238 9
  22601858.847   -11391299.333 6  -8876332.041 6
 92  4 11  9 13 30.0020000  0  4  3 17 23 21
  22537575.246    -7530305.969 6  -5867760.275 5
  21637217.267   -13520258.819 8 -10535254.007 9
  21274654.267   -16228764.592 7 -12645782.632 9
  22590923.633   -11448766.823 6  -8921111.872 6
 92  4 11  9 14  0.0020000  0  4  3 17 23 21
  22554847.507    -7439515.226 6  -5797014.282 5
  21643755.131   -13485909.154 8 -10508488.042 9
  21276740.825   -16217814.376 7 -12637249.979 9
  22580047.157   -11505945.777 6  -8965666.848 5
 92  4 11  9 14 30.0020000  0  4  3 17 23 21
  22572206.669    -7348263.903 6  -5725909.392 5
  21650331.699   -13451344.180 8 -10481554.292 9
  21278896.031   -16206494.733 7 -12628429.457 9
  22569219.855   -11562824.976 6  -9009988.272 6
 92  4 11  9 15  0.0020000  0  4  3 17 23 21
  22589665.996    -7256554.533 6  -5654447.566 5
  21656950.811   -13416548.674 7 -10454440.922 9
  21281120.201   -16194808.646 7 -12619323.417 9
  22558457.294   -11619398.906 6  -9054071.814 5
 92  4 11  9 15 30.0020000  0  4  3 17 23 21
  22607203.569    -7164393.277 6  -5582633.651 5
  21663619.097   -13381506.484 8 -10427135.329 9
  21283409.391   -16182775.674 7 -12609947.063 9
  22547745.128   -11675674.808 6  -9097923.131 6
 92  4 11  9 16  0.0020000  0  4  3 17 23 21
  22624826.858    -7071779.359 6  -5510467.009 5
  21670340.118   -13346207.040 8 -10399629.271 9
  21285761.261   -16170401.920 7 -12600305.171 9
  22537089.293   -11731659.149 6  -9141547.267 6
 92  4 11  9 16 30.0020000  0  4  3 17 23 21
  22642538.585    -6978714.252 7  -5437948.785 5
  21677105.568   -13310644.048 7 -10371917.844 9
  21288182.409   -16157681.840 7 -12590393.415 9
  22526492.822   -11787354.814 6  -9184946.454 5
 92  4 11  9 17  0.0020000  0  4  3 17 23 21
  22660333.061    -6885201.969 7  -5365082.105 5
  21683926.125   -13274809.108 8 -10343994.522 9
  21290672.485   -16144608.053 7 -12580206.065 9
  22515945.841   -11842772.331 6  -9228128.893 6
 92  4 11  9 17 30.0020000  0  4  3 17 23 21
  22678217.196    -6791242.311 6  -5291866.815 5
  21690793.484   -13238714.845 7 -10315869.134 9
  21293224.615   -16131190.867 7 -12569751.100 9
  22505456.410   -11897907.616 7  -9271091.432 7
 92  4 11  9 18  0.0020000  0  4  3 17 23 21
  22696176.855    -6696833.436 6  -5218301.517 5
  21697710.890   -13202362.921 7 -10287542.959 9
  21295842.392   -16117429.034 7 -12559027.604 9
  22495022.437   -11952738.542 6  -9313816.782 6
 92  4 11  9 18 30.0020000  0  4  3 17 23 21
  22714230.082    -6601973.637 6  -5144384.837 5
  21704681.065   -13165746.933 8 -10259011.014 9
  21298530.039   -16103303.171 7 -12548020.441 9
  22484650.516   -12007246.563 6  -9356290.529 6
 92  4 11  9 19  0.0020000  0  4  3 17 23 21
  22732360.614    -6506668.819 6  -5070121.392 5
  21711696.506   -13128876.366 8 -10230280.710 9
  21301285.429   -16088824.464 7 -12536738.330 9
  22474342.742   -12061429.292 7  -9398510.783 6
 92  4 11  9 19 30.0020000  0  4  3 17 23 21
  22750587.088    -6410923.447 6  -4995514.656 3
  21718754.526   -13091763.703 8 -10201361.759 9
  21304105.872   -16074000.060 7 -12525186.850 9
  22464092.833   -12115278.157 7  -9440470.895 7
 92  4 11  9 20  0.0020000  0  4  3 17 23 21
  22768892.122    -6314731.190 6  -4920559.690 5
  21725869.189   -13054397.778 8 -10172245.467 9
  21306997.373   -16058804.102 7 -12513345.837 9
  22453904.698   -12168790.243 6  -9482168.585 6
 92  4 11  9 20 30.0020000  0  4  3 17 23 21
  22787280.777    -6218096.866 6  -4845260.258 4
  21733022.557   -13016795.895 8 -10142945.300 9
  21309963.806   -16043228.565 7 -12501209.055 9
  22443788.493   -12221980.592 7  -9523615.573 6
 92  4 11  9 21  0.0020000  0  4  3 17 23 21
  22805751.623    -6121025.720 6  -4769620.427 4
  21740220.842   -12978964.962 8 -10113466.660 9
  21312995.921   -16027280.955 7 -12488782.338 9
  22433727.151   -12274855.664 7  -9564816.886 6
 92  4 11  9 21 30.0020000  0  4  3 17 23 21
  22824300.053    -6023519.773 6  -4693641.807 4
  21747466.242   -12940896.600 8 -10083803.002 9
  21316103.281   -16010955.309 7 -12476061.052 9
  22423719.172   -12327419.702 7  -9605775.817 6
 92  4 11  9 22  0.0020000  0  4  3 17 23 21
  22842942.644    -5925579.927 6  -4617325.103 5
  21754759.002   -12902575.725 8 -10053942.579 9
  21319284.979   -15994246.544 8 -12463041.222 9
  22413777.154   -12379678.828 7  -9646497.180 6
 92  4 11  9 22 30.0020000  0  4  3 17 23 21
  22861663.796    -5827203.424 6  -4540668.125 5
  21762101.809   -12863988.646 8 -10023874.732 9
  21322537.106   -15977158.451 7 -12449725.815 9
  22403891.222   -12431620.265 7  -9686970.971 6
 92  4 11  9 23  0.0020000  0  4  3 17 23 21
  22880463.474    -5728400.289 6  -4463678.702 5
  21769495.606   -12825131.950 8  -9993596.781 9
  21325855.824   -15959709.609 8 -12436129.323 9
  22394068.215   -12483252.550 7  -9727203.886 6
 92  4 11  9 23 30.0020000  0  4  3 17 23 21
  22899348.903    -5629159.338 6  -4386348.134 3
  21776940.951   -12785995.299 8  -9963100.688 9
  21329244.063   -15941904.902 8 -12422255.531 9
  22384301.259   -12534578.210 7  -9767197.882 6
 92  4 11  9 24  0.0020000  0  4  3 17 23 21
  22918317.080    -5529482.685 6  -4308678.037 4
  21784443.847   -12746583.278 8  -9932390.026 9
  21332697.391   -15923758.905 8 -12408115.807 9
  22374591.294   -12585598.402 7  -9806953.848 6
 92  4 11  9 24 30.0020000  0  4  3 17 23 21
  22937368.599    -5429381.464 6  -4230677.136 5
  21791989.007   -12706920.390 8  -9901483.877 9
  21336209.736   -15905297.878 8 -12393730.609 9
  22364937.974   -12636316.957 7  -9846474.764 6
 92  4 11  9 25  0.0020000  0  4  3 17 23 21
  22956490.862    -5328866.538 6  -4152353.864 4
  21799582.155   -12667024.577 8  -9870396.223 9
  21339778.794   -15886542.087 8 -12379115.712 9
  22355344.612   -12686752.762 7  -9885775.341 6
 92  4 11  9 25 30.0020000  0  4  3 17 23 21
  22975697.968    -5227936.149 6  -4073706.835 3
  21807220.883   -12626886.680 8  -9839119.944 9
  21343404.461   -15867489.568 8 -12364269.620 9
  22345802.239   -12736896.081 7  -9924848.026 6
 92  4 11  9 26  0.0020000  0  4  3 17 23 21
  22994984.193    -5126588.630 6  -3994734.773 4
  21814909.344   -12586502.966 8  -9807652.131 9
  21347092.215   -15848116.623 8 -12349173.821 9
  22336318.884   -12786725.796 7  -9963676.341 6
 92  4 11  9 26 30.0020000  0  4  3 17 23 21
  23014350.793    -5024823.561 6  -3915437.368 4
  21822633.194   -12545872.832 7  -9775992.273 9
  21350842.930   -15828411.244 8 -12333818.995 9
  22326896.115   -12836242.775 7 -10002260.983 6
 92  4 11  9 27  0.0020000  0  4  3 17 23 21
  23033796.234    -4922640.509 6  -3835814.244 2
  21830415.224   -12504980.971 8  -9744128.500 9
  21354658.071   -15808350.738 8 -12318187.438 9
  22317530.304   -12885454.182 7 -10040607.516 6
 92  4 11  9 27 30.0020000  0  4  3 17 23 21
  23053322.016    -4820045.779 6  -3755870.348 4
  21838244.613   -12463831.778 7  -9712064.204 9
  21358546.084   -15787931.086 8 -12302276.025 9
  22308223.544   -12934358.966 7 -10078715.128 6
 92  4 11  9 28  0.0020000  0  4  3 17 23 21
  23072918.261    -4717039.880 6  -3675606.039 4
  21846128.831   -12422430.779 8  -9679803.676 9
  21362499.152   -15767153.294 8 -12286085.549 9
  22298977.337   -12982958.327 7 -10116584.737 6
 92  4 11  9 28 30.0020000  0  4  3 17 23 21
  23092598.442    -4613628.292 6  -3595025.625 5
  21854051.753   -12380773.576 7  -9647343.533 9
  21366516.960   -15746035.270 8 -12269629.953 9
  22289789.309   -13031257.698 7 -10154220.590 6
 92  4 11  9 29  0.0020000  0  4  3 17 23 21
  23112356.242    -4509804.498 6  -3514124.010 4
  21862034.041   -12338849.376 7  -9614675.335 9
  21370600.451   -15724574.736 8 -12252907.459 9
  22280657.331   -13079241.391 7 -10191610.466 6
 92  4 11  9 29 30.0020000  0  4  3 17 23 21
  23132194.731    -4405570.038 6  -3432902.406 5
  21870060.687   -12296660.220 7  -9581800.672 9
  21374747.774   -15702789.752 8 -12235932.148 9
  22271587.092   -13126899.902 7 -10228746.953 6
 92  4 11  9 30  0.0020000  0  4  3 17 23 21
  23152100.648    -4300935.956 6  -3351369.375 3
  21878137.067   -12254212.358 7  -9548724.426 9
  21378949.961   -15680689.540 8 -12218711.208 9
  22262573.531   -13174249.484 7 -10265642.717 6
 92  4 11  9 30 30.0020000  0  4  3 17 23 21
  23172092.281    -4195896.855 6  -3269520.769 5
  21886264.157   -12211505.145 7  -9515446.082 9
  21383221.111   -15658259.821 8 -12201233.491 9
  22253623.244   -13221289.289 7 -10302297.084 6
 92  4 11  9 31  0.0030000  0  4  3 17 23 21
  23192155.305    -4090455.121 6  -3187358.420 4
  21894437.999   -12168550.302 7  -9481974.791 9
  21387550.705   -15635498.788 8 -12183497.629 9
  22244731.681   -13268031.346 7 -10338719.444 6
 92  4 11  9 31 30.0030000  0  4  3 17 23 21
  23212298.650    -3984613.523 6  -3104884.481 3
  21902659.495   -12125345.910 7  -9448309.046 9
  21391945.368   -15612403.100 8 -12165500.988 9
  22235893.215   -13314463.574 7 -10374900.370 7
 92  4 11  9 32  0.0030000  0  4  3 17 23 21
  23232512.180    -3878374.392 6  -3022100.775 4
  21910929.572   -12081896.700 7  -9414452.539 9
  21396405.993   -15588966.053 8 -12147238.372 9
  22227117.675   -13360588.898 7 -10410842.149 6
 92  4 11  9 32 30.0030000  0  4  3 17 23 21
  23252807.830    -3771737.746 6  -2939007.318 5
  21919244.321   -12038198.265 7  -9380401.809 9
  21400929.229   -15565197.746 8 -12128717.609 9
  22218400.628   -13406398.084 7 -10446537.599 6
 92  4 11  9 33  0.0030000  0  4  3 17 23 21
  23273177.818    -3664703.076 6  -2855603.725 5
  21927613.341   -11994232.416 7  -9346142.721 9
  21405513.680   -15541109.094 8 -12109947.224 9
  22209744.727   -13451883.482 7 -10481980.750 6
 92  4 11  9 33 30.0030000  0  4  3 17 23 21
  23293612.861    -3557281.718 6  -2771898.790 3
  21936029.092   -11949995.664 7  -9311672.531 9
  21410155.648   -15516710.984 8 -12090935.707 9
  22201145.783   -13497050.050 7 -10517175.464 6
 92  4 11  9 34  0.0030000  0  4  3 17 23 21
  23314130.966    -3449473.853 6  -2687892.724 3
  21944500.021   -11905485.602 7  -9276989.384 9
  21414859.389   -15491997.651 8 -12071678.572 9
  22192611.266   -13541910.248 7 -10552131.442 6
 92  4 11  9 34 30.0030000  0  4  3 17 23 21
  23334716.220    -3341280.302 6  -2603586.087 4
  21953021.626   -11860700.729 7  -9242092.094 9
  21419623.089   -15466970.451 8 -12052176.857 9
  22184136.149   -13586461.789 7 -10586846.902 7
 92  4 11  9 35  0.0030000  0  4  3 17 23 21
  23355384.189    -3232703.572 6  -2518980.893 4
  21961590.904   -11815647.542 7  -9206985.722 8
  21424447.062   -15441613.620 8 -12032418.279 9
  22175713.766   -13630698.573 7 -10621317.094 6
 92  4 11  9 35 30.0030000  0  4  3 17 23 21
  23376116.653    -3123746.473 6  -2434079.282 3
  21970216.233   -11770339.600 7  -9171680.851 8
  21429335.182   -15415913.082 8 -12012391.874 9
  22167358.253   -13674616.451 7 -10655538.794 7
 92  4 11  9 36  0.0030000  0  4  3 17 23 21
  23396918.638    -3014401.141 6  -2348875.160 4
  21978884.140   -11724786.535 7  -9136184.967 9
  21434289.857   -15389866.774 8 -11992096.053 9
  22159065.386   -13718194.625 7 -10689495.795 7
 92  4 11  9 36 30.0030000  0  4  3 17 23 21
  23417807.596    -2904681.295 6  -2263379.222 4
  21987599.407   -11678999.887 7  -9100507.073 8
  21439311.088   -15363493.898 8 -11971545.753 9
  22150834.293   -13761434.636 7 -10723189.307 7
 92  4 11  9 37  0.0030000  0  4  3 17 23 21
  23438749.009    -2794588.401 6  -2177592.630 4
  21996354.530   -11632971.297 7  -9064640.654 8
  21444391.369   -15336804.576 8 -11950748.883 9
  22142671.535   -13804346.132 7 -10756626.821 7
 92  4 11  9 37 30.0030000  0  4  3 17 23 21
  23459770.135    -2684127.303 6  -2091519.070 2
  22005164.831   -11586691.078 7  -9028578.164 9
  21449528.609   -15309815.190 8 -11929718.181 9
  22134567.863   -13846941.011 7 -10789817.616 7
 92  4 11  9 38  0.0030000  0  4  3 17 23 21
  23480858.444    -2573294.623 6  -2005155.962 3
  22014022.212   -11540141.574 7  -8992305.838 8
  21454719.211   -15282539.323 8 -11908464.263 9
  22126520.835   -13889220.856 7 -10822762.931 7
 92  4 11  9 38 30.0030000  0  4  3 17 23 21
  23502024.999    -2462096.725 6  -1918508.285 4
  22022933.236   -11493299.716 7  -8955805.713 8
  21459961.989   -15254974.795 8 -11886985.405 9
  22118532.858   -13931205.631 7 -10855478.325 7
 92  4 11  9 39  0.0030000  0  4  3 17 23 21
  23523249.106    -2350532.875 6  -1831575.463 4
  22031905.126   -11446165.780 7  -8919077.974 8
  21465265.006   -15227118.380 8 -11865279.112 9
  22110598.244   -13972891.746 7 -10887960.995 7
 92  4 11  9 39 30.0030000  0  4  3 17 23 21
  23544549.958    -2238609.164 6  -1744362.221 3
  22040924.096   -11398758.137 7  -8882136.975 8
  21470620.198   -15198968.922 8 -11843344.470 9
  22102718.807   -14014278.997 7 -10920210.796 7
 92  4 11  9 40  0.0030000  0  4  3 17 23 21
  23565913.143    -2126321.002 6  -1656864.991 4
  22049997.895   -11351088.681 7  -8844991.970 8
  21476037.165   -15170514.348 8 -11821172.084 9
  22094904.111   -14055364.944 7 -10952225.810 7
 92  4 11  9 40 30.0030000  0  4  3 17 23 21
  23587348.921    -2013670.072 6  -1569085.079 3
  22059118.182   -11303166.824 7  -8807650.278 8
  21481512.275   -15141732.041 8 -11798744.310 9
  22087144.593   -14096139.459 7 -10983998.138 7
 92  4 11  9 41  0.0030000  0  4  3 17 23 21
  23608859.036    -1900658.519 6  -1481024.189 3
  22068276.859   -11255019.678 7  -8770133.035 8
  21487052.126   -15112621.048 8 -11776060.425 9
  22079443.812   -14136599.492 7 -11015525.428 8
 92  4 11  9 41 30.0030000  0  4  3 17 23 21
  23630436.300    -1787293.461 6  -1392687.831 4
  22077481.395   -11206645.631 7  -8732438.982 8
  21492653.157   -15083183.800 8 -11753122.304 9
  22071806.305   -14176753.123 7 -11046813.955 7
 92  4 11  9 42  0.0030000  0  4  3 17 23 21
  23652069.929    -1673581.955 6  -1304081.496 4
  22086734.478   -11158040.113 7  -8694564.572 8
  21498314.741   -15053429.672 8 -11729937.276 9
  22064228.757   -14216595.420 7 -11077859.874 7
 92  4 11  9 42 30.0030000  0  4  3 17 23 21
  23673778.767    -1559523.802 6  -1215205.065 4
  22096026.230   -11109188.773 7  -8656498.608 8
  21504035.376   -15023368.662 8 -11706513.113 9
  22056702.164   -14256114.028 7 -11108653.581 8
 92  4 11  9 43  0.0030000  0  4  3 17 23 21
  23695545.506    -1445116.216 6  -1126056.348 4
  22105374.661   -11060072.453 7  -8618226.167 8
  21509809.060   -14993018.098 8 -11682863.334 9
  22049243.627   -14295316.595 7 -11139201.019 7
 92  4 11  9 43 30.0030000  0  4  3 17 23 21
  23717383.302    -1330372.683 6  -1036645.844 2
  22114773.767   -11010684.193 7  -8579741.821 8
  21515640.923   -14962393.368 8 -11658999.911 9
  22041841.140   -14334209.418 7 -11169507.093 7
 92  4 11  9 44  0.0030000  0  4  3 17 23 21
  23739279.242    -1215287.061 6   -946968.794 3
  22124226.201   -10961015.228 7  -8541038.742 8
  21521523.461   -14931484.694 8 -11634915.236 9
  22034502.521   -14372775.323 7 -11199558.438 7
 92  4 11  9 44 30.0030000  0  4  3 17 23 21
  23761241.143    -1099865.641 6   -857030.054 3
  22133735.941   -10911059.577 7  -8502112.281 8
  21527456.046   -14900282.939 8 -11610602.180 9
  22027223.267   -14411036.387 7 -11229372.238 7
 92  4 11  9 45  0.0030000  0  4  3 17 23 21
  23783271.380     -984103.991 6   -766826.215 3
  22143294.507   -10860812.704 7  -8462958.893 8
  21533454.314   -14868775.553 8 -11586050.970 9
  22019998.877   -14448999.713 7 -11258954.026 7
 92  4 11  9 45 30.0030000  0  4  3 17 23 21
  23805365.799     -868008.158 6   -676361.966 3
  22152907.379   -10810289.353 7  -8423590.057 8
  21539508.597   -14836961.695 8 -11561260.949 9
  22012829.350   -14486661.752 7 -11288301.054 7
 92  4 11  9 46  0.0030000  0  4  3 17 23 21
  23827517.140     -751577.826 5   -585637.065 4
  22162571.484   -10759494.146 7  -8384009.399 8
  21545618.687   -14804844.139 8 -11536234.292 9
  22005723.971   -14524023.999 7 -11317414.463 7
 92  4 11  9 46 30.0030000  0  4  3 17 23 21
  23849742.261     -634818.988 6   -494656.176 2
  22172293.454   -10708426.756 7  -8344216.637 7
  21551784.826   -14772440.404 8 -11510984.627 9
  21998664.450   -14561096.306 7 -11346301.964 7
 92  4 11  9 47  0.0030000  0  4  3 17 23 21
  23872024.025     -517732.043 6   -403419.643 4
  22182062.469   -10657097.197 7  -8304219.595 8
  21558004.013   -14739770.160 8 -11485527.295 9
  21991669.670   -14597855.934 7 -11374945.812 7
 92  4 11  9 47 30.0030000  0  5  3 11 17 23 21
  23894372.379     -400321.926 6   -311931.299 2
  25877370.870     -268593.466 5   -209293.374 2
  22191877.693   -10605504.145 7  -8264017.214 7
  21564270.561   -14706832.563 8 -11459861.627 9
  21984742.073   -14634285.628 7 -11403332.568 7
 92  4 11  9 48  0.0030000  0  5  3 11 17 23 21
  23916765.057     -282591.281 6   -220193.155 2
  25857466.139     -373231.430 4   -290829.496 3
  22201742.965   -10553651.418 7  -8223612.512 8
  21570591.379   -14673624.467 8 -11433985.194 9
  21977869.654   -14670388.749 7 -11431464.858 7
 92  4 11  9 48 30.0030000  0  5  3 11 17 23 21
  23939227.012     -164536.498 5   -128202.446 3
  25837550.624     -477854.390 5   -372353.888 1
  22211659.505   -10501538.958 7  -8183005.401 7
  21576961.965   -14640148.489 8 -11407900.012 9
  21971066.163   -14706160.289 7 -11459338.769 7
 92  4 11  9 49  0.0030000  0  5  3 11 17 23 21
  23961758.524      -46164.906 5    -35964.900 3
  25817639.612     -582464.946 5   -453868.644 1
  22221623.404   -10449186.858 7  -8142211.572 8
  21583383.226   -14606408.560 8 -11381609.164 9
  21964311.533   -14741616.886 7 -11486967.270 7
 92  4 11  9 49 30.0030000  0  5  3 11 17 23 21
  23984344.271       72520.650 5     56517.300 3
  25797744.200     -687060.769 4   -535371.903 3
  22231634.071   -10396591.763 7  -8101228.390 7
  21589856.070   -14572391.946 8 -11355102.699 9
  21957626.738   -14776770.676 7 -11514359.822 7
 92  4 11  9 50  0.0030000  0  5  3 11 17 23 21
  24006991.513      191521.314 5    149245.069 3
  25777841.563     -791635.669 4   -616858.876 3
  22241690.003   -10343749.544 7  -8060052.655 7
  21596377.426   -14538104.613 8 -11328385.306 9
  21950997.156   -14811629.305 7 -11541522.367 7
 92  4 11  9 50 30.0030000  0  5  3 11 17 23 21
  24029700.493      310835.451 5    242217.096 2
  25757951.526     -896186.377 5   -698326.954 1
  22251794.796   -10290645.293 7  -8018672.735 8
  21602955.181   -14503544.437 8 -11301455.299 9
  21944412.212   -14846190.589 7 -11568453.220 8
 92  4 11  9 51  0.0030000  0  5  3 11 17 23 21
  24052455.019      430452.310 5    335424.979 1
  25738061.524    -1000718.424 5   -779780.518
  22261951.765   -10237268.415 7  -7977080.384 7
  21609583.611   -14468698.551 8 -11274302.665 9
  21937893.509   -14880465.034 7 -11595160.558 7
 92  4 11  9 51 30.0030000  0  5  3 11 17 23 21
  24075275.820      550384.885 5    428878.883 3
  25718172.394    -1105214.009 4   -861205.669 2
  22272166.006   -10183594.808 7  -7935256.802 8
  21616276.468   -14433540.271 8 -11246906.592 9
  21931432.670   -14914418.893 7 -11621618.092 7
 92  4 11  9 52  0.0030000  0  5  3 11 17 23 21
  24098152.113      670622.616 5    522570.563 3
  25698284.450    -1209678.256 4   -942606.432 3
  22282432.702   -10129632.796 7  -7893208.508 7
  21623022.094   -14398091.197 8 -11219283.937 9
  21925028.824   -14948063.210 7 -11647834.436 8
 92  4 11  9 52 30.0030000  0  5  3 11 17 23 21
  24121095.206      791159.941 5    616495.715 3
  25678409.420    -1314111.832 4  -1023983.229 1
  22292755.448   -10075390.239 7  -7850941.596 7
  21629820.489   -14362358.986 8 -11191440.650 9
  21918683.995   -14981398.373 7 -11673809.891 8
 92  4 11  9 53  0.0030000  0  5  3 11 17 23 21
  24144084.507      911991.836 5    710650.410 3
  25658544.267    -1418514.373 4  -1105335.869 1
  22303125.275   -10020885.194 7  -7808470.158 7
  21636672.247   -14326355.667 8 -11163386.126 9
  21912399.473   -15014416.725 7 -11699538.460 8
 92  4 11  9 53 30.0030000  0  5  3 11 17 23 21
  24167135.232     1033117.456 5    805033.940 3
  25638684.802    -1522881.867 4  -1186661.208 3
  22313549.651    -9966127.382 7  -7765801.746 7
  21643570.772   -14290095.627 8 -11135131.543 9
  21906185.067   -15047106.684 7 -11725011.151 8
 92  4 11  9 54  0.0030000  0  5  3 11 17 23 21
  24190242.357     1154535.479 5    899645.362 2
  25618832.841    -1627210.434 3  -1267956.178 3
  22324016.291    -9911116.463 7  -7722936.120 7
  21650520.845   -14253585.365 8 -11106681.994 9
  21900021.022   -15079473.387 7 -11750231.951 8
 92  4 11  9 54 30.0030000  0  5  3 11 17 23 21
  24213401.623     1276246.444 5    994485.052 3
  25598993.793    -1731494.554 4  -1349216.493 3
  22334528.826    -9855855.367 7  -7679875.553 7
  21657520.406   -14216814.172 8 -11078029.116 9
  21893928.348   -15111503.275 7 -11775190.292 7
 92  4 11  9 55  0.0030000  0  5  3 11 17 23 21
  24236620.533     1398252.519 5   1089554.695 2
  25579159.806    -1835726.441 5  -1430436.134 2
  22345092.629    -9800330.193 7  -7636609.212 7
  21664564.641   -14179766.760 8 -11049161.023 9
  21887900.136   -15143195.590 7 -11799885.587 8
 92  4 11  9 55 30.0030000  0  5  3 11 17 23 21
  24259895.529     1520543.322 5   1184846.174 4
  25559333.950    -1939911.528 5  -1511619.348 3
  22355712.762    -9744534.865 7  -7593132.350 7
  21671667.926   -14142445.609 8 -11020079.598 9
  21881927.973   -15174570.226 7 -11824333.338 8
 92  4 11  9 56  0.0030000  0  5  3 11 17 23 21
  24283215.197     1643114.530 5   1280356.168 2
  25539518.565    -2044048.802 5  -1592765.259 3
  22366379.068    -9688469.499 7  -7549445.072 8
  21678821.852   -14104859.851 8 -10990791.997 9
  21876016.363   -15205629.359 7 -11848535.242 8
 92  4 11  9 56 30.0030000  0  5  3 11 17 23 21
  24306597.791     1765959.699 5   1376079.645 1
  25519701.679    -2148139.397 5  -1673874.851 2
  22377107.148    -9632131.119 7  -7505545.069 7
  21686024.081   -14067011.251 8 -10961299.586 9
  21870165.305   -15236383.487 7 -11872499.487 8
 92  4 11  9 57  0.0030000  0  5  3 11 17 23 21
  24330023.592     1889080.735 5   1472018.090 3
  25499913.586    -2252176.034 5  -1754942.380 2
  22387883.495    -9575499.669 7  -7461416.686 7
  21693276.950   -14028888.846 8 -10931593.825 9
  21864369.424   -15266833.637 7 -11896226.858 8
 92  4 11  9 57 30.0030000  0  5  3 11 17 23 21
  24353506.629     2012473.987 5   1568168.637 4
  25480115.267    -2356157.193 5  -1835966.662 4
  22398709.296    -9518590.892 7  -7417072.217 7
  21700582.902   -13990504.887 8 -10901684.248 9
  21858633.189   -15296981.286 7 -11919718.532 7
 92  4 11  9 58  0.0030000  0  5  3 11 17 23 21
  24377040.027     2136144.266 5   1664535.055 2
  25460342.774    -2460072.581 5  -1916939.694 2
  22409592.369    -9461408.211 7  -7372514.301 7
  21707937.401   -13951853.634 8 -10871566.402 9
  21852954.225   -15326827.179 7 -11942975.071 8
 92  4 11  9 58 30.0030000  0  5  3 11 17 23 21
  24400617.191     2260086.415 5   1761113.304 2
  25440591.536    -2563922.339 5  -1997861.607 1
  22420526.989    -9403954.614 7  -7327745.290 7
  21715344.076   -13912933.233 8 -10841238.812 9
  21847327.402   -15356382.840 7 -11966005.455 8
 92  4 11  9 59  0.0030000  0  5  3 11 17 23 21
  24424256.129     2384288.339 5   1857894.015 2
  25420830.420    -2667713.076 5  -2078737.514 3
  22431504.188    -9346255.943 7  -7282785.309 7
  21722798.111   -13873768.947 8 -10810721.197 9
  21841754.884   -15385651.832 7 -11988812.455 8
 92  4 11  9 59 30.0030000  0  5  3 11 17 23 21
  24447951.430     2508756.226 5   1954881.909 2
  25401101.693    -2771433.164 5  -2159558.345 2
  22442526.060    -9288320.946 7  -7237641.181 7
  21730294.446   -13834370.946 8 -10780021.459 9
  21836246.479   -15414625.445 7 -12011389.297 8
 92  4 11 10  0  0.0030000  0  5  3 11 17 23 21
  24471681.493     2633488.869 5   2052076.106 2
  25381376.839    -2875078.586 5  -2240321.022 1
  22453604.889    -9230128.820 7  -7192296.683 6
  21737836.011   -13794735.567 8 -10749136.767 9
  21830790.250   -15443293.929 7 -12033728.368 8
 92  4 11 10  0 30.0030000  0  5  3 11 17 23 21
  24495470.642     2758482.114 5   2149473.396 2
  25361663.084    -2978647.828 4  -2321024.334 3
  22464725.389    -9171676.202 7  -7146749.210 7
  21745423.749   -13754871.556 8 -10718073.914 9
  21825397.295   -15471637.062 7 -12055813.911 8
 92  4 11 10  1  0.0030000  0  5  3 11 17 23 21
  24519292.737     2883732.710 5   2247071.266 2
  25341976.028    -3082138.855 5  -2401666.737 3
  22475900.474    -9112957.346 7  -7100994.295 7
  21753054.660   -13714772.345 8 -10686827.783 9
  21820066.079   -15499650.261 7 -12077642.374 8
 92  4 11 10  1 30.0030000  0  5  3 11 17 23 21
  24543184.109     3009236.754 5   2344866.560 2
  25322289.530    -3185550.123 5  -2482246.954 2
  22487130.980    -9053958.627 7  -7055021.302 7
  21760732.058   -13674427.428 8 -10655390.186 9
  21814797.823   -15527333.952 7 -12099214.070 8
 92  4 11 10  2  0.0030000  0  5  3 11 17 23 21
  24567116.245     3134983.266 5   2442850.810 2
  25302629.765    -3288886.960 4  -2562769.186 2
  22498407.974    -8994670.704 7  -7008822.943 6
  21768452.906   -13633845.392 8 -10623767.834 9
  21809591.620   -15554693.387 7 -12120533.095 8
 92  4 11 10  2 30.0030000  0  5  3 11 17 23 21
  24591084.049     3260973.224 5   2541024.807 3
  25282978.970    -3392143.183 5  -2643228.576 2
  22509747.335    -8935100.155 7  -6962404.354 7
  21776221.743   -13593033.811 8 -10591966.611 9
  21804446.598   -15581733.525 7 -12141603.323 9
 92  4 11 10  3  0.0030000  0  5  3 11 17 23 21
  24615109.998     3387214.186 5   2639394.331 2
  25263346.463    -3495305.666 4  -2723614.940 2
  22521132.241    -8875241.576 7  -6915761.348 7
  21784034.625   -13551980.981 8 -10559977.403 9
  21799356.719   -15608466.680 7 -12162434.342 8
 92  4 11 10  3 30.0030000  0  5  3 11 17 23 21
  24639186.342     3513699.082 6   2737953.982 2
  25243734.931    -3598376.021 5  -2803929.500 3
  22532577.420    -8815104.925 7  -6868901.641 7
  21791889.177   -13510706.411 8 -10527815.404 9
  21794327.391   -15634903.422 7 -12183034.396 8
 92  4 11 10  4  0.0030000  0  5  3 11 17 23 21
  24663294.167     3640422.035 5   2836699.129 1
  25224150.098    -3701354.354 5  -2884172.328 2
  22544074.461    -8754704.405 7  -6821836.331 6
  21799782.713   -13469208.191 8 -10495479.141 9
  21789349.333   -15661052.732 7 -12203410.487 9
 92  4 11 10  4 30.0030000  0  5  3 11 17 23 21
  24687452.632     3767388.999 5   2935634.411 4
  25204563.450    -3804229.449 5  -2964334.756 2
  22555613.173    -8694055.450 7  -6774577.418 6
  21807727.518   -13427460.420 8 -10462948.426 9
  21784429.453   -15686917.044 7 -12223564.495 8
 92  4 11 10  5  0.0030000  0  5  3 11 17 23 21
  24711663.274     3894592.248 5   3034753.757 1
  25184996.905    -3907003.572 5  -3044418.490 1
  22567204.655    -8633160.845 7  -6727127.110 7
  21815720.905   -13385451.040 8 -10430213.853 9
  21779562.029   -15712494.428 7 -12243494.905 9
 92  4 11 10  5 30.0030000  0  5  3 11 17 23 21
  24735915.272     4022031.027 5   3134056.683 2
  25165463.620    -4009671.590 5  -3124419.525 2
  22578836.900    -8572014.572 7  -6679480.698 6
  21823767.933   -13343170.378 8 -10397267.886 9
  21774755.751   -15737767.513 7 -12263188.194 8
 92  4 11 10  6  0.0030000  0  5  3 11 17 23 21
  24760204.475     4149694.343 5   3233534.531 2
  25145955.219    -4112238.888 5  -3204342.100 2
  22590521.007    -8510622.687 7  -6631642.888 6
  21831864.415   -13300623.815 8 -10364114.729 9
  21770000.427   -15762740.405 7 -12282647.569 8
 92  4 11 10  6 30.0030000  0  5  3 11 17 23 21
  24784535.034     4277581.039 5   3333186.475 3
  25126455.822    -4214701.567 5  -3284183.157 2
  22602249.473    -8448968.071 7  -6583600.355 6
  21840007.664   -13257818.032 8 -10330759.584 9
  21765307.191   -15787407.262 7 -12301868.485 8
 92  4 11 10  7  0.0030000  0  5  3 11 17 23 21
  24808912.953     4405693.594 4   3433014.416 2
  25106981.309    -4317051.186 5  -3363936.132 3
  22614041.214    -8387029.317 7  -6535336.395 7
  21848203.403   -13214756.030 8 -10297204.798 9
  21760673.599   -15811757.180 7 -12320842.431 9
 92  4 11 10  7 30.0030000  0  5  3 11 17 23 21
  24833345.736     4534026.837 4   3533014.291 2
  25087527.458    -4419287.024 6  -3443600.386 2
  22625879.721    -8324808.373 7  -6486852.576 7
  21856445.001   -13171455.197 8 -10263463.895 9
  21756099.653   -15835802.075 7 -12339578.689 9
 92  4 11 10  8  0.0030000  0  5  3 11 17 23 21
  24857803.403     4662576.768 4   3633182.997 2
  25068094.337    -4521407.787 5  -3523175.002 2
  22637775.778    -8262298.839 7  -6438143.881 6
  21864727.956   -13127928.600 8 -10229547.076 9
  21751576.382   -15859557.629 7 -12358089.509 8
 92  4 11 10  8 30.0030000  0  5  3 11 17 23 21
  24882304.835     4791339.922 4   3733517.873 2
  25048679.748    -4623411.044 5  -3602658.075 1
  22649727.014    -8199507.701 7  -6389215.739 7
  21873050.803   -13084171.715 8 -10195450.802 9
  21747112.791   -15883030.936 7 -12376380.390 8
 92  4 11 10  9  0.0030000  0  5  3 11 17 23 21
  24906856.628     4920311.437 5   3834015.111 2
  25029292.486    -4725296.388 5  -3682049.247 4
  22661726.516    -8136450.283 7  -6340080.116 7
  21881423.697   -13040196.055 8 -10161184.056 9
  21742696.560   -15906221.899 7 -12394451.255 9
 92  4 11 10  9 30.0030000  0  5  3 11 17 23 21
  24931436.028     5049488.463 5   3934672.505 2
  25009923.791    -4827060.530 5  -3761345.995 4
  22673778.753    -8073130.253 7  -6290739.859 7
  21889828.699   -12996012.855 8 -10126755.601 9
  21738341.160   -15929118.045 7 -12412292.400 9
 92  4 11 10 10  0.0030000  0  5  3 11 17 23 21
  24956053.189     5178870.323 5   4035489.457 2
  24990588.985    -4928698.626 5  -3840544.514 3
  22685871.196    -8009550.822 7  -6241197.481 7
  21898279.525   -12951606.910 8 -10092153.588 9
  21734040.344   -15951705.692 7 -12429893.146 9
 92  4 11 10 10 30.0030000  0  5  3 11 17 23 21
  24980709.300     5308457.743 5   4136466.632 2
  24971277.527    -5030204.377 5  -3919639.904 2
  22698021.189    -7945722.078 7  -6191460.830 6
  21906775.338   -12906972.035 8 -10057373.171 9
  21729807.584   -15973955.701 7 -12447230.805 9
 92  4 11 10 11  0.0030000  0  5  3 11 17 23 21
  25005405.930     5438245.372 5   4237599.821 2
  24951977.202    -5131577.224 5  -3998631.718 4
  22710210.760    -7881636.546 7  -6141524.083 6
  21915307.762   -12862121.731 8 -10022424.893 9
  21725638.344   -15995866.290 7 -12464303.991 9
 92  4 11 10 11 30.0030000  0  5  3 11 17 23 21
  25030148.699     5568233.513 5   4338889.214 1
  24932712.232    -5232811.145 5  -4077515.282 2
  22722461.755    -7817282.285 7  -6091377.922 7
  21923883.322   -12817049.706 8  -9987303.845 9
  21721530.597   -16017445.525 7 -12481118.969 8
 92  4 11 10 12  0.0030000  0  5  3 11 17 23 21
  25054924.448     5698420.846 5   4440333.893 1
  24913477.555    -5333901.819 5  -4156287.243 3
  22734756.550    -7752654.192 7  -6041018.403 6
  21932505.056   -12771753.507 8  -9952008.108 9
  21717487.591   -16038706.039 7 -12497685.589 9
 92  4 11 10 12 30.0030000  0  5  3 11 17 23 21
  25079730.177     5828797.466 5   4541926.021 3
  24894273.137    -5434853.653 5  -4234951.001 5
  22747105.022    -7687747.925 7  -5990442.110 6
  21941160.957   -12726260.797 8  -9916559.267 9
  21713499.169   -16059669.465 7 -12514020.701 9
 92  4 11 10 13  0.0030000  0  5  3 11 17 23 21
  25104576.076     5959368.582 5   4643669.737 2
  24875078.944    -5535655.090 5  -4313497.556 3
  22759520.328    -7622547.504 7  -5939636.611 6
  21949857.622   -12680562.448 8  -9880950.172 9
  21709562.889   -16080353.861 7 -12530138.399 9
 92  4 11 10 13 30.0030000  0  5  3 11 17 23 21
  25129461.831     6090128.354 5   4745560.443 2
  24855930.297    -5636306.618 5  -4391927.289 2
  22771973.990    -7557060.178 7  -5888607.532 7
  21958593.899   -12634649.219 8  -9845173.639 9
  21705678.470   -16100762.305 7 -12546041.080 9
 92  4 11 10 14  0.0030000  0  5  3 11 17 23 21
  25154381.475     6221070.649 4   4847593.350 2
  24836807.126    -5736808.285 5  -4470240.274 3
  22784494.836    -7491303.302 7  -5837368.449 7
  21967374.221   -12588517.988 8  -9809227.230 9
  21701846.821   -16120893.048 7 -12561727.366 8
 92  4 11 10 14 30.0030000  0  5  3 11 17 23 21
  25179336.822     6352194.491 4   4949767.686 2
  24817712.156    -5837155.431 5  -4548432.840 3
  22797054.944    -7425277.007 7  -5785919.417 6
  21976191.397   -12542160.093 8  -9773104.189 9
  21698067.628   -16140747.470 7 -12577198.330 9
 92  4 11 10 15  0.0030000  0  5  3 11 17 23 21
  25204311.923     6483499.016 4   5052082.877 2
  24798654.354    -5937343.035 6  -4626501.072 3
  22809661.191    -7358991.748 7  -5734268.601 6
  21985062.250   -12495564.360 8  -9736795.829 9
  21694346.613   -16160311.530 7 -12592443.035 9
 92  4 11 10 15 30.0030000  0  5  3 11 17 23 21
  25229329.009     6614975.393 4   5154531.933 2
  24779618.435    -6037374.104 5  -4704447.367 3
  22822323.837    -7292458.066 7  -5682424.185 6
  21993970.586   -12448750.609 8  -9700317.585 9
  21690683.149   -16179575.081 7 -12607453.578 9
 92  4 11 10 16  0.0030000  0  5  3 11 17 23 21
  25254381.170     6746629.167 4   5257119.315 2
  24760617.591    -6137237.537 5  -4782263.019 4
  22835041.939    -7225670.215 7  -5630381.750 6
  22002917.313   -12401723.748 8  -9663673.280 9
  21687075.736   -16198523.710 7 -12622218.746 9
 92  4 11 10 16 30.0030000  0  5  3 11 17 23 21
  25279462.996     6878454.852 4   5359840.529 1
  24741635.314    -6236932.490 5  -4859947.408 4
  22847796.897    -7158620.287 7  -5578135.070 6
  22011905.361   -12354496.160 8  -9626872.561 9
  21683530.096   -16217157.957 7 -12636738.932 9
 92  4 11 10 17  0.0030000  0  5  3 11 17 23 21
  25304592.182     7010451.505 5   5462694.982 2
  24722684.831    -6336454.113 5  -4937496.714 4
  22860609.719    -7091311.430 7  -5525686.665 6
  22020927.927   -12307079.242 8  -9589924.324 9
  21680042.321   -16235471.192 7 -12651008.987 9
 92  4 11 10 17 30.0030000  0  5  3 11 17 23 21
  25329749.881     7142612.677 4   5565677.692 2
  24703799.124    -6435803.094 6  -5014911.498 2
  22873466.935    -7023742.701 7  -5473035.719 6
  22029989.441   -12259471.602 8  -9552827.458 9
  21676617.506   -16253479.039 7 -12665041.083 9
 92  4 11 10 18  0.0030000  0  5  3 11 17 23 21
  25354919.866     7274936.875 4   5668787.483 1
  24684920.292    -6534975.250 6  -5092188.493 4
  22886376.292    -6955916.309 7  -5420184.016 6
  22039086.065   -12211659.151 8  -9515571.020 9
  21673245.112   -16271191.163 7 -12678842.738 9
 92  4 11 10 18 30.0030000  0  5  3 11 17 23 21
  25380135.396     7407429.101 5   5772028.103 1
  24666081.037    -6633959.523 6  -5169319.093 3
  22899328.541    -6887824.942 7  -5367125.841 6
  22048224.046   -12163637.323 8  -9478151.410 9
  21669929.117   -16288608.458 7 -12692414.645 9
 92  4 11 10 19  0.0030000  0  5  3 11 17 23 21
  25405374.309     7540077.765 4   5875390.699 2
  24647280.730    -6732761.584 6  -5246307.699 4
  22912336.213    -6819478.386 7  -5313868.807 6
  22057402.791   -12115411.889 8  -9440573.155 9
  21666669.486   -16305740.301 7 -12705764.127 9
 92  4 11 10 19 30.0030000  0  5  3 11 17 23 21
  25430642.643     7672880.563 4   5978873.338 2
  24628512.847    -6831377.799 6  -5323151.481 4
  22925387.999    -6750871.473 6  -5260408.895 6
  22066618.984   -12066980.307 8  -9402834.255 9
  21663461.403   -16322591.532 7 -12718894.941 9
 92  4 11 10 20  0.0030000  0  5  3 11 17 23 21
  25455950.519     7805838.081 5   6082476.598 2
  24609793.789    -6929801.535 6  -5399845.288 3
  22938498.801    -6681999.094 6  -5206742.135 6
  22075871.194   -12018356.653 8  -9364945.707 9
  21660313.279   -16339157.223 7 -12731803.258 9
 92  4 11 10 20 30.0030000  0  5  3 11 17 23 21
  25481269.180     7938936.319 5   6186189.450 2
  24591093.333    -7028041.242 6  -5476395.710 3
  22951654.904    -6612870.155 6  -5152875.464 6
  22085161.166   -11969553.114 8  -9326916.970 9
  21657213.422   -16355448.125 7 -12744497.469 9
 92  4 11 10 21  0.0030000  0  5  3 11 17 23 21
  25506635.828     8072179.040 5   6290014.887 2
  24572436.956    -7126087.007 6  -5552795.012 2
  22964856.866    -6543475.360 6  -5098801.629 5
  22094483.805   -11920551.988 8  -9288734.279 9
  21654165.428   -16371462.573 7 -12756976.252 9
 92  4 11 10 21 30.0030000  0  5  3 11 17 23 21
  25532017.135     8205568.595 5   6393954.819 2
  24553804.556    -7223930.532 5  -5629036.722 3
  22978114.878    -6473806.838 6  -5044514.496 6
  22103846.336   -11871346.400 8  -9250392.262 9
  21651174.705   -16387191.755 7 -12769232.754 9
 92  4 11 10 22  0.0030000  0  5  3 11 17 23 21
  25557418.580     8339101.048 4   6498006.053 2
  24535244.714    -7321569.946 6  -5705119.385 2
  22991423.566    -6403864.975 6  -4990014.368 5
  22113252.911   -11821924.731 8  -9211881.883 9
  21648234.622   -16402622.744 7 -12781256.901 9
 92  4 11 10 22 30.0030000  0  5  3 11 17 23 21
  25582863.440     8472774.144 4   6602166.940 1
  24516695.341    -7419001.366 6  -5781039.995 2
  23004788.025    -6333631.454 6  -4935286.980 6
  22122698.469   -11772282.674 8  -9173199.761 9
  21645360.536   -16417747.597 7 -12793042.500 9
 92  4 11 10 23  0.0030000  0  4 11 17 23 21
  24498187.361    -7516230.288 5  -5856802.762 5
  23018204.625    -6263103.846 6  -4880330.431 4
  22132180.917   -11722442.256 8  -9134363.078 9
  21642539.185   -16432571.180 7 -12804593.350 9
 92  4 11 10 23 30.0030000  0  4 11 17 23 21
  24479733.337    -7613249.939 6  -5932402.474 4
  23031690.188    -6192276.628 6  -4825140.418 5
  22141707.410   -11672399.200 8  -9095368.492 9
  21639776.606   -16447080.657 7 -12815899.443 9
 92  4 11 10 24  0.0030000  0  4 11 17 23 21
  24461323.986    -7710050.392 6  -6007831.378 4
  23045222.239    -6121148.495 6  -4769715.915 3
  22151264.196   -11622146.720 8  -9056210.723 9
  21637071.857   -16461285.845 7 -12826968.419 9
 92  4 11 10 24 30.0030000  0  4 11 17 23 21
  24442926.605    -7806636.488 5  -6083093.269 1
  23058811.526    -6049736.325 6  -4714070.083 5
  22160865.062   -11571703.773 8  -9016904.530 9
  21634423.194   -16475213.612 7 -12837821.227 9
 92  4 11 10 25  0.0030000  0  4 11 17 23 21
  24424579.900    -7903005.946 5  -6158186.329 3
  23072449.080    -5978065.804 6  -4658222.960 5
  22170503.375   -11521062.757 8  -8977443.997 9
  21631824.298   -16488868.827 7 -12848461.648 9
 92  4 11 10 25 30.0030000  0  4 11 17 23 21
  24406291.060    -7999153.184 6  -6233106.243 3
  23086137.904    -5906139.386 6  -4602176.429 5
  22180179.766   -11470223.397 8  -8937828.915 9
  21629278.171   -16502250.484 7 -12858888.897 9
 92  4 11 10 26  0.0030000  0  4 11 17 23 21
  24388043.018    -8095076.979 6  -6307852.029 4
  23099871.993    -5833967.497 6  -4545938.609 5
  22189882.575   -11419213.625 8  -8898081.056 9
  21626781.185   -16515362.451 7 -12869106.005 9
 92  4 11 10 26 30.0030000  0  4 11 17 23 21
  24369830.330    -8190767.318 6  -6382415.925 5
  23113660.352    -5761543.676 7  -4489504.486 5
  22199620.425   -11368050.841 8  -8858213.968 9
  21624343.564   -16528173.979 7 -12879089.019 9
 92  4 11 10 27  0.0030000  0  4 11 17 23 21
  24351663.188    -8286223.326 6  -6456797.206 3
  23127484.659    -5688874.086 6  -4432878.855 5
  22209386.753   -11316740.809 8  -8818232.132 9
  21621968.310   -16540674.196 7 -12888829.437 9
 92  4 11 10 27 30.0030000  0  4 11 17 23 21
  24333556.633    -8381447.933 6  -6530998.184 4
  23141353.080    -5615967.123 6  -4376068.245 5
  22219173.499   -11265293.544 8  -8778143.370 9
  21619642.231   -16552870.507 7 -12898333.049 9
 92  4 11 10 28  0.0030000  0  4 11 17 23 21
  24315471.052    -8476431.442 6  -6605011.317 2
  23155273.921    -5542814.446 6  -4319066.184 5
  22228995.284   -11213689.067 8  -8737932.099 9
  21617385.988   -16564754.360 7 -12907593.188 9
 92  4 11 10 28 30.0030000  0  4 11 17 23 21
  24297457.716    -8571167.512 6  -6678831.604 2
  23169246.066    -5469402.857 6  -4261862.353 5
  22238850.957   -11161885.975 8  -8697566.057 9
  21615178.919   -16576322.773 7 -12916607.524 9
 92  4 11 10 29  0.0030000  0  4 11 17 23 21
  24279463.889    -8665651.739 6  -6752455.682 3
  23183264.664    -5395728.430 6  -4204453.744 5
  22248755.492   -11109849.657 8  -8657018.292 9
  21613036.591   -16587593.463 7 -12925389.885 9
 92  4 11 10 29 30.0030000  0  4 11 17 23 21
  24261530.894    -8759890.669 6  -6825888.604 4
  23197337.811    -5321784.926 6  -4146835.460 5
  22258696.322   -11057591.186 8  -8616297.403 9
  21610946.753   -16598580.035 7 -12933950.850 9
 92  4 11 10 30  0.0030000  0  4 11 17 23 21
  24243648.888    -8853872.302 6  -6899121.048 4
  23211458.038    -5247561.556 6  -4088999.106 5
  22268685.106   -11005107.750 8  -8575401.227 9
  21608906.962   -16609281.095 7 -12942289.331 9
 92  4 11 10 30 30.0030000  0  4 11 17 23 21
  24225815.114    -8947591.502 6  -6972148.991 4
  23225638.225    -5173072.853 6  -4030955.987 6
  22278714.374   -10952409.339 8  -8534337.542 9
  21606926.536   -16619704.539 7 -12950411.498 9
 92  4 11 10 31  0.0030000  0  4 11 17 23 21
  24208037.740    -9041047.989 6  -7044972.215 3
  23239859.489    -5098320.996 6  -3972707.832 5
  22288776.310   -10899541.022 8  -8493141.452 9
  21604992.564   -16629860.154 7 -12958324.953 9
 92  4 11 10 31 30.0030000  0  4 11 17 23 21
  24190295.091    -9134245.653 6  -7117593.757 3
  23254137.990    -5023305.238 6  -3914254.028 5
  22298860.127   -10846537.211 8  -8451839.780 9
  21603109.895   -16639752.497 7 -12966033.256 9
 92  4 11 10 32  0.0030000  0  4 11 17 23 21
  24172611.250    -9227175.479 6  -7190006.600 3
  23268465.073    -4948023.185 6  -3855592.715 6
  22308970.609   -10793397.244 8  -8410432.019 9
  21601281.461   -16649376.914 7 -12973532.796 9
 92  4 11 10 32 30.0030000  0  4 11 17 23 21
  24154976.863    -9319838.157 6  -7262211.284 3
  23282839.515    -4872470.801 6  -3796720.739 5
  22319108.104   -10740138.821 8  -8368931.961 9
  21599501.574   -16658720.263 7 -12980813.315 9
 92  4 11 10 33  0.0030000  0  4 11 17 23 21
  24137385.647    -9412230.848 6  -7334205.566 4
  23297268.542    -4796642.683 6  -3737633.936 5
  22329267.760   -10686761.379 8  -8327339.157 9
  21597780.773   -16667767.420 7 -12987863.047 9
 92  4 11 10 33 30.0030000  0  4 11 17 23 21
  24119874.144    -9504346.504 6  -7405983.990 4
  23311750.617    -4720555.256 6  -3678345.071 5
  22339451.707   -10633223.451 8  -8285621.308 9
  21596118.116   -16676506.535 7 -12994672.748 9
 92  4 11 10 34  0.0030000  0  4 11 17 23 21
  24102387.560    -9596186.227 6  -7477547.407 3
  23326268.954    -4644230.528 6  -3618871.284 5
  22349675.824   -10579509.800 8  -8243766.523 9
  21594513.638   -16684932.878 7 -13001238.731 9
 92  4 11 10 34 30.0030000  0  4 11 17 23 21
  24084966.031    -9687739.800 6  -7548887.841 5
  23340842.468    -4567661.015 6  -3559206.771 4
  22359932.050   -10525590.772 8  -8201751.699 9
  21592967.305   -16693047.969 7 -13007562.170 9
 92  4 11 10 35  0.0030000  0  4 11 17 23 21
  24067598.736    -9779004.957 6  -7620003.542 4
  23355464.250    -4490849.075 6  -3499353.330 5
  22370243.698   -10471433.498 8  -8159551.230 9
  21591481.837   -16700873.660 8 -13013660.105 9
 92  4 11 10 35 30.0030000  0  4 11 17 23 21
  24050285.433    -9869979.211 6  -7690892.545 3
  23370125.295    -4413779.415 6  -3439299.090 5
  22380593.143   -10417036.733 8  -8117164.150 9
  21590042.509   -16708430.000 8 -13019548.144 9
 92  4 11 10 36  0.0030000  0  4 11 17 23 21
  24033034.462    -9960656.694 6  -7761550.318 5
  23384851.394    -4336433.067 6  -3379029.245 5
  22390984.852   -10362425.577 8  -8074610.003 9
  21588656.577   -16715722.039 7 -13025230.248 9
 92  4 11 10 36 30.0030000  0  4 11 17 23 21
  24015830.292   -10051041.841 6  -7831980.288 4
  23399617.384    -4258808.781 6  -3318542.817 5
  22401413.137   -10307624.863 8  -8031908.153 9
  21587316.505   -16722766.018 7 -13030719.055 9
 92  4 11 10 37  0.0030000  0  4 11 17 23 21
  23998697.738   -10141118.720 6  -7902170.061 3
  23414445.428    -4180894.339 6  -3257830.315 5
  22411876.497   -10252651.562 8  -7989071.803 9
  21586027.388   -16729535.691 7 -13035994.128 9
 92  4 11 10 37 30.0030000  0  4 11 17 23 21
  23981614.359   -10230885.448 6  -7972118.141 4
  23429321.110    -4102691.118 6  -3196892.767 5
  22422359.332   -10197542.378 8  -7946129.588 9
  21584794.670   -16736017.416 8 -13041044.834 9
 92  4 11 10 38  0.0030000  0  4 11 17 23 21
  23964588.251   -10320346.096 6  -8041827.725 4
  23444254.064    -4024221.894 6  -3135747.975 4
  22432869.144   -10142309.933 8  -7903091.325 9
  21583610.777   -16742208.326 7 -13045868.927 9
 92  4 11 10 38 30.0030000  0  4 11 17 23 21
  23947629.606   -10409491.590 6  -8111291.738 5
  23459239.194    -3945482.568 6  -3074392.701 5
  22443410.751   -10086940.688 8  -7859946.475 9
  21582495.254   -16748096.023 7 -13050456.734 9
 92  4 11 10 39  0.0030000  0  4 11 17 23 21
  23930720.694   -10498321.203 6  -8180509.614 4
  23474271.405    -3866484.567 6  -3012835.858 5
  22453971.832   -10031431.381 8  -7816692.470 9
  21581432.187   -16753682.514 7 -13054809.840 9
 92  4 11 10 39 30.0030000  0  4 11 17 23 21
  23913877.151   -10586827.756 6  -8249475.754 3
  23489350.976    -3787241.372 6  -2951087.936 5
  22464563.521    -9975763.635 8  -7773315.008 9
  21580423.390   -16758975.176 7 -13058933.982 9
 92  4 11 10 40  0.0030000  0  4 11 17 23 21
  23897100.791   -10675003.700 6  -8318184.271 5
  23504475.498    -3707756.012 6  -2889151.338 4
  22475187.248    -9919922.580 8  -7729802.505 9
  21579473.051   -16763980.437 8 -13062834.178 9
 92  4 11 10 40 30.0030000  0  4 11 17 23 21
  23880376.258   -10762860.564 6  -8386644.162 4
  23519643.786    -3628039.275 6  -2827034.447 5
  22485842.770    -9863929.593 8  -7686171.609 9
  21578574.260   -16768713.164 7 -13066522.025 9
 92  4 11 10 41  0.0030000  0  4 11 17 23 21
  23863721.875   -10850390.326 6  -8454849.165 5
  23534861.842    -3548092.896 6  -2764738.600 5
  22496530.086    -9807782.316 8  -7642420.486 9
  21577721.363   -16773179.440 7 -13070002.234 9
 92  4 11 10 41 30.0030000  0  4 11 17 23 21
  23847130.766   -10937579.639 6  -8522788.885 5
  23550124.605    -3467896.448 6  -2702247.901 3
  22507243.159    -9751481.096 7  -7598549.406 9
  21576923.016   -16777378.248 7 -13073274.049 9
 92  4 11 10 42  0.0030000  0  4 11 17 23 21
  23830600.210   -11024425.669 6  -8590461.101 4
  23565436.473    -3387427.467 6  -2639544.838 5
  22517985.338    -9695034.560 7  -7554565.092 9
  21576175.309   -16781301.787 7 -13076331.358 9
 92  4 11 10 42 30.0030000  0  4 11 17 23 21
  23814143.712   -11110940.147 6  -8657874.982 4
  23580793.642    -3306695.653 6  -2576636.966 5
  22528751.774    -9638448.965 7  -7510472.428 9
  21575479.499   -16784962.006 7 -13079183.477 9
 92  4 11 10 43  0.0030000  0  4 11 17 23 21
  23797747.453   -11197117.109 6  -8725025.859 4
  23596206.582    -3225702.472 6  -2513525.440 5
  22539547.281    -9581710.689 8  -7466260.789 9
  21574830.456   -16788364.667 8 -13081834.913 9
 92  4 11 10 43 30.0030000  0  4 11 17 23 21
  23781408.465   -11282951.974 6  -8791910.155 3
  23611679.759    -3144439.815 6  -2450203.924 4
  22550376.398    -9524811.235 7  -7421923.554 9
  21574238.056   -16791494.602 7 -13084273.843 9
 92  4 11 10 44  0.0030000  0  4 11 17 23 21
  23765140.220   -11368442.488 6  -8858526.137 4
  23627183.231    -3062911.285 6  -2386675.227 4
  22561237.274    -9467737.349 7  -7377450.410 9
  21573696.052   -16794340.593 7 -13086491.493 9
 92  4 11 10 44 30.0030000  0  4 11 17 23 21
  23748945.161   -11453581.190 6  -8924867.971 4
  23642748.476    -2981126.639 6  -2322946.982 5
  22572135.633    -9410485.083 7  -7332838.266 9
  21573204.095   -16796912.801 8 -13088495.807 9
 92  4 11 10 45  0.0030000  0  4 11 17 23 21
  23732800.709   -11538371.256 6  -8990938.150 3
  23658364.955    -2899085.138 6  -2259018.590 3
  22583059.783    -9353072.026 7  -7288100.818 9
  21572765.781   -16799215.590 8 -13090290.185 9
 92  4 11 10 45 30.0030000  0  4 11 17 23 21
  23716738.446   -11622793.438 6  -9056721.655 4
  23674027.922    -2816761.834 6  -2194870.595 5
  22594012.377    -9295493.175 7  -7243234.188 9
  21572386.239   -16801224.716 7 -13091855.747 9
 92  4 11 10 46  0.0030000  0  4 11 17 23 21
  23700749.021   -11706855.391 6  -9122224.468 5
  23689745.123    -2734170.313 6  -2130513.614 4
  22604995.893    -9237771.640 7  -7198256.367 9
  21572054.091   -16802959.830 7 -13093207.793 9
 92  4 11 10 46 30.0030000  0  4 11 17 23 21
  23684817.147   -11790556.803 6  -9187446.346 4
  23705510.627    -2651313.683 6  -2065950.023 5
  22616009.354    -9179921.734 7  -7153178.521 9
  21571775.865   -16804418.143 8 -13094344.156 9
 92  4 11 10 47  0.0030000  0  4 11 17 23 21
  23668955.422   -11873888.210 6  -9252379.903 4
  23721327.365    -2568186.096 6  -2001175.333 5
  22627039.043    -9121936.074 7  -7107994.905 8
  21571555.818   -16805584.071 8 -13095252.668 9
 92  4 11 10 47 30.0030000  0  4 11 17 23 21
  23653179.728   -11956849.479 6  -9317025.049 5
  23737195.371    -2484812.171 6  -1936208.687 5
  22638102.865    -9063816.999 7  -7062707.316 9
  21571386.446   -16806468.479 7 -13095941.826 9
 92  4 11 10 48  0.0030000  0  4 11 17 23 21
  23637456.244   -12039440.530 6  -9381381.702 5
  23753107.457    -2401204.354 6  -1871059.792 4
  22649190.385    -9005567.288 7  -7017317.940 9
  21571268.029   -16807082.523 8 -13096420.305 9
 92  4 11 10 48 30.0030000  0  4 11 17 23 21
  23621813.973   -12121652.167 6  -9445442.697 4
  23769066.624    -2317359.841 6  -1805726.444 4
  22660293.818    -8947169.451 7  -6971813.143 9
  21571205.068   -16807422.367 8 -13096685.104 9
 92  4 11 10 49  0.0030000  0  4 11 17 23 21
  23606246.948   -12203483.442 6  -9509207.322 5
  23785055.735    -2233289.581 6  -1740217.178 5
  22671441.890    -8888620.262 7  -6926190.399 8
  21571192.469   -16807497.921 8 -13096744.028 9
 92  4 11 10 49 30.0030000  0  4 11 17 23 21
  23590742.883   -12284933.951 6  -9572675.238 5
  23801100.931    -2148991.106 6  -1674530.117 5
  22682616.346    -8829920.170 7  -6880450.069 9
  21571226.043   -16807308.418 7 -13096596.323 9
 92  4 11 10 50  0.0030000  0  4 11 17 23 21
  23575316.751   -12365998.488 6  -9635842.399 4
  23817193.207    -2064447.337 6  -1608651.909 4
  22693811.499    -8771066.206 7  -6834589.828 8
  21571313.888   -16806836.353 8 -13096228.476 9
 92  4 11 10 50 30.0030000  0  4 11 17 23 21
  23559961.362   -12446675.274 6  -9698707.419 5
  23833325.026    -1979666.298 6  -1542588.806 4
  22705033.629    -8712055.858 7  -6788607.749 9
  21571460.784   -16806080.869 8 -13095639.782 9
 92  4 11 10 51  0.0030000  0  4 11 17 23 21
  23544685.756   -12526958.979 6  -9761266.145 5
  23849498.237    -1894645.405 6  -1476338.789 3
  22716301.025    -8652900.409 7  -6742512.606 8
  21571658.041   -16805037.743 8 -13094826.948 9
 92  4 11 10 51 30.0030000  0  4 11 17 23 21
  23529487.768   -12606852.883 6  -9823521.118 5
  23865727.498    -1809388.656 6  -1409905.014 5
  22727579.520    -8593611.634 7  -6696313.569 8
  21571910.162   -16803724.713 8 -13093803.800 9
 92  4 11 10 52  0.0030000  0  4 11 17 23 21
  23514357.836   -12686352.017 6  -9885468.493 5
  23881985.552    -1723900.109 6  -1343290.591 4
  22738881.991    -8534193.211 7  -6650013.508 8
  21572205.489   -16802153.625 8 -13092579.574 9
 92  4 11 10 52 30.0030000  0  4 11 17 23 21
  23499299.275   -12765449.076 6  -9947102.553 4
  23898308.032    -1638172.601 6  -1276489.982 4
  22750217.757    -8474640.674 7  -6603608.942 7
  21572552.016   -16800339.406 7 -13091165.876 9
 92  4 11 10 53  0.0030000  0  4 11 17 23 21
  23484331.526   -12844141.144 6 -10008421.037 5
  23914665.307    -1552193.898 6  -1209493.641 3
  22761576.592    -8414953.560 7  -6557099.498 9
  21572942.656   -16798280.641 7 -13089561.641 9
 92  4 11 10 53 30.0030000  0  4 11 17 23 21
  23469422.862   -12922427.333 6 -10069423.257 3
  23931074.759    -1465965.252 6  -1142302.529 2
  22772962.999    -8355127.914 7  -6510482.125 9
  21573379.156   -16795983.428 7 -13087771.601 9
 92  4 11 10 54  0.0030000  0  4 11 17 23 21
  23454606.231   -13000303.082 6 -10130105.651 4
  23947537.853    -1379471.724 6  -1074905.021 5
  22784373.417    -8295165.025 7  -6463757.808 8
  21573865.738   -16793439.992 7 -13085789.704 9
 92  4 11 10 54 30.0030000  0  4 11 17 23 21
  23439874.723   -13077763.891 7 -10190464.702 5
  23964040.524    -1292711.265 6  -1007299.530 3
  22795805.404    -8235068.276 7  -6416929.173 8
  21574398.458   -16790629.761 7 -13083599.892 9
 92  4 11 10 55  0.0030000  0  5 12 11 17 23 21
  25377478.949       -7453.61814     -5814.465 2
  23425209.176   -13154807.281 6 -10250498.512 5
  23980606.469    -1205692.298 6   -939492.574 4
  22807272.745    -8174841.449 7  -6369999.182 8
  21574987.263   -16787542.825 8 -13081194.486 9
 92  4 11 10 55 30.0030000  0  5 12 11 17 23 21
  25369007.113      -51907.811 4    -40454.046 2
  23410625.750   -13231431.289 6 -10310205.526 5
  23997211.678    -1118416.187 6   -871485.288 3
  22818750.905    -8114493.150 7  -6322974.548 8
  21575629.711   -16784174.336 7 -13078569.678 9
 92  4 11 10 56  0.0030000  0  5 12 11 17 23 21
  25360641.095      -95901.711 4    -74734.946 2
  23396128.702   -13307632.635 7 -10369583.197 5
  24013869.342    -1030883.362 6   -803277.934 3
  22830256.043    -8054020.159 7  -6275852.727 8
  21576321.612   -16780520.002 7 -13075722.132 9
 92  4 11 10 56 30.0030000  0  5 12 11 17 23 21
  25352366.830     -139433.738 4   -108655.899 3
  23381707.772   -13383409.505 7 -10428630.105 4
  24030574.993     -943106.383 6   -734880.336 4
  22841794.161    -7993416.634 7  -6228629.213 7
  21577072.599   -16776576.090 7 -13072648.944 9
 92  4 11 10 57  0.0030000  0  5 12 11 17 23 21
  25344154.024     -182499.885 4   -142213.884 2
  23367363.623   -13458757.359 7 -10487342.722 3
  24047322.002     -855087.694 6   -666294.404 4
  22853350.847    -7932670.565 7  -6181294.611 8
  21577877.543   -16772355.951 8 -13069360.507 9
 92  4 11 10 57 30.0030000  0  5 12 11 17 23 21
  25336058.729     -225096.501 4   -175406.054 2
  23353114.788   -13533672.469 7 -10545718.139 5
  24064119.058     -766823.358 6   -597517.021 3
  22864930.637    -7871790.015 7  -6133855.224 7
  21578731.068   -16767871.954 8 -13065866.479 9
 92  4 11 10 58  0.0030000  0  5 12 11 17 23 21
  25328032.955     -267221.943 5   -208230.965 2
  23338938.789   -13608152.866 7 -10603754.809 5
  24080955.692     -678324.117 6   -528556.624 2
  22876541.000    -7810775.558 7  -6086311.491 8
  21579631.918   -16763145.268 8 -13062183.339 9
 92  4 11 10 58 30.0030000  0  5 12 11 17 23 21
  25320113.034     -308873.157 5   -240686.363 3
  23324851.857   -13682194.959 7 -10661449.946 5
  24097845.408     -589594.396 6   -459416.636 5
  22888174.746    -7749636.713 7  -6038670.831 7
  21580576.568   -16758172.750 8 -13058308.634 9
 92  4 11 10 59  0.0030000  0  5 12 11 17 23 21
  25312272.581     -350045.735 5   -272768.842 4
  23310845.823   -13755794.181 7 -10718799.990 4
  24114768.385     -500635.145 6   -390097.807 3
  22899839.065    -7688384.362 7  -5990941.748 8
  21581567.706   -16752958.618 8 -13054245.672 9
 92  4 11 10 59 30.0030000  0  5 12 11 17 23 21
  25304531.944     -390735.676 5   -304475.236 2
  23296922.888   -13828946.110 7 -10775801.507 5
  24131743.852     -411444.650 6   -320598.746 4
  22911513.296    -7627019.609 7  -5943125.077 8
  21582608.855   -16747501.785 8 -13049993.580 9
 92  4 11 11  0  0.0030000  0  5 12 11 17 23 21
  25296885.119     -430934.851 5   -335799.225 3
  23283092.857   -13901642.098 7 -10832447.725 4
  24148760.676     -322032.248 5   -250926.837 4
  22923215.691    -7565524.918 7  -5895207.145 7
  21583695.620   -16741781.393 7 -13045536.121 9
 92  4 11 11  0 30.0030000  0  5 12 11 17 23 21
  25289326.173     -470651.639 5   -366747.302 3
  23269341.074   -13973890.404 7 -10888745.114 5
  24165814.949     -232407.569 6   -181089.469 4
  22934941.469    -7503919.197 7  -5847202.699 8
  21584832.432   -16735797.653 7 -13040873.451 9
 92  4 11 11  1  0.0030000  0  5 12 11 17 23 21
  25281858.946     -509876.621 5   -397312.199 3
  23255681.637   -14045681.132 7 -10944685.934 4
  24182910.927     -142570.618 6   -111086.687 3
  22946684.942    -7442199.010 7  -5799109.074 8
  21586023.514   -16729556.709 8 -13036010.382 9
 92  4 11 11  1 30.0030000  0  5 12 11 17 23 21
  25274495.442     -548610.029 5   -427494.058 4
  23242107.322   -14117014.119 7 -11000270.084 6
  24200045.854      -52529.134 6    -40924.553 3
  22958453.579    -7380357.047 7  -5750920.550 8
  21587256.860   -16723062.557 7 -13030950.008 9
 92  4 11 11  2  0.0030000  0  5 12 11 17 23 21
  25267214.374     -586848.966 5   -457290.602 2
  23228619.350   -14187885.815 7 -11055494.788 5
  24217215.263       37718.148 6     29397.942 4
  22970245.633    -7318402.955 7  -5702644.646 8
  21588546.257   -16716304.280 8 -13025683.825 9
 92  4 11 11  2 30.0030000  0  5 12 11 17 23 21
  25260027.432     -624584.722 5   -486695.011 3
  23215223.132   -14258287.441 7 -11110353.198 5
  24234435.941      128191.139 6     99896.323 4
  22982054.754    -7256333.288 7  -5654278.682 7
  21589878.232   -16709283.345 8 -13020212.968 9
 92  4 11 11  3  0.0030000  0  5 12 11 17 23 21
  25252952.346     -661813.932 5   -515704.780 4
  23201916.259   -14328214.962 7 -11164842.176 6
  24251692.286      218889.127 6    170570.015 2
  22993889.352    -7194125.137 7  -5605804.801 7
  21591268.072   -16701986.830 8 -13014527.374 9
 92  4 11 11  3 30.0030000  0  5 12 11 17 23 21
  25245964.476     -698542.913 5   -544324.713 3
  23188702.012   -14397674.259 7 -11218966.296 6
  24268989.745      309823.845 6    241428.193 2
  23005760.246    -7131777.643 7  -5557222.337 7
  21592710.961   -16694411.398 8 -13008624.442 9
 92  4 11 11  4  0.0030000  0  5 12 11 17 23 21
  25239070.453     -734760.630 5   -572546.295 3
  23175578.576   -14466653.974 7 -11272716.727 6
  24286352.502      401019.278 6    312489.507 2
  23017651.802    -7069295.872 7  -5508535.265 8
  21594207.526   -16686545.563 7 -13002495.226 9
 92  4 11 11  4 30.0030000  0  5 12 11 17 23 21
  25232269.964     -770463.049 5   -600366.274 2
  23162537.295   -14535149.514 7 -11326089.873 5
  24303758.152      492475.398 6    383753.967 3
  23029560.459    -7006677.419 7  -5459741.663 7
  21595755.082   -16678398.996 8 -12996147.260 9
 92  4 11 11  5  0.0030000  0  5 12 11 17 23 21
  25225573.513     -805652.350 5   -627786.498 3
  23149594.678   -14603162.550 7 -11379087.049 5
  24321212.383      584186.412 6    455217.044 4
  23041498.816    -6943941.319 7  -5410856.424 7
  21597358.059   -16669990.601 8 -12989595.262 9
 92  4 11 11  5 30.0030000  0  5 12 11 17 23 21
  25218974.468     -840323.641 5   -654803.048 3
  23136747.060   -14670687.699 7 -11431704.040 5
  24338701.969      676151.996 6    526878.461 4
  23053458.427    -6881104.693 7  -5361892.837 6
  21599003.335   -16661338.424 8 -12982853.321 9
 92  4 11 11  6  0.0030000  0  5 12 11 17 23 21
  25212473.774     -874475.214 5   -681414.644 2
  23123990.288   -14737722.613 7 -11483939.033 5
  24356246.139      768347.007 5    598718.696 1
  23065433.046    -6818165.960 7  -5312849.685 7
  21600696.250   -16652451.942 7 -12975928.791 9
 92  4 11 11  6 30.0030000  0  5 12 11 17 23 21
  25206076.803     -908105.906 5   -707620.328 2
  23111330.364   -14804265.765 7 -11535790.830 5
  24373835.853      860763.144 5    670731.193 4
  23077433.735    -6755118.031 7  -5263721.429 7
  21602429.650   -16643342.977 7 -12968830.913 9
 92  4 11 11  7  0.0030000  0  5 12 11 17 23 21
  25199782.649     -941217.750 5   -733421.721 3
  23098758.564   -14870318.673 7 -11587260.644 5
  24391468.426      953395.495 5    742912.179 3
  23089452.712    -6691951.122 7  -5214500.457 7
  21604204.407   -16634011.514 7 -12961559.655 9
 92  4 11 11  7 30.0030000  0  5 12 11 17 23 21
  25193568.557     -973804.108 5   -758813.657 1
  23086291.710   -14935874.113 7 -11638342.801 5
  24409137.888     1046245.509 5    815262.790 5
  23101503.449    -6628644.970 7  -5165171.007 7
  21606024.744   -16624433.317 8 -12954096.116 9
 92  4 11 11  8  0.0030000  0  5 12 11 17 23 21
  25187477.663    -1005861.061 5   -783793.088 2
  23073900.973   -15000927.724 7 -11689033.933 6
  24426844.554     1139325.891 5    887792.875 4
  23113567.726    -6565201.133 7  -5115734.263 7
  21607899.351   -16614602.793 8 -12946435.976 9
 92  4 11 11  8 30.0030000  0  5 12 11 17 23 21
  25181480.931    -1037386.625 5   -808358.370 2
  23061619.371   -15065476.763 7 -11739331.890 5
  24444600.954     1232637.115 5    960502.885 4
  23125666.730    -6501637.787 7  -5066204.392 7
  21609815.350   -16604520.120 8 -12938579.349 9
 92  4 11 11  9  0.0030000  0  5 12 11 17 23 21
  25175588.516    -1068373.982 5   -832504.313 2
  23049432.522   -15129514.030 7 -11789231.058 5
  24462406.213     1326177.688 5   1033391.581 3
  23137791.246    -6437956.269 7  -5016582.444 6
  21611784.084   -16594173.570 7 -12930517.098 9
 92  4 11 11  9 30.0030000  0  5 12 11 17 23 21
  25169787.505    -1098827.590 5   -856234.391 3
  23037344.861   -15193043.198 7 -11838734.300 5
  24480247.176     1419942.290 5   1106454.835 4
  23149925.046    -6374183.430 7  -4966889.327 7
  21613800.491   -16583579.765 7 -12922262.171 9
 92  4 11 11 10  0.0030000  0  5 12 11 17 23 21
  25164094.476    -1128743.186 5   -879545.180 2
  23025352.269   -15256059.662 7 -11887838.053 5
  24498129.811     1513919.294 5   1179683.602 2
  23162074.446    -6310318.906 7  -4917124.772 6
  21615861.257   -16572751.706 8 -12913824.725 9
 92  4 11 11 10 30.0030000  0  5 12 11 17 23 21
  25158503.321    -1158120.560 5   -902436.617 3
  23013458.305   -15318562.340 7 -11936541.442 6
  24516051.987     1608103.744 5   1253074.045 2
  23174245.693    -6246352.806 7  -4867281.057 7
  21617968.476   -16561687.329 8 -12905203.117 9
 92  4 11 11 11  0.0030000  0  5 12 11 17 23 21
  25153029.118    -1186955.017 5   -924904.934 2
  23001664.785   -15380546.112 7 -11984840.495 6
  24534027.247     1702512.001 5   1326638.861 3
  23186441.860    -6182263.767 7  -4817341.545 7
  21620117.121   -16550379.065 7 -12896391.476 9
 92  4 11 11 11 30.0030000  0  5 12 11 17 23 21
  25147635.570    -1215249.078 5   -946952.257 2
  22989966.892   -15442012.655 7 -12032736.498 6
  24552024.703     1797140.605 5   1400375.375 4
  23198655.721    -6118050.709 7  -4767305.403 7
  21622316.686   -16538825.110 8 -12887388.384 9
 92  4 11 11 12  0.0030000  0  5 12 11 17 23 21
  25142354.122    -1242997.955 5   -968574.716 3
  22978370.594   -15502956.757 7 -12080225.417 5
  24570081.491     1891990.645 5   1474284.455 2
  23210903.436    -6053711.322 7  -4717170.817 6
  21624565.112   -16527006.044 8 -12878178.708 9
 92  4 11 11 12 30.0030000  0  5 12 11 17 23 21
  25137177.585    -1270198.101 5   -989769.632 3
  22966872.052   -15563374.084 7 -12127303.862 6
  24588172.760     1987077.785 5   1548378.271 3
  23223168.251    -5989257.258 7  -4666946.880 6
  21626867.214   -16514910.399 8 -12868753.521 9
 92  4 11 11 13  0.0030000  0  5 12 11 17 23 21
  25132114.997    -1296841.922 5  -1010530.956 2
  22955477.549   -15623256.539 7 -12173965.519 6
  24606309.608     2082393.998 6   1622650.585 3
  23235464.826    -5924696.038 7  -4616639.429 7
  21629223.587   -16502532.090 8 -12859108.078 9
 92  4 11 11 13 30.0030000  0  5 12 11 17 23 21
  25127146.537    -1322936.360 5  -1030864.277 3
  22944186.769   -15682610.274 7 -12220215.185 5
  24624491.409     2177915.850 6   1697083.178 2
  23247758.714    -5860049.940 7  -4566265.855 6
  21631632.136   -16489880.193 8 -12849249.448 9
 92  4 11 11 14  0.0030000  0  5 12 11 17 23 21
  25122288.710    -1348471.510 5  -1050761.772 2
  22932992.803   -15741424.701 7 -12266044.615 5
  24642705.004     2273648.531 6   1771680.022 3
  23260077.486    -5795315.658 7  -4515823.552 6
  21634087.137   -16476957.825 7 -12839180.069 9
 92  4 11 11 14 30.0030000  0  5 12 11 17 23 21
  25117529.791    -1373456.678 5  -1070230.703 2
  22921900.189   -15799708.443 7 -12311460.523 6
  24660959.084     2369577.642 5   1846429.910 4
  23272417.547    -5730488.132 7  -4465308.602 7
  21636598.503   -16463792.408 8 -12828921.297 9
 92  4 11 11 15  0.0030000  0  5 12 11 17 23 21
  25112880.006    -1397879.771 5  -1089261.650 2
  22910912.799   -15857448.771 7 -12356452.988 5
  24679251.519     2465706.863 5   1921335.732 4
  23284771.673    -5665545.996 7  -4414704.328 6
  21639150.318   -16450373.818 8 -12818465.244 9
 92  4 11 11 15 30.0030000  0  5 12 11 17 23 21
  25108336.354    -1421741.168 5  -1107854.881 3
  22900026.725   -15914645.478 7 -12401021.845 5
  24697587.126     2562036.868 5   1996398.015 2
  23297143.528    -5600486.801 7  -4364008.854 7
  21641746.247   -16436715.969 8 -12807822.753 9
 92  4 11 11 16  0.0030000  0  5 12 11 17 23 21
  25103907.837    -1445035.629 5  -1126006.377 4
  22889247.411   -15971292.519 7 -12445162.403 6
  24715960.495     2658576.984 5   2071624.034 2
  23309561.522    -5535310.332 7  -4313221.986 6
  21644393.096   -16422825.673 8 -12796999.142 9
 92  4 11 11 16 30.0030000  0  5 12 11 17 23 21
  25099591.107    -1467769.405 6  -1143720.965 2
  22878572.694   -16027395.358 7 -12488878.902 6
  24734354.246     2755319.885 5   2147008.036 3
  23321978.329    -5470026.262 7  -4262351.278 6
  21647076.242   -16408705.520 7 -12785996.420 9
 92  4 11 11 17  0.0030000  0  5 12 11 17 23 21
  25095358.033    -1489941.002 5  -1160997.497 2
  22867999.328   -16082951.613 7 -12532169.490 5
  24752812.179     2852257.839 5   2222544.074 4
  23334414.018    -5404651.411 7  -4211409.847 7
  21649813.657   -16394341.275 8 -12774803.507 9
 92  4 11 11 17 30.0030000  0  5 12 11 17 23 21
  25091258.977    -1511543.755 5  -1177830.738 2
  22857533.560   -16137954.009 7 -12575028.499 6
  24771291.401     2949392.365 5   2298233.242 3
  23346879.092    -5339187.399 7  -4160398.927 7
  21652593.023   -16379728.332 8 -12763416.788 9
 92  4 11 11 18  0.0030000  0  5 12 11 17 23 21
  25087253.768    -1532576.281 5  -1194219.698 4
  22847173.645   -16192400.525 7 -12617454.361 5
  24789812.259     3046726.162 5   2374077.721 2
  23359351.670    -5273629.636 7  -4109314.967 6
  21655422.157   -16364854.142 8 -12751826.502 9
 92  4 11 11 18 30.0030000  0  5 12 11 17 23 21
  25083356.157    -1553034.738 5  -1210161.318 4
  22836921.921   -16246286.556 7 -12659443.476 6
  24808377.825     3144259.967 5   2450078.054 1
  23371853.285    -5207960.350 7  -4058144.096 7
  21658304.654   -16349707.778 8 -12740024.144 9
 92  4 11 11 19  0.0030000  0  5 12 11 17 23 21
  25079568.588    -1572916.997 5  -1225653.971 4
  22826774.270   -16299608.904 7 -12700993.354 6
  24826973.650     3241989.295 5   2526230.750 4
  23384364.254    -5142183.413 7  -4006889.368 6
  21661234.546   -16334296.362 7 -12728015.245 9
 92  4 11 11 19 30.0030000  0  5 12 11 17 23 21
  25075888.337    -1592219.216 5  -1240694.627 2
  22816733.590   -16352363.470 7 -12742100.805 6
  24845613.553     3339932.306 5   2602549.930 1
  23396894.068    -5076291.491 6  -3955545.016 7
  21664218.673   -16318639.114 7 -12715814.793 9
 92  4 11 11 20  0.0030000  0  5 12 11 17 23 21
  25072341.789    -1610945.551 5  -1255286.541 1
  22806804.171   -16404553.086 7 -12782768.035 6
  24864290.312     3438084.639 5   2679032.174 4
  23409459.866    -5010283.955 7  -3904110.580 6
  21667238.188   -16302754.086 8 -12703436.853 9
 92  4 11 11 20 30.0030000  0  5 12 11 17 23 21
  25068879.771    -1629087.901 5  -1269423.373 2
  22796979.071   -16456169.123 7 -12822988.324 6
  24883001.273     3536441.776 5   2755674.085 2
  23422036.761    -4944162.799 7  -3852587.611 7
  21670302.970   -16286647.266 7 -12690886.086 9
 92  4 11 11 21  0.0030000  0  5 12 11 17 23 21
  25065539.485    -1646649.775 5  -1283107.976 4
  22787266.698   -16507214.376 7 -12862763.834 6
  24901765.562     3634986.058 5   2832461.808 3
  23434642.449    -4877945.131 7  -3800989.426 6
  21673409.702   -16270332.502 8 -12678173.289 9
 92  4 11 11 21 30.0040000  0  5 12 11 17 23 21
  25062310.413    -1663629.498 5  -1296338.885 2
  22777661.945   -16557687.199 7 -12902093.305 6
  24920547.252     3733727.939 5   2909403.514 5
  23447268.505    -4811618.516 7  -3749306.378 6
  21676556.939   -16253805.765 7 -12665295.309 9
 92  4 11 11 22  0.0040000  0  5 12 11 17 23 21
  25059191.989    -1680022.172 5  -1309112.353 2
  22768165.711   -16607579.795 7 -12940970.649 6
  24939368.533     3832650.622 5   2986486.046 3
  23459911.642    -4745187.388 6  -3697541.874 6
  21679742.232   -16237051.206 7 -12652239.803 9
 92  4 11 11 22 30.0040000  0  5 12 11 17 23 21
  25056170.379    -1695828.544 4  -1321428.987 3
  22758785.835   -16656893.131 7 -12979396.620 6
  24958222.167     3931765.606 5   3063718.456 2
  23472575.474    -4678663.216 6  -3645704.869 6
  21682974.292   -16220068.113 7 -12639006.211 9
 92  4 11 11 23  0.0040000  0  5 12 11 17 23 21
  25053291.163    -1711040.846 5  -1333282.726 3
  22749515.022   -16705618.733 7 -13017364.619 6
  24977133.108     4031101.960 5   3141123.366 2
  23485251.591    -4612041.117 7  -3593791.539 6
  21686253.432   -16202844.118 8 -12625584.918 9
 92  4 11 11 23 30.0040000  0  5 12 11 17 23 21
  25050499.198    -1725662.319 4  -1344676.077 2
  22740351.599   -16753758.932 7 -13054876.464 6
  24996093.468     4130680.007 5   3218716.619 3
  23497939.715    -4545327.902 6  -3541807.204 6
  21689578.117   -16185373.848 8 -12611971.711 9
 92  4 11 11 24  0.0040000  0  5 12 11 17 23 21
  25047831.339    -1739687.530 5  -1355604.752 2
  22731301.148   -16801307.312 7 -13091927.150 7
  25015083.213     4230496.298 5   3296495.512 3
  23510641.030    -4478529.957 6  -3489756.852 5
  21692950.477   -16167652.501 8 -12598162.869 9
 92  4 11 11 24 30.0040000  0  5 12 11 17 23 21
  25045280.710    -1753112.059 5  -1366065.418 3
  22722367.649   -16848258.831 7 -13128512.737 6
  25034120.040     4330544.642 5   3374455.202 3
  23523377.700    -4411649.066 6  -3437641.880 6
  21696369.009   -16149679.717 7 -12584158.104 9
 92  4 11 11 25  0.0040000  0  5 12 11 17 23 21
  25042840.716    -1765936.555 5  -1376058.539 3
  22713545.936   -16894613.179 7 -13164632.999 6
  25053199.131     4430799.722 5   3452576.014 3
  23536126.968    -4344687.115 6  -3385463.760 6
  21699838.217   -16131445.782 7 -12569949.843 9
 92  4 11 11 25 30.0040000  0  5 12 11 17 23 21
  25040505.319    -1778163.396 5  -1385585.896 1
  22704835.764   -16940371.697 7 -13200288.986 6
  25072305.200     4531218.115 5   3530824.109 3
  23548875.958    -4277641.317 6  -3333220.296 6
  21703354.471   -16112959.953 7 -12555545.300 9
 92  4 11 11 26  0.0040000  0  5 12 11 17 23 21
  25038303.346    -1789788.953 5  -1394644.734 1
  22696244.324   -16985530.070 7 -13235477.330 6
  25091435.873     4631770.004 5   3609176.190 2
  23561655.206    -4210503.267 6  -3280904.962 7
  21706920.528   -16094234.963 7 -12540954.407 9
 92  4 11 11 26 30.0040000  0  5 12 11 17 23 21
  25036197.907    -1800818.958 5  -1403239.514 2
  22687765.298   -17030093.083 7 -13270201.755 6
  25110594.991     4732445.552 5   3687624.619 1
  23574453.929    -4143270.170 7  -3228515.572 6
  21710529.128   -16075276.708 7 -12526181.739 9
 92  4 11 11 27  0.0040000  0  5 12 11 17 23 21
  25034223.171    -1811237.667 5  -1411357.957 3
  22679399.873   -17074044.163 7 -13304449.352 6
  25129782.029     4833265.232 5   3766185.394 2
  23587263.784    -4075919.160 6  -3176034.308 6
  21714182.087   -16056072.855 8 -12511217.706 9
 92  4 11 11 27 30.0040000  0  5 12 11 17 23 21
  25032353.380    -1821051.890 5  -1419005.361 2
  22671153.773   -17117389.013 7 -13338224.557 6
  25148996.603     4934241.333 5   3844868.067 2
  23600105.679    -4008446.689 6  -3123458.370 6
  21717881.812   -16036639.142 8 -12496074.549 9
 92  4 11 11 28  0.0040000  0  5 12 11 17 23 21
  25030607.974    -1830255.870 5  -1426177.289 2
  22663025.810   -17160121.157 7 -13371522.332 6
  25168264.889     5035417.296 5   3923706.387 2
  23612967.397    -3940852.997 6  -3070788.003 7
  21721622.336   -16016965.902 8 -12480744.752 9
 92  4 11 11 28 30.0040000  0  5 12 11 17 23 21
  25028967.200    -1838852.056 5  -1432875.586 1
  22655005.167   -17202242.002 7 -13404343.768 6
  25187551.707     5136812.906 5   4002715.933 2
  23625859.967    -3873150.179 6  -3018032.586 6
  21725412.593   -15997053.424 8 -12465228.525 9
 92  4 11 11 29  0.0040000  0  5 12 11 17 23 21
  25027446.658    -1846837.740 5  -1439098.176 2
  22647109.537   -17243747.949 7 -13436686.071 6
  25206887.735     5238440.901 5   4081906.526 2
  23638757.318    -3805340.301 6  -2965193.742 6
  21729248.151   -15976903.588 8 -12449527.356 9
 92  4 11 11 29 30.0040000  0  5 12 11 17 23 21
  25026030.747    -1854208.663 4  -1444841.751 3
  22639326.321   -17284633.736 7 -13468545.128 6
  25226266.307     5340310.751 5   4161285.584 2
  23651680.775    -3737422.509 6  -2912270.804 6
  21733124.787   -15956515.977 7 -12433640.908 9
 92  4 11 11 30  0.0040000  0  5 12 11 17 23 21
  25024756.637    -1860966.932 5  -1450107.935 3
  22631664.837   -17324900.696 7 -13499921.975 5
  25245700.649     5442402.994 5   4240837.935 1
  23664624.020    -3669408.376 6  -2859272.800 5
  21737049.341   -15935892.392 8 -12417570.574 9
 92  4 11 11 30 30.0040000  0  5 12 11 17 23 21
  25023595.534    -1867109.540 5  -1454894.395 1
  22624121.736   -17364544.772 7 -13530813.466 6
  25265159.282     5544692.170 5   4320543.764 1
  23677590.055    -3601289.546 6  -2806193.201 6
  21741024.884   -15915021.174 8 -12401307.281 9
 92  4 11 11 31  0.0040000  0  5 12 11 17 23 21
  25022537.562    -1872641.860 5  -1459205.199 3
  22616693.772   -17403570.452 7 -13561223.085 6
  25284662.588     5647153.971 5   4400384.059 2
  23690564.781    -3533066.712 6  -2753032.582 5
  21745044.228   -15893891.352 8 -12384842.479 9
 92  4 11 11 31 30.0040000  0  5 12 11 17 23 21
  25021606.105    -1877556.311 5  -1463034.630 3
  22609390.542   -17441969.280 7 -13591144.257 6
  25304193.186     5749775.849 5   4480349.147 2
  23703579.642    -3464739.815 6  -2699790.848 5
  21749117.493   -15872494.266 8 -12368169.430 9
 92  4 11 11 32  0.0040000  0  5 12 11 17 23 21
  25020785.561    -1881847.270 5  -1466378.237 2
  22602200.319   -17479734.486 7 -13620571.690 6
  25323743.851     5852546.943 5   4560430.447 2
  23716590.035    -3396316.947 6  -2646474.333 6
  21753240.560   -15850823.878 8 -12351283.405 9
 92  4 11 11 32 30.0040000  0  5 12 11 17 23 21
  25020082.840    -1885517.313 5  -1469237.996 2
  22595136.925   -17516867.731 7 -13649506.685 6
  25343329.871     5955465.615 5   4640626.800 3
  23729627.721    -3327802.613 6  -2593086.556 6
  21757414.548   -15828888.530 8 -12334190.928 9
 92  4 11 11 33  0.0040000  0  5 12 11 17 23 21
  25019504.854    -1888567.219 5  -1471614.513 2
  22588187.131   -17553368.742 7 -13677949.045 6
  25362942.590     6058540.003 5   4720944.406 3
  23742679.472    -3259211.457 6  -2539638.896 6
  21761635.336   -15806712.357 8 -12316910.787 9
 92  4 11 11 33 30.0040000  0  5 12 11 17 23 21
  25019042.877    -1891001.718 5  -1473511.522 3
  22581362.944   -17589241.704 7 -13705901.996 6
  25382591.290     6161776.059 5   4801388.036 2
  23755751.325    -3190559.209 6  -2486143.660 6
  21765893.574   -15784328.377 8 -12299468.711 9
 92  4 11 11 34  0.0040000  0  5 12 11 17 23 21
  25018707.693    -1892812.873 5  -1474922.763 3
  22574658.675   -17624477.077 7 -13733358.137 6
  25402271.786     6265191.848 5   4881971.743 2
  23768820.771    -3121830.496 6  -2432588.826 6
  21770197.391   -15761729.409 8 -12281859.130 9
 92  4 11 11 34 30.0040000  0  5 12 11 17 23 21
  25018474.768    -1893995.530 5  -1475844.292 4
  22568077.361   -17659069.204 7 -13760313.044 6
  25421991.509     6368804.194 5   4962708.603 2
  23781922.604    -3053018.301 6  -2378968.938 6
  21774532.408   -15738908.034 7 -12264076.237 9
 92  4 11 11 35  0.0040000  0  5 12 11 17 23 21
  25018358.445    -1894557.133 5  -1476281.902 3
  22561614.114   -17693024.365 7 -13786771.615 6
  25441743.655     6472614.401 5   5043599.649 3
  23795028.659    -2984148.695 6  -2325304.310 6
  21778923.162   -15715873.754 8 -12246127.442 9
 92  4 11 11 35 30.0040000  0  5 12 11 17 23 21
  25018385.144    -1894496.439 5  -1476234.598 4
  22555275.009   -17726340.285 7 -13812732.071 6
  25461534.435     6576609.400 5   5124634.679 2
  23808151.747    -2915214.792 6  -2271589.579 6
  21783342.709   -15692613.819 7 -12228002.812 9
 92  4 11 11 36  0.0040000  0  5 12 11 17 23 21
  25018500.245    -1893807.641 5  -1475697.841 3
  22549060.009   -17759010.090 7 -13838189.063 6
  25481355.509     6680782.175 5   5205808.205 1
  23821276.090    -2846200.681 6  -2217812.356 5
  21787819.214   -15669106.487 8 -12209685.416 9
 92  4 11 11 36 30.0040000  0  5 12 11 17 23 21
  25018751.773    -1892492.993 5  -1474673.374 3
  22542965.520   -17791035.191 7 -13863143.693 6
  25501203.282     6785115.024 4   5287106.533 1
  23834429.157    -2777111.404 6  -2163976.570 5
  21792337.389   -15645361.802 7 -12191183.058 9
 92  4 11 11 37  0.0040000  0  5 12 11 17 23 21
  25019128.034    -1890546.434 5  -1473156.610 1
  22536994.579   -17822408.555 7 -13887590.470 6
  25521080.721     6889604.902 4   5368527.172 1
  23847580.479    -2707927.448 6  -2110067.028 5
  21796900.831   -15621387.225 8 -12172501.565 9
 92  4 11 11 37 30.0040000  0  5 12 11 17 23 21
  25019623.865    -1887975.959 5  -1471153.606 3
  22531145.301   -17853136.894 7 -13911534.641 6
  25541002.517     6994228.153 4   5450051.728 2
  23860773.437    -2638620.549 6  -2056061.664 5
  21801502.034   -15597189.633 7 -12153646.291 9
 92  4 11 11 38  0.0040000  0  5 12 11 17 23 21
  25020223.454    -1884774.054 5  -1468658.658 2
  22525422.886   -17883211.956 7 -13934969.759 6
  25560932.132     7099006.784 4   5531697.414 2
  23873986.497    -2569184.443 6  -2001955.636 5
  21806151.226   -15572763.239 8 -12134612.728 9
 92  4 11 11 38 30.0040000  0  5 12 11 17 23 21
  25020947.464    -1880940.092 5  -1465671.112 2
  22519827.544   -17912632.085 7 -13957894.530 6
  25580908.199     7203948.029 4   5613469.798 2
  23887229.223    -2499629.556 6  -1947757.054 5
  21810845.055   -15548114.704 8 -12115406.063 9
 92  4 11 11 39  0.0040000  0  5 12 11 17 23 21
  25021802.769    -1876477.881 5  -1462194.025 2
  22514348.838   -17941399.932 7 -13980311.036 6
  25600922.063     7309064.375 4   5695378.536 2
  23900468.634    -2429970.030 6  -1893476.918 5
  21815579.090   -15523235.207 8 -12096019.447 9
 92  4 11 11 39 30.0040000  0  5 12 11 17 23 21
  25022769.301    -1871387.737 5  -1458227.669 2
  22509000.556   -17969514.913 7 -14002218.812 6
  25620943.396     7414344.347 4   5777414.865 2
  23913756.660    -2360219.072 6  -1839125.562 6
  21820359.263   -15498108.969 8 -12076440.555 9
 92  4 11 11 40  0.0040000  0  5 12 11 17 23 21
  25023860.254    -1865662.462 5  -1453766.378 2
  22503772.750   -17996968.694 7 -14023611.365 6
  25641012.088     7519788.335 4   5859578.965 2
  23927037.742    -2290405.797 6  -1784725.625 5
  21825190.146   -15472723.792 8 -12056659.893 9
 92  4 11 11 40 30.0040000  0  5 12 11 17 23 21
  25025076.185    -1859308.251 5  -1448815.025 2
  22498678.403   -18023766.437 7 -14044492.717 6
  25661109.888     7625372.925 4   5941852.692 2
  23940340.741    -2220533.154 6  -1730279.439 5
  21830068.075   -15447095.756 8 -12036689.978 9
 92  4 11 11 41  0.0040000  0  5 12 11 17 23 21
  25026404.880    -1852321.396 5  -1443370.724 3
  22493703.346   -18049903.378 7 -14064859.193 6
  25681221.753     7731091.206 4   6024230.533 2
  23953649.149    -2150586.011 6  -1675775.179 5
  21834991.864   -15421223.032 8 -12016529.423 9
 92  4 11 11 41 30.0040000  0  5 12 11 17 23 21
  25027848.990    -1844697.164 5  -1437429.790 2
  22488860.178   -18075373.949 7 -14084706.369 6
  25701347.438     7836937.758 4   6106708.356 3
  23966976.404    -2080554.470 6  -1621205.175 6
  21839959.417   -15395117.313 8 -11996187.303 9
 92  4 11 11 42  0.0040000  0  5 12 11 17 23 21
  25029413.611    -1836437.159 5  -1430993.366 4
  22484133.053   -18100178.475 7 -14104034.565 5
  25721534.862     7942931.693 4   6189301.044 2
  23980320.167    -2010435.369 6  -1566566.942 5
  21844966.234   -15368802.529 8 -11975682.272 9
 92  4 11 11 42 30.0040000  0  6 25 12 11 17 23 21
  26122357.080     -408950.16015   -318660.028 2
  25031122.406    -1827539.851 5  -1424060.420 2
  22479542.041   -18124314.561 7 -14122841.919 6
  25741736.979     8049090.052 5   6272021.802 4
  23993679.530    -1940214.841 6  -1511849.662 5
  21850009.940   -15342290.329 7 -11955023.403 9
 92  4 11 11 43  0.0040000  0  6 25 12 11 17 23 21
  26104675.926     -501847.243 5   -391047.344 2
  25032931.959    -1818007.894 5  -1416632.954 4
  22475073.947   -18147783.787 7 -14141129.630 6
  25761971.169     8155416.850 5   6354873.880 2
  24007057.774    -1869908.433 6  -1457065.474 5
  21855096.225   -15315575.386 7 -11934206.558 9
 92  4 11 11 43 30.0040000  0  6 25 12 11 17 23 21
  26086968.073     -594853.548 4   -463519.753 2
  25034866.839    -1807836.456 6  -1408707.180 2
  22470740.744   -18170580.138 7 -14158893.031 6
  25782239.213     8261919.557 5   6437862.961 2
  24020445.896    -1799514.578 6  -1402213.156 5
  21860216.398   -15288651.381 7 -11913226.804 9
 92  4 11 11 44  0.0040000  0  6 25 12 11 17 23 21
  26069240.153     -687966.872 4   -536075.576 2
  25036920.102    -1797023.681 5  -1400281.567 2
  22466530.146   -18192700.811 7 -14176129.921 6
  25802541.460     8368592.002 5   6520984.368 2
  24033866.998    -1729022.514 6  -1347284.304 5
  21865386.304   -15261504.829 8 -11892073.652 9
 92  4 11 11 44 30.0040000  0  6 25 12 11 17 23 21
  26051526.018     -781179.807 4   -608708.996 2
  25039110.069    -1785564.893 5  -1391352.623 3
  22462445.469   -18214140.254 7 -14192835.993 6
  25822865.310     8475419.599 5   6604226.663 1
  24047305.794    -1658425.045 6  -1292273.323 6
  21870594.287   -15234110.596 7 -11870727.496 9
 92  4 11 11 45  0.0040000  0  6 25 12 11 17 23 21
  26033757.892     -874488.394 4   -681416.958 3
  25041411.892    -1773469.575 5  -1381927.706 4
  22458498.998   -18234906.586 7 -14209017.547 6
  25843221.512     8582383.828 5   6687575.339 2
  24060756.282    -1587720.545 6  -1237178.937 5
  21875857.447   -15206465.196 7 -11849185.629 9
 92  4 11 11 45 30.0040000  0  6 25 12 11 17 23 21
  26015996.397     -967884.210 4   -754192.881 1
  25043835.728    -1760733.968 5  -1372003.855 2
  22454675.760   -18254995.374 7 -14224671.149 6
  25863596.317     8689481.819 4   6771028.388 2
  24074235.249    -1516897.425 6  -1181992.123 5
  21881164.372   -15178575.756 7 -11827453.591 9
 92  4 11 11 46  0.0040000  0  6 25 12 11 17 23 21
  25998188.136    -1061362.788 4   -827033.250 2
  25046377.352    -1747360.259 5  -1361582.756 3
  22450982.316   -18274407.325 7 -14239797.358 6
  25884002.287     8796711.752 4   6854584.130 3
  24087729.817    -1445968.955 6  -1126723.204 4
  21886515.970   -15150447.600 7 -11805535.545 9
 92  4 11 11 46 30.0040000  0  6 25 12 11 17 23 21
  25980398.127    -1154921.709 4   -899936.257 2
  25049043.396    -1733346.923 5  -1350663.267 3
  22447414.166   -18293140.155 7 -14254394.370 6
  25904430.733     8904078.735 4   6938246.752 2
  24101248.361    -1374954.661 6  -1071387.408 5
  21891912.240   -15122088.723 8 -11783437.718 9
 92  4 11 11 47  0.0040000  0  6 25 12 11 17 23 21
  25962581.769    -1248554.869 4   -972897.109 2
  25051828.172    -1718693.861 5  -1339245.304 4
  22443980.940   -18311192.533 7 -14268461.164 5
  25924893.382     9011587.111 4   7022019.520 2
  24114774.688    -1303863.039 6  -1015991.378 5
  21897353.777   -15093503.450 7 -11761163.479 9
 92  4 11 11 47 30.0040000  0  6 25 12 11 17 23 21
  25944731.244    -1342260.118 4  -1045914.170 3
  25054743.963    -1703401.353 5  -1327329.054 2
  22440674.228   -18328563.829 7 -14281997.250 7
  25945359.312     9119236.380 4   7105902.090 1
  24128312.706    -1232711.280 6   -960548.452 5
  21902836.984   -15064691.882 7 -11738712.889 9
 92  4 11 11 48  0.0040000  0  6 25 12 11 17 23 21
  25926891.781    -1436035.567 4  -1118985.906 2
  25057773.950    -1687468.541 5  -1314913.829 2
  22437501.849   -18345252.168 7 -14295001.158 6
  25965885.794     9227038.609 4   7189903.840 2
  24141860.043    -1161493.391 6   -905053.988 5
  21908365.457   -15035631.917 7 -11716068.758 9
 92  4 11 11 48 30.0040000  0  7 15 25 12 11 17 23 21
  25825740.303     -529058.868 5   -412253.810 3
  25909028.342    -1529889.294 4  -1192118.616 2
  25060927.483    -1670897.653 5  -1302001.414 4
  22434456.262   -18361258.692 7 -14307473.779 6
  25986431.156     9334985.692 4   7274018.454 2
  24155429.856    -1090202.215 6   -849502.469 5
  21913940.697   -15006318.507 7 -11693227.144 9
 92  4 11 11 49  0.0040000  0  7 15 25 12 11 17 23 21
  25806988.299     -627583.068 5   -489025.877 4
  25891164.624    -1623809.676 5  -1265303.305 4
  25064203.901    -1653687.918 5  -1288591.227 2
  22431539.877   -18376581.648 7 -14319413.751 6
  26007014.002     9443080.069 4   7358247.828 3
  24169008.359    -1018818.734 6   -793878.998 5
  21919569.300   -14976749.767 7 -11670186.544 9
 92  4 11 11 49 30.0040000  0  7 15 25 12 11 17 23 21
  25788250.360     -726059.701 5   -565760.908 3
  25873272.707    -1717801.121 5  -1338543.336 1
  25067596.956    -1635838.576 5  -1274682.603 3
  22428751.507   -18391218.973 7 -14330819.468 6
  26027594.754     9551320.922 3   7442591.394 1
  24182611.711     -947346.921 6   -738186.687 5
  21925242.261   -14946936.238 7 -11646955.223 9
 92  4 11 11 50  0.0040000  0  7 15 25 12 11 17 23 21
  25769520.238     -824494.586 5   -642463.403 3
  25855369.691    -1811869.291 4  -1411843.177 3
  25071119.841    -1617347.348 5  -1260273.847 3
  22426100.121   -18405167.299 7 -14341688.304 6
  26048212.396     9659698.831 4   7527041.700 2
  24196234.294     -875774.175 6   -682415.766 4
  21930963.210   -14916884.721 7 -11623538.451 9
 92  4 11 11 50 30.0040000  0  7 15 25 12 11 17 23 21
  25750790.082     -922899.035 5   -719142.212 2
  25837462.487    -1906013.414 5  -1485202.185 3
  25074752.104    -1598210.981 5  -1245362.374 4
  22423576.470   -18418422.664 7 -14352017.173 6
  26068879.806     9768196.022 4   7611585.003 2
  24209873.070     -804105.666 6   -626570.164 5
  21936722.515   -14886612.887 8 -11599950.012 9
 92  4 11 11 51  0.0040000  0  6 15 25 12 11 23 21
  25732071.966    -1021295.538 5   -795814.806 1
  25819535.494    -2000238.860 5  -1558624.569 2
  25078520.793    -1578438.579 5  -1229955.326 1
  22421184.429   -18430993.087 7 -14361812.327 7
  24223524.410     -732353.516 6   -570659.430 3
  21942525.306   -14856137.581 8 -11576203.027 9
 92  4 11 11 51 30.0040000  0  6 15 25 12 11 23 21
  25713345.405    -1119689.682 5   -872485.563 2
  25801597.438    -2094545.578 5  -1632110.285 3
  25082408.212    -1558023.542 5  -1214047.531 2
  22418920.089   -18442870.776 7 -14371067.679 7
  24237199.727     -660526.186 6   -514690.075 4
  21948361.356   -14825441.717 7 -11552284.165 9
 92  4 11 11 52  0.0040000  0  6 15 25 12 11 23 21
  25694613.503    -1218104.757 4   -949172.644 2
  25783612.860    -2188928.570 5  -1705655.438 4
  25086417.051    -1536973.178 5  -1197644.590 2
  22416794.583   -18454062.037 7 -14379788.146 7
  24250876.858     -588621.537 6   -458660.526 4
  21954245.081   -14794530.448 7 -11528197.452 9
 92  4 11 11 52 30.0040000  0  6 15 25 12 11 23 21
  25675890.257    -1316518.720 5  -1025858.828 3
  25765646.918    -2283354.794 5  -1779234.276 3
  25090537.082    -1515280.162 5  -1180740.938 3
  22414798.243   -18464558.459 7 -14387967.194 6
  24264580.375     -516643.094 6   -402573.443 4
  21960169.291   -14763400.430 7 -11503940.312 9
 92  4 11 11 53  0.0040000  0  6 15 25 12 11 23 21
  25657163.103    -1414925.306 5  -1102539.312 3
  25747668.971    -2377822.271 5  -1852845.253 4
  25094794.447    -1492947.090 5  -1163338.573 2
  22412931.139   -18474361.644 7 -14395606.059 6
  24278282.390     -444596.708 6   -346433.420 5
  21966137.544   -14732046.747 7 -11479508.862 9
 92  4 11 11 53 30.0040000  0  6 15 25 12 11 23 21
  25638442.265    -1513294.168 4  -1179190.340 2
  25729694.898    -2472324.308 5  -1926483.180 3
  25099170.194    -1469970.636 5  -1145434.792 3
  22411201.334   -18483467.312 7 -14402701.403 6
  24292013.792     -372486.163 6   -290243.410 3
  21972145.096   -14700461.501 7 -11454896.986 9
 92  4 11 11 54  0.0040000  0  6 15 25 12 11 23 21
  25619726.836    -1611605.053 4  -1255796.181 2
  25711705.852    -2566858.059 5  -2000145.796 3
  25103657.796    -1446354.365 5  -1127032.508 3
  22409599.265   -18491877.743 7 -14409254.997 7
  24305746.067     -300305.853 6   -233998.995 4
  21978199.100   -14668658.225 7 -11430115.222 9
 92  4 11 11 54 30.0040000  0  6 15 25 12 11 23 21
  25601044.668    -1709835.479 4  -1332339.346 1
  25693706.022    -2661435.675 5  -2073842.604 1
  25108265.910    -1422098.150 5  -1108131.561 3
  22408132.085   -18499592.151 7 -14415266.231 7
  24319493.069     -228064.450 6   -177706.993 4
  21984293.903   -14636633.983 7 -11405161.275 9
 92  4 11 11 55  0.0040000  0  6 15 25 12 11 23 21
  25582369.410    -1807981.466 5  -1408816.746 3
  25675702.284    -2756065.759 5  -2147580.278 4
  25113011.916    -1397201.132 4  -1088731.247 2
  22406794.386   -18506608.215 7 -14420733.310 6
  24333251.135     -155745.729 6   -121354.772 4
  21990436.030   -14604365.211 8 -11380016.767 9
 92  4 11 11 55 30.0040000  0  6 15 25 12 11 23 21
  25563706.123    -1906060.091 5  -1485241.616 3
  25657682.072    -2850739.639 4  -2221352.084 2
  25117867.962    -1371664.451 5  -1068832.547 2
  22405590.740   -18512926.266 7 -14425656.475 7
  24347031.118      -83335.034 6    -64930.874 5
  21996620.143   -14571853.121 8 -11354682.677 9
 92  4 11 11 56  0.0040000  0  6 15 25 12 11 23 21
  25545044.337    -2004103.135 5  -1561638.765 3
  25639669.329    -2945446.358 5  -2295149.484 3
  25122842.112    -1345489.976 5  -1048436.837 2
  22404524.671   -18518547.022 7 -14430036.293 7
  24360832.042      -10821.423 6     -8426.745 2
  22002851.930   -14539104.796 8 -11329164.496 9
 92  4 11 11 56 30.0040000  0  6 15 25 12 11 23 21
  25526397.558    -2102129.488 5  -1638022.901 2
  25621639.206    -3040183.583 4  -2368970.669 2
  25127947.278    -1318674.999 5  -1027542.088 2
  22403588.432   -18523466.786 7 -14433869.894 6
  24374648.880       61802.506 5     48163.300 4
  22009129.297   -14506112.060 8 -11303455.877 9
 92  4 11 11 57  0.0040000  0  6 15 25 12 11 23 21
  25507741.460    -2200147.750 5  -1714400.753 4
  25603602.486    -3134935.696 4  -2442803.419 3
  25133176.864    -1291219.243 5  -1006147.938 2
  22402783.489   -18527684.468 7 -14437156.406 6
  24388489.694      134546.964 5    104847.273 5
  22015451.022   -14472874.550 8 -11277556.535 9
 92  4 11 11 57 30.0040000  0  6 15 25 12 11 23 21
  25489085.677    -2298159.490 5  -1790773.532
  25585566.988    -3229710.690 5  -2516654.014 2
  25138521.272    -1263126.511 5   -984257.505 2
  22402110.155   -18531202.644 7 -14439897.854 7
  24402358.709      207389.364 6    161607.581 5
  22021821.608   -14439426.396 8 -11251493.046 9
 92  4 11 11 58  0.0040000  0  6 15 25 12 11 23 21
  25470444.272    -2396137.254 5  -1867119.871 4
  25567524.266    -3324513.998 5  -2590526.693 3
  25143985.878    -1234394.175 5   -961868.669 3
  22401578.621   -18534017.826 7 -14442091.512 6
  24416229.503      280312.530 6    218430.810 5
  22028224.581   -14405773.951 8 -11225270.366 9
 92  4 11 11 58 30.0040000  0  6 15 25 12 11 23 21
  25451811.872    -2494054.274 5  -1943418.821 4
  25549483.951    -3419348.918 5  -2664424.019 4
  25149580.313    -1205020.315 5   -938979.966 2
  22401178.104   -18536126.889 7 -14443734.938 6
  24430127.589      353316.234 6    275316.812 5
  22034667.132   -14371910.257 7 -11198883.067 9
 92  4 11 11 59  0.0040000  0  6 15 25 12 11 23 21
  25433194.165    -2591895.955 5  -2019659.074 3
  25531432.853    -3514211.031 5  -2738342.524 3
  25155289.570    -1175010.620 5   -915595.800 3
  22400910.068   -18537534.745 7 -14444831.977 7
  24444023.861      426389.534 5    332256.999 4
  22041151.040   -14337847.360 8 -11172340.562 8
 92  4 11 11 59 30.0040000  0  6 15 25 12 11 23 21
  25414589.057    -2689662.484 5  -2095840.786 5
  25513376.659    -3609099.887 5  -2812281.852 2
  25161118.711    -1144362.512 5   -891714.134 2
  22400775.771   -18538237.480 7 -14445379.578 6
  24457943.515      499525.544 6    389246.054 4
  22047668.207   -14303570.300 7 -11145631.171 9
 92  4 11 12  0  0.0040000  0  6 15 25 12 11 23 21
  25395998.328    -2787357.285 5  -2171966.613 4
  25495314.148    -3704007.574 5  -2886235.875 2
  25167077.681    -1113078.768 5   -867337.192 3
  22400776.958   -18538237.034 7 -14445379.263 6
  24471873.675      572737.886 5    446294.625 4
  22054239.366   -14269059.433 7 -11118739.591 9
 92  4 11 12  0 30.0040000  0  6 15 25 12 11 23 21
  25377419.883    -2884994.441 5  -2248047.510 4
  25477254.359    -3798928.363 5  -2960200.093 2
  25173153.882    -1081161.137 5   -842466.293 3
  22400908.568   -18537534.158 7 -14444831.583 7
  24485826.625      646031.760 5    503406.698 3
  22060854.883   -14234300.546 8 -11091654.739 9
 92  4 11 12  1  0.0040000  0  6 15 25 12 11 23 21
  25358842.940    -2982584.530 5  -2324091.722 4
  25459181.378    -3893856.102 5  -3034169.737 2
  25179335.901    -1048608.400 5   -817100.491 2
  22401177.790   -18536126.671 7 -14443734.849 6
  24499784.356      719397.697 5    560574.917 4
  22067516.888   -14199289.868 8 -11064373.688 9
 92  4 11 12  1 30.0040000  0  6 15 25 12 11 23 21
  25340287.286    -3080135.971 5  -2400105.816 4
  25441123.369    -3988801.036 5  -3108152.781 2
  25185664.222    -1015424.235 5   -791242.715 2
  22401582.495   -18534017.334 7 -14442091.222 6
  24513763.970      792836.315 5    617799.798 3
  22074222.029   -14164035.301 7 -11036902.595 9
 92  4 11 12  2  0.0040000  0  6 15 25 12 11 23 21
  25321734.319    -3177632.509 5  -2476077.135 4
  25423056.391    -4083757.043 5  -3182144.446 2
  25192091.172     -981609.509 5   -764893.605 4
  22402110.434   -18531205.896 7 -14439900.514 7
  24527748.679      866356.639 5    675088.305 4
  22080975.159   -14128555.418 8 -11009255.924 9
 92  4 11 12  2 30.0040000  0  6 15 25 12 11 23 21
  25303192.765    -3275063.639 5  -2551997.468 3
  25404972.905    -4178720.523 5  -3256141.956 4
  25198645.544     -947163.748 5   -738052.775 4
  22402783.489   -18527691.054 7 -14437161.689 6
  24541753.805      939956.396 5    732438.743 4
  22087768.773   -14092855.731 7 -10981437.994 9
 92  4 11 12  3  0.0040000  0  6 15 25 12 11 23 21
  25284664.403    -3372398.026 5  -2627842.480 3
  25386916.990    -4273679.221 5  -3330135.731 3
  25205327.616     -912080.431 5   -710715.125 2
  22403589.933   -18523465.048 7 -14433868.700 6
  24555778.685     1013657.236 5    789867.927 4
  22094606.117   -14056938.023 8 -10953450.174 9
 92  4 11 12  3 30.0040000  0  6 15 25 12 11 23 21
  25266168.394    -3469629.414 5  -2703607.173 3
  25368831.131    -4368639.944 5  -3404131.058 4
  25212122.103     -876368.690 5   -682887.818 2
  22404527.359   -18518536.196 7 -14430028.059 6
  24569822.480     1087468.745 5    847383.379 4
  22101478.571   -14020818.885 8 -10925305.386 9
 92  4 11 12  4  0.0040000  0  6 15 25 12 11 23 21
  25247688.578    -3566743.174 5  -2779280.211 2
  25350775.809    -4463576.769 5  -3478107.777 3
  25219040.730     -840023.100 5   -654566.560 3
  22405596.743   -18512898.299 7 -14425634.892 6
  24583900.409     1161394.965 5    904988.199 4
  22108394.791   -13984475.312 8 -10896985.723 8
 92  4 11 12  4 30.0040000  0  6 15 25 12 11 23 21
  25229222.862    -3663748.826 4  -2854869.042 2
  25332714.834    -4558478.451 5  -3552057.112 4
  25226071.144     -803043.080 5   -625751.024 2
  22406807.579   -18506549.507 7 -14420687.804 6
  24597989.156     1235434.224 6    962681.107 3
  22115351.459   -13947892.121 8 -10868479.345 9
 92  4 11 12  5  0.0040000  0  6 15 25 12 11 23 21
  25210789.848    -3760666.215 5  -2930389.051 3
  25314654.417    -4653346.049 5  -3625979.906 4
  25233233.795     -765433.656 5   -596444.942 4
  22408149.466   -18499494.021 7 -14415190.019 7
  24612094.690     1309582.148 5   1020458.673 5
  22122357.303   -13911079.243 8 -10839793.959 9
 92  4 11 12  5 30.0040000  0  6 15 25 12 11 23 21
  25192352.891    -3857510.060 4  -3005851.816 2
  25296615.917    -4748162.123 5  -3699862.538 4
  25240513.956     -727186.939 5   -566642.288 4
  22409625.929   -18491723.010 7 -14409134.695 7
  24626228.704     1383826.071 6   1078311.061 4
  22129411.414   -13874023.373 7 -10810919.254 9
 92  4 11 12  6  0.0040000  0  6 15 25 12 11 23 21
  25173937.536    -3954297.331 5  -3081270.425 3
  25278582.793    -4842936.521 5  -3773712.695 1
  25247903.530     -688314.802 5   -536352.331 3
  22411242.412   -18483247.293 7 -14402530.247 6
  24640365.125     1458134.190 5   1136213.462 4
  22136508.697   -13836726.016 7 -10781856.369 9
 92  4 11 12  6 30.0040000  0  6 15 25 12 11 23 21
  25155530.872    -4051032.084 5  -3156648.140 3
  25260559.265    -4937681.387 5  -3847539.860 2
  25255421.118     -648814.699 5   -505573.065 3
  22412985.410   -18474063.565 7 -14395374.107 7
  24654516.519     1532504.387 5   1194164.258 4
  22143648.279   -13799195.474 7 -10752611.782 8
 92  4 11 12  7  0.0040000  0  6 15 25 12 11 23 21
  25137135.306    -4147690.400 5  -3231966.304 2
  25242524.361    -5032411.143 5  -3921355.216 2
  25263059.533     -608684.998 5   -474303.169 3
  22414869.893   -18464169.048 7 -14387664.104 6
  24668680.511     1606931.133 5   1252159.105 3
  22150837.001   -13761442.793 7 -10723194.088 9
 92  4 11 12  7 30.0040000  0  6 15 25 12 11 23 21
  25118768.254    -4244250.071 5  -3307207.612 3
  25224496.959    -5127133.251 5  -3995164.628 3
  25270817.585     -567926.959 5   -442543.666 1
  22416886.022   -18453564.427 7 -14379400.769 6
  24682852.008     1681414.176 5   1310197.801 3
  22158065.579   -13723463.373 7 -10693599.725 9
 92  4 11 12  8  0.0040000  0  6 15 25 12 11 23 21
  25100407.763    -4340691.650 5  -3382356.889 3
  25206475.212    -5221860.017 5  -4068977.678 3
  25278694.614     -526546.637 5   -410299.268 3
  22419037.634   -18442254.521 7 -14370587.859 6
  24697033.695     1755958.140 5   1368283.975 4
  22165331.675   -13685265.743 7 -10663835.332 9
 92  4 11 12  8 30.0040000  0  6 15 25 12 11 23 21
  25082072.156    -4437000.604 5  -3457402.791 4
  25188450.498    -5316584.385 5  -4142788.865 3
  25286681.997     -484541.616 5   -377568.079 4
  22421326.544   -18430236.178 7 -14361222.931 7
  24711236.078     1830584.097 5   1426434.041 3
  22172645.410   -13646852.275 8 -10633902.760 9
 92  4 11 12  9  0.0040000  0  6 15 25 12 11 23 21
  25063785.410    -4533176.099 6  -3532344.769 3
  25170424.284    -5411304.618 5  -4216596.831 2
  25294791.078     -441914.357 5   -344352.039 1
  22423748.250   -18417510.966 7 -14351307.195 6
  24725453.120     1905297.569 5   1484652.306 3
  22179993.906   -13608218.169 7 -10603798.260 9
 92  4 11 12  9 30.0040000  0  6 15 25 12 11 23 21
  25045497.477    -4629240.365 6  -3607200.032 2
  25152410.633    -5506001.602 5  -4290386.669 3
  25303014.075     -398668.559 5   -310653.989 3
  22426304.288   -18404081.560 7 -14340842.745 7
  24739701.676     1980109.431 6   1542947.195 3
  22187391.298   -13569344.243 7 -10573506.888 9
 92  4 11 12 10  0.0040000  0  6 15 25 12 11 23 21
  25027236.801    -4725209.466 5  -3681981.143 3
  25134389.828    -5600660.512 5  -4364146.860 3
  25311369.902     -354804.913 5   -276474.528 2
  22428994.937   -18389947.782 7 -14329829.420 6
  24753943.602     2055016.701 5   1601316.449 2
  22194827.639   -13530233.846 7 -10543031.245 9
 92  4 11 12 10 30.0040000  0  6 15 25 12 11 23 21
  25008989.632    -4821090.772 6  -3756693.823 4
  25116394.466    -5695265.527 5  -4437865.030 2
  25319836.643     -310318.030 5   -241809.434 3
  22431822.571   -18375103.476 7 -14318262.455 7
  24768213.133     2130024.587 5   1659764.109 3
  22202318.843   -13490884.012 7 -10512369.035 9
 92  4 11 12 11  0.0040000  0  6 15 25 12 11 23 21
  24990761.972    -4916893.216 5  -3831345.090 4
  25098400.046    -5789810.332 5  -4511536.296 2
  25328424.488     -265211.644 5   -206661.603 4
  22434779.719   -18359551.395 7 -14306143.955 6
  24782514.110     2205126.558 5   1718285.097 1
  22209855.347   -13451304.650 7 -10481527.965 9
 92  4 11 12 11 30.0040000  0  6 15 25 12 11 23 21
  24972548.971    -5012601.766 5  -3905923.166 3
  25080421.784    -5884267.399 5  -4585139.172 1
  25337129.285     -219483.505 5   -171029.289 2
  22437876.575   -18343288.387 7 -14293471.515 7
  24796826.500     2280324.041 5   1776880.522 4
  22217426.892   -13411509.376 7 -10450518.663 8
 92  4 11 12 12  0.0040000  0  6 15 25 12 11 23 21
  24954350.976    -5108211.164 5  -3980423.991 5
  25062459.717    -5978646.303 5  -4658681.161 3
  25345940.773     -173139.307 5   -134916.953 3
  22441102.352   -18326319.197 7 -14280248.777 6
  24811156.898     2355597.069 5   1835534.771 3
  22225033.826   -13371522.805 7 -10419360.299 9
 92  4 11 12 12 30.0040000  0  6 15 25 12 11 23 21
  24936184.741    -5203712.459 5  -4054840.577 3
  25044514.751    -6072950.325 5  -4732164.808 3
  25354875.179     -126181.201 5    -98326.192 2
  22444464.835   -18308645.460 7 -14266477.049 7
  24825472.882     2430948.336 5   1894250.028 4
  22232682.152   -13331336.525 7 -10388046.313 8
 92  4 11 12 13  0.0040000  0  6 15 25 12 11 23 21
  24918035.293    -5299098.398 6  -4129167.269 4
  25026591.353    -6167187.138 5  -4805596.070 3
  25363933.727      -78613.946 5    -61260.846 1
  22447963.708   -18290270.888 7 -14252159.223 6
  24839834.132     2506377.662 5   1953026.112 2
  22240367.018   -13290947.427 7 -10356574.301 9
 92  4 11 12 13 30.0040000  0  6 15 25 12 11 23 21
  24899905.040    -5394349.858 5  -4203389.153 4
  25008669.456    -6261347.779 5  -4878967.973 3
  25373097.779      -30425.994 5    -23711.780 3
  22451594.191   -18271183.040 7 -14237285.588 6
  24854207.387     2581887.445 5   2011864.867 4
  22248097.465   -13250325.274 7 -10324920.679 8
 92  4 11 12 14  0.0040000  0  6 15 25 12 11 23 21
  24881804.174    -5489476.122 5  -4277513.519 5
  24990762.566    -6355459.488 5  -4952301.773 4
  25382380.527       18371.259 5     14312.002 2
  22455363.473   -18251392.509 7 -14221864.411 7
  24868591.427     2657467.982 5   2070758.745 2
  22255876.492   -13209461.606 7 -10293078.871 9
 92  4 11 12 14 30.0040000  0  6 15 25 12 11 23 21
  24863732.100    -5584457.567 5  -4351525.005 3
  24972863.459    -6449512.525 5  -5025589.824 3
  25391785.322       67783.702 5     52815.169 3
  22459262.584   -18230892.730 7 -14205890.569 6
  24882990.754     2733142.539 5   2129725.931 4
  22263704.974   -13168335.458 7 -10261032.519 8
 92  4 11 12 15  0.0040000  0  6 15 25 12 11 23 21
  24845683.689    -5679301.323 5  -4425429.201 4
  24954968.819    -6543510.517 5  -5098834.999 4
  25401306.125      117801.036 5     91789.727 2
  22463298.087   -18209693.004 7 -14189371.314 6
  24897405.681     2808904.000 5   2188760.779 3
  22271572.998   -13126967.579 7 -10228797.803 8
 92  4 11 12 15 30.0040000  0  6 15 25 12 11 23 21
  24827660.755    -5774012.149 5  -4499229.832 4
  24937097.597    -6637437.641 5  -5172024.928 2
  25410939.064      168427.006 5    131238.476 3
  22467462.791   -18187788.868 7 -14172303.177 6
  24911840.082     2884758.539 5   2247868.182 1
  22279494.141   -13085354.654 7 -10196372.152 9
 92  4 11 12 16  0.0040000  0  6 15 25 12 11 23 21
  24809660.646    -5868589.276 5  -4572926.257 3
  24919247.979    -6731289.494 6  -5245156.238 3
  25420692.515      219662.797 5    171162.482 3
  22471769.923   -18165178.397 7 -14154684.648 6
  24926295.493     2960717.383 5   2307056.868 3
  22287453.325   -13043499.868 7 -10163758.041 9
 92  4 11 12 16 30.0040000  0  6 15 25 12 11 23 21
  24791677.289    -5963043.925 5  -4646527.263 4
  24901390.822    -6825068.618 5  -5318230.861 4
  25430549.689      271498.276 5    211553.746 4
  22476202.348   -18141870.819 7 -14136522.915 6
  24940767.064     3036774.018 5   2366321.738 3
  22295462.556   -13001411.596 7 -10130961.977 9
 92  4 11 12 17  0.0040000  0  6 15 25 12 11 23 21
  24773727.821    -6057379.977 5  -4720035.848 4
  24883568.182    -6918771.860 5  -5391246.353 5
  25440524.408      323930.884 4    252410.328 2
  22480770.292   -18117868.039 7 -14117819.464 7
  24955252.140     3112919.095 5   2425655.500 4
  22303518.902   -12959094.332 7 -10097987.506 8
 92  4 11 12 17 30.0040000  0  6 15 25 12 11 23 21
  24755809.204    -6151587.488 5  -4793444.254 3
  24865748.194    -7012396.456 5  -5464200.553 3
  25450631.888      376960.209 5    293731.874 2
  22485468.937   -18093169.560 7 -14098573.914 6
  24969770.477     3189146.090 5   2485053.144 3
  22311612.976   -12916534.780 7 -10064824.221 8
 92  4 11 12 18  0.0040000  0  6 15 25 12 11 23 21
  24737909.818    -6245648.004 6  -4866738.145 3
  24847946.808    -7105940.676 5  -5537092.139 4
  25460826.340      430585.076 5    335517.447 3
  22490300.379   -18067776.019 7 -14078786.759 6
  24984284.626     3265450.907 5   2544511.340 3
  22319760.169   -12873738.417 7 -10031476.411 8
 92  4 11 12 18 30.0040000  0  6 15 25 12 11 23 21
  24720034.687    -6339561.911 6  -4939917.794 3
  24830156.241    -7199393.259 6  -5609912.302 4
  25471134.987      484801.914 5    377764.351 3
  22495268.840   -18041690.077 7 -14058460.072 7
  24998823.066     3341832.641 5   2604029.559 4
  22327946.276   -12830717.905 7  -9997953.940 8
 92  4 11 12 19  0.0040000  0  6 15 25 12 11 23 21
  24702194.632    -6433329.906 6  -5012983.759 5
  24812397.434    -7292744.129 6  -5682653.216 3
  25481569.868      539612.879 5    420474.154 3
  22500363.222   -18014908.782 7 -14037591.560 6
  25013369.288     3418282.266 5   2663600.626 3
  22336172.902   -12787485.121 7  -9964266.065 9
 92  4 11 12 19 30.0040000  0  6 15 25 12 11 23 21
  24684371.957    -6526964.692 6  -5085945.921 3
  24794650.004    -7385993.518 6  -5755315.063 5
  25492116.884      595013.338 5    463643.332 2
  22505590.400   -17987436.114 7 -14016184.300 6
  25027928.423     3494792.529 5   2723218.984 3
  22344438.756   -12744054.395 7  -9930423.951 8
 92  4 11 12 20  0.0040000  0  6 15 25 12 11 23 21
  24666586.171    -6620469.927 6  -5158807.094 4
  24776928.993    -7479137.576 6  -5827894.819 5
  25502764.588      651002.275 5    507271.055 3
  22510949.501   -17959272.465 7 -13994238.624 6
  25042504.032     3571370.945 5   2782890.399 3
  22352737.905   -12700435.888 7  -9896435.516 8
 92  4 11 12 20 30.0040000  0  6 15 25 12 11 23 21
  24648816.580    -6713848.011 6  -5231569.226 4
  24759224.735    -7572179.067 6  -5900394.657 3
  25513537.655      707579.578 5    551357.214 3
  22516442.306   -17930416.974 7 -13971753.838 6
  25057087.737     3648014.285 5   2842612.444 2
  22361076.352   -12656620.310 7  -9862293.508 8
 92  4 11 12 21  0.0040000  0  6 15 25 12 11 23 21
  24631066.183    -6807080.262 6  -5304217.723 4
  24741539.673    -7665120.218 6  -5972816.312 5
  25524414.410      764749.971 5    595905.556 2
  22522063.684   -17900864.396 7 -13948725.883 6
  25071686.136     3724719.488 5   2902382.676 4
  22369455.562   -12612591.674 7  -9827985.502 8
 92  4 11 12 21 30.0040000  0  6 15 25 12 11 23 21
  24613355.643    -6900156.850 6  -5376744.910 3
  24723872.619    -7757961.323 6  -6045160.009 3
  25535408.396      822504.742 5    640909.306 2
  22527819.429   -17870622.706 7 -13925160.946 6
  25086293.503     3801504.398 5   2962215.033 2
  22377876.130   -12568345.630 7  -9793508.070 9
 92  4 11 12 22  0.0040000  0  6 15 25 12 11 23 21
  24595674.768    -6993062.661 6  -5449139.021 3
  24706222.631    -7850694.360 6  -6117419.484 5
  25546507.607      880844.116 5    686368.531 3
  22533704.027   -17839691.060 7 -13901058.375 6
  25100928.792     3878375.841 5   3022114.812 2
  22386336.554   -12523866.643 7  -9758849.128 8
 92  4 11 12 22 30.0040000  0  6 15 25 12 11 23 21
  24578028.375    -7085798.383 6  -5521400.614 3
  24688604.751    -7943315.611 6  -6189591.856 4
  25557725.550      939765.314 5    732281.127 2
  22539725.085   -17808071.509 7 -13876419.800 6
  25115567.361     3955323.507 5   3082073.970 2
  22394845.873   -12479146.553 7  -9724002.309 8
 92  4 11 12 23  0.0040000  0  6 15 25 12 11 23 21
  24560419.186    -7178347.848 6  -5593517.032 5
  24671005.404    -8035810.207 6  -6261665.545 5
  25569043.935      999272.640 5    778650.405 3
  22545872.622   -17775759.052 7 -13851241.272 6
  25130222.996     4032375.315 5   3142114.268 1
  22403405.833   -12434177.491 7  -9688961.502 8
 92  4 11 12 23 30.0040000  0  6 15 25 12 11 23 21
  24542836.940    -7270720.258 6  -5665495.530 3
  24653420.785    -8128175.135 6  -6333638.181 4
  25580471.699     1059361.375 5    825472.846 3
  22552149.675   -17742757.812 7 -13825526.045 6
  25144913.427     4109535.670 5   3202239.167 2
  22412009.593   -12388961.794 7  -9653728.502 8
 92  4 11 12 24  0.0040000  0  6 15 25 12 11 23 21
  24525298.494    -7362911.439 5  -5737332.780 3
  24635872.148    -8220415.826 6  -6405514.013 5
  25592020.602     1120029.884 5    872747.029 4
  22558561.932   -17709068.803 7 -13799274.887 5
  25159605.952     4186785.696 5   3262433.964 4
  22420660.713   -12343497.678 7  -9618301.933 8
 92  4 11 12 24 30.0040000  0  6 15 25 12 11 23 21
  24507791.493    -7454919.563 5  -5809027.391 4
  24618344.172    -8312543.469 6  -6477301.765 5
  25603669.949     1181270.914 4    920467.255 4
  22565102.797   -17674698.567 7 -13772492.896 6
  25174314.984     4264131.396 5   3322703.278 4
  22429358.879   -12297800.507 7  -9582693.749 8
 92  4 11 12 25  0.0040000  0  6 15 25 12 11 23 21
  24490316.601    -7546740.143 5  -5880575.873 4
  24600829.388    -8404548.569 6  -6548994.029 4
  25615447.903     1243087.721 5    968636.125 2
  22571774.992   -17639643.286 7 -13745177.116 6
  25189070.156     4341588.268 5   3383059.226 3
  22438095.121   -12251877.999 7  -9546909.988 8
 92  4 11 12 25 30.0040000  0  6 15 25 12 11 23 21
  24472873.782    -7638391.323 5  -5951992.348 4
  24583345.212    -8496430.253 6  -6620590.107 3
  25627307.385     1305475.186 4   1017249.775 3
  22578571.887   -17603907.369 7 -13717330.969 6
  25203820.545     4419130.859 4   3443481.962 4
  22446876.943   -12205742.770 7  -9510960.457 8
 92  4 11 12 26  0.0040000  0  6 15 25 12 11 23 21
  24455462.723    -7729868.597 5  -6023273.316 5
  24565886.200    -8588176.746 6  -6692080.854 4
  25639282.877     1368434.238 4   1066308.788 2
  22585503.392   -17567489.371 7 -13688953.331 6
  25218588.944     4496758.656 5   3503971.070 4
  22455695.934   -12159398.821 7  -9474848.304 8
 92  4 11 12 26 30.0040000  0  6 15 25 12 11 23 21
  24438099.651    -7821174.364 6  -6094420.644 5
  24548457.167    -8679780.819 6  -6763460.618 5
  25651379.228     1431967.506 5   1115815.154 3
  22592564.379   -17530385.963 7 -13660041.607 6
  25233386.380     4574475.712 5   3564529.785 3
  22464553.316   -12112846.432 7  -9438573.720 7
 92  4 11 12 27  0.0040000  0  6 15 25 12 11 23 21
  24420754.274    -7912310.609 6  -6165435.882 4
  24531051.796    -8771240.285 6  -6834727.701 3
  25663584.957     1496068.923 5   1165764.270 2
  22599756.102   -17492602.769 7 -13630600.158 6
  25248189.539     4652257.952 5   3625139.243 3
  22473453.241   -12066086.606 7  -9402137.503 7
 92  4 11 12 27 30.0040000  0  6 15 25 12 11 23 21
  24403443.658    -8003257.164 6  -6236303.316 4
  24513668.029    -8862557.691 6  -6905884.108 4
  25675892.666     1560735.044 5   1216153.448 4
  22607075.561   -17454142.676 7 -13600631.268 6
  25262996.607     4730092.064 5   3685789.109 3
  22482387.962   -12019108.078 7  -9365530.874 7
 92  4 11 12 28  0.0040000  0  6 15 25 12 11 23 21
  24386175.900    -8093991.220 6  -6307005.156 5
  24496319.336    -8953734.262 6  -6976930.738 4
  25688303.470     1625967.451 5   1266983.869 2
  22614521.185   -17415003.418 7 -13570133.170 6
  25277821.335     4807991.882 5   3746490.198 2
  22491371.264   -11971902.955 7  -9328747.674 7
 92  4 11 12 28 30.0040000  0  6 15 25 12 11 23 21
  24368960.632    -8184510.065 6  -6377539.304 5
  24479002.124    -9044769.190 6  -7047867.016 5
  25700817.405     1691761.368 4   1318251.819 2
  22622098.454   -17375189.223 7 -13539109.137 5
  25292655.067     4885961.589 5   3807245.725 3
  22500396.203   -11924471.532 7  -9291788.130 7
 92  4 11 12 29  0.0040000  0  6 15 25 12 11 23 21
  24351764.210    -8274803.447 6  -6447897.749 5
  24461706.515    -9135639.062 6  -7118674.682 4
  25713441.660     1758117.567 4   1369957.911 3
  22629801.329   -17334698.917 7 -13507558.272 6
  25307509.460     4964018.033 5   3868068.886 2
  22509469.129   -11876804.478 7  -9254644.980 8
 92  4 11 12 29 30.0040000  0  6 15 25 12 11 23 21
  24334630.470    -8364887.643 6  -6518093.207 4
  24444448.948    -9226346.279 6  -7189355.600 4
  25726182.239     1825030.413 5   1422097.783 2
  22637634.278   -17293537.540 7 -13475484.501 6
  25322381.269     5042175.755 5   3928970.955 2
  22518588.508   -11828900.331 7  -9217317.098 7
 92  4 11 12 30  0.0040000  0  6 15 25 12 11 23 21
  24317522.835    -8454775.644 6  -6588135.809 5
  24427220.802    -9316884.479 6  -7259904.811 5
  25739017.537     1892498.878 5   1474670.587 1
  22645594.369   -17251705.664 7 -13442888.252 7
  25337278.275     5120443.956 5   3989959.054 4
  22527746.557   -11780766.695 7  -9179810.381 7
 92  4 11 12 30 30.0040000  0  6 15 25 12 11 23 21
  24300453.241    -8544470.122 6  -6658027.591 5
  24410023.193    -9407243.988 6  -7330314.797 5
  25751960.503     1960518.820 4   1527673.079 1
  22653681.882   -17209206.895 7 -13409772.350 5
  25352204.040     5198820.342 5   4051031.503 2
  22536950.500   -11732393.486 7  -9142116.988 7
 92  4 11 12 31  0.0040000  0  6 15 25 12 11 23 21
  24283429.821    -8633967.401 6  -6727765.715 5
  24392855.878    -9497436.473 6  -7400594.630 3
  25765004.157     2029088.439 4   1581103.945 3
  22661897.689   -17166042.418 7 -13376137.715 6
  25367132.212     5277294.682 5   4112180.264 4
  22546198.801   -11683773.579 7  -9104231.346 8
 92  4 11 12 31 30.0040000  0  6 15 25 12 11 23 21
  24266432.192    -8723255.876 6  -6797341.131 5
  24375728.141    -9587461.752 6  -7470744.161 5
  25778171.358     2098215.614 5   1634969.255 3
  22670240.603   -17122203.997 7 -13341977.932 7
  25382084.047     5355860.137 5   4173400.042 4
  22555500.745   -11634910.232 7  -9066156.026 7
 92  4 11 12 32  0.0040000  0  6 15 25 12 11 23 21
  24249484.017    -8812326.048 6  -6866746.451 4
  24358631.255    -9677324.045 6  -7540766.708 5
  25791426.369     2167888.867 5   1689259.994 2
  22678707.658   -17077702.725 7 -13307301.637 5
  25397033.195     5434500.184 5   4234677.915 2
  22564842.893   -11585809.668 7  -9027895.851 7
 92  4 11 12 32 30.0040000  0  6 15 25 12 11 23 21
  24232573.639    -8901179.995 6  -6935983.281 4
  24341561.696    -9767022.909 6  -7610661.892 5
  25804786.326     2238101.159 5   1743970.947 4
  22687301.820   -17032544.903 7 -13272113.746 5
  25412024.328     5513216.527 4   4296015.253 2
  22574234.496   -11536470.933 7  -8989450.117 7
 92  4 11 12 33  0.0040000  0  6 15 25 12 11 23 21
  24215707.026    -8989810.002 6  -7005045.611 4
  24324526.584    -9856545.654 6  -7680419.852 5
  25818251.786     2308862.670 5   1799109.708 2
  22696020.089   -16986720.007 7 -13236406.051 6
  25427017.241     5592022.087 5   4357422.100 1
  22583670.736   -11486898.089 7  -8950821.946 7
 92  4 11 12 33 30.0040000  0  6 15 25 12 11 23 21
  24198883.272    -9078230.131 6  -7073944.408 3
  24307519.637    -9945889.396 6  -7750038.322 5
  25831818.912     2380160.301 5   1854666.303 2
  22704871.747   -16940240.827 7 -13200188.519 6
  25442033.852     5670915.966 5   4418897.785 4
  22593137.898   -11437108.153 7  -8912024.623 7
 92  4 11 12 34  0.0040000  0  6 15 25 12 11 23 21
  24182096.686    -9166436.191 6  -7142676.380 5
  24290557.397   -10035043.903 6  -7819509.340 4
  25845493.321     2451997.914 5   1910643.600 3
  22713837.040   -16893103.104 7 -13163457.845 6
  25457068.436     5749917.356 5   4480457.196 2
  22602661.389   -11387083.574 7  -8873044.467 7
 92  4 11 12 34 30.0040000  0  6 15 25 12 11 23 21
  24165353.865    -9254436.703 6  -7211248.205 6
  24273626.917   -10124018.371 6  -7888840.076 5
  25859259.798     2524365.358 5   1967033.775 1
  22722928.534   -16845316.135 7 -13126221.273 6
  25472118.620     5829012.071 5   4542089.368 3
  22612220.897   -11336842.446 7  -8833895.574 7
 92  4 11 12 35  0.0040000  0  6 15 25 12 11 23 21
  24148649.749    -9342221.298 6  -7279651.788 4
  24256727.602   -10212813.406 6  -7958030.980 5
  25873133.593     2597265.213 5   2023838.907 2
  22732149.264   -16796877.253 7 -13088476.709 6
  25487184.091     5908186.974 5   4603783.986 2
  22621822.635   -11286389.263 7  -8794581.426 7
 92  4 11 12 35 30.0040000  0  6 15 25 12 11 23 21
  24131980.986    -9429777.497 6  -7347877.387 5
  24239866.993   -10301420.386 6  -8027075.358 5
  25887110.520     2670699.090 5   2081060.056 4
  22741492.285   -16747784.558 7 -13050222.674 6
  25502267.257     5987444.956 5   4665543.367 1
  22631460.949   -11235719.986 7  -8755098.884 6
 92  4 11 12 36  0.0040000  0  6 15 25 12 11 23 21
  24115364.994    -9517100.895 6  -7415921.602 5
  24223037.235   -10389837.855 6  -8095972.058 5
  25901173.197     2744664.271 5   2138695.100 3
  22750954.037   -16698040.363 7 -13011461.001 6
  25517358.205     6066789.296 5   4727370.043 3
  22641149.659   -11184829.123 7  -8715443.697 7
 92  4 11 12 36 30.0040000  0  6 15 25 12 11 23 21
  24098797.548    -9604184.121 6  -7483778.633 5
  24206251.556   -10478059.037 6  -8164715.815 6
  25915360.852     2819160.489 5   2196744.119 2
  22760547.713   -16647644.544 7 -12972191.549 6
  25532476.725     6146212.184 5   4789257.921 1
  22650877.039   -11133725.670 7  -8675622.839 7
 92  4 11 12 37  0.0040000  0  6 15 25 12 11 23 21
  24082272.680    -9691033.553 6  -7551453.497 4
  24189500.953   -10566072.018 6  -8233297.336 5
  25929631.605     2894182.354 5   2255202.578 4
  22770264.588   -16596602.021 7 -12932418.174 7
  25547610.566     6225728.386 5   4851218.514 2
  22660640.051   -11082412.291 7  -8635638.405 7
 92  4 11 12 37 30.0040000  0  6 15 25 12 11 23 21
  24065793.113    -9777642.914 6  -7618941.306 5
  24172797.709   -10653873.322 6  -8301713.914 5
  25944011.422     2969726.675 5   2314068.344 4
  22780095.657   -16544915.816 7 -12892143.228 6
  25562749.781     6305344.846 5   4913257.236 2
  22670445.084   -11030878.230 7  -8595482.005 7
 92  4 11 12 38  0.0040000  0  6 15 25 12 11 23 21
  24049353.368    -9864002.855 6  -7686234.763 5
  24156129.575   -10741462.127 6  -8369964.899 6
  25958483.027     3045790.058 5   2373338.425 5
  22790050.273   -16492588.758 7 -12851368.919 6
  25577933.949     6385050.600 5   4975365.516 2
  22680291.475   -10979119.642 7  -8555150.671 7
 92  4 11 12 38 30.0040000  0  6 15 25 12 11 23 21
  24032974.524    -9950096.473 6  -7753320.694 5
  24139502.170   -10828838.181 6  -8438050.121 6
  25973051.446     3122372.818 5   2433013.245 4
  22800131.997   -16439620.469 7 -12810094.953 6
  25593106.459     6464834.065 5   5037534.344 3
  22690183.130   -10927145.499 7  -8514651.350 7
 92  4 11 12 39  0.0040000  0  6 15 25 12 11 23 21
  24016639.724   -10035922.488 6  -7820198.087 5
  24122914.970   -10916004.819 6  -8505972.154 4
  25987725.683     3199469.715 5   2493088.673 4
  22810330.043   -16386015.574 7 -12768324.921 6
  25608308.949     6544696.866 5   5099765.004 3
  22700120.017   -10874941.621 7  -8473973.039 7
 92  4 11 12 39 30.0040000  0  6 15 25 12 11 23 21
  24000360.381   -10121470.646 6  -7886858.986 5
  24106370.000   -11002964.463 6  -8573732.888 5
  26002489.859     3277078.885 4   2553563.300 4
  22820653.383   -16331775.809 7 -12726060.199 6
  25623508.403     6624622.442 4   5162044.555 2
  22710101.018   -10822495.690 7  -8433106.095 7
 92  4 11 12 40  0.0040000  0  6 15 25 12 11 23 21
  23984135.622   -10206742.469 6  -7953304.554 5
  24089865.549   -11089708.373 6  -8641325.530 5
  26017364.669     3355201.423 4   2614438.001 4
  22831096.047   -16276899.860 7 -12683299.725 6
  25638743.560     6704621.706 4   5224381.522 3
  22720125.191   -10769799.860 7  -8392044.428 7
